     2              OBSERVATION DATA    GPS                 RINEX VERSION / TYPE
teqc 2000Jul20 Karen Wendt 20030303 23:28:10UTC             PGM / RUN BY / DATE
                                                            COMMENT
L2: 1 -> 1; 150 -> 5; 250 -> 9                              COMMENT
L2: 1 -> 1; 150 -> 5; 250 -> 9                              COMMENT
L2: 1 -> 1; 150 -> 5; 250 -> 9                              COMMENT
L2: 1 -> 1; 150 -> 5; 250 -> 9                              COMMENT
L2: 1 -> 1; 150 -> 5; 250 -> 9                              COMMENT
L2: 1 -> 1; 150 -> 5; 250 -> 9                              COMMENT
L2: 1 -> 1; 150 -> 5; 250 -> 9                              COMMENT
L2: 1 -> 1; 150 -> 5; 250 -> 9                              COMMENT
L2: 1 -> 1; 150 -> 5; 250 -> 9                              COMMENT
L2: 1 -> 1; 150 -> 5; 250 -> 9                              COMMENT
L2: 1 -> 1; 150 -> 5; 250 -> 9                              COMMENT
L2: 1 -> 1; 150 -> 5; 250 -> 9                              COMMENT
L2: 1 -> 1; 150 -> 5; 250 -> 9                              COMMENT
L2: 1 -> 1; 150 -> 5; 250 -> 9                              COMMENT
Original Marker Name: oldd Old_1935_USC&GS_(LAPW5)          COMMENT
Campaign Name: USGS 2003                                    COMMENT
4-Character Station Name: OLDD                              COMMENT
6-Character Antenna Code: DMRCHT                            COMMENT
Vertical Measurement Point: BCR                             COMMENT
Vertical Offset to Rinex Ref. Point: 0.0348                 COMMENT
Radial Measurement Point: ECF                               COMMENT
Radial Offset to Rinex Ref. Point: 0.1897                   COMMENT
Antenna Height from Field Measurement: 1.4460 m             COMMENT
Additional Antenna Identification Info.:                    COMMENT
Turborogue and Ashtech Choke Ring                           COMMENT
Original XYZ: -2367581.3923 -4707898.0796 3582814.5172      COMMENT
New XYZ position is based on association with SCEC monument COMMENT
E1F2H2E1+0011. Position of that monument is believed to be  COMMENT
valid to within 1 m horizontally; vertical accuracy         COMMENT
should be no worse than 3-times this value.                 COMMENT
                                                            COMMENT
Revised Rinex header created by UCSD GPS archive for        COMMENT
GSAC on 11-Jul-2003 (2003:192) 16:38:38 GMT                 COMMENT
For assistance contact dagnew@ucsd.edu                      COMMENT
or anderson@python.ucsd.edu                                 COMMENT
                                                            COMMENT
OLD 1935                                                    MARKER NAME
JMS US GEOLOGICAL SURVEY                                    OBSERVER / AGENCY
LP019992803 ASHTECH Z-XII3 CD00                             REC # / TYPE / VERS
CR519993706 DORNE-MARGOL. TYPE T                            ANT # / TYPE
 -2367603.0697 -4707875.5746  3582806.6053                  APPROX POSITION XYZ
        1.3987        0.0000        0.0000                  ANTENNA: DELTA H/E/N
     1     1     0                                          WAVELENGTH FACT L1/2
     5    C1    L1    L2    P1    P2                        # / TYPES OF OBSERV
    30                                                      INTERVAL
  2003     2    26     0     1    0.000000                  TIME OF FIRST OBS
  2003     2    26    23    30   30.000000                  TIME OF LAST OBS
                                                            END OF HEADER
 03  2 26  0  1  0.0000000  0 10G26G30G15G 6G17G23G10G29G16G18
  21820501.645   -16752214.22149 -13043987.78046  21820501.651    21820507.243
  23777598.027    -7454520.35149  -5790264.06045  23777598.272    23777605.842
  22601902.374   -15005605.91849 -11168573.05046  22601901.649    22601907.932
  20377298.704   -26831390.91449 -20611527.14948  20377298.480    20377302.992
  21162662.315   -23833103.46749 -18554628.89847  21162661.674    21162666.870
  20704094.331   -21724858.54049 -16909977.24348  20704093.804    20704098.851
  24234881.139    -3608456.30449  -2794431.37245  24234880.641    24234887.706
  22702979.382   -12592018.50749  -9803063.85446  22702979.235    22702984.672
  24001750.466    -8316883.50049  -6283027.02145  24001749.994    24001755.667
  22109669.628   -15693916.09949 -12218938.78946  22109669.175    22109674.044
 03  2 26  0  1 30.0000000  0 10G26G30G15G 6G17G23G10G29G16G18
  21813284.643   -16790139.26549 -13073539.68746  21813284.688    21813290.292
  23796947.850    -7352836.88849  -5711030.30245  23796948.096    23796955.681
  22589685.483   -15069806.02449 -11218599.00846  22589684.717    22589690.964
  20381901.002   -26807205.72349 -20592681.54548  20381900.794    20381905.279
  21157677.001   -23859301.27949 -18575042.74547  21157676.375    21157681.571
  20698894.962   -21752181.37049 -16931267.71748  20698894.444    20698899.475
  24254911.147    -3503198.50749  -2712412.36445  24254910.524    24254917.710
  22703097.929   -12591395.20049  -9802578.11546  22703097.823    22703103.243
  23992568.585    -8365134.31849  -6320625.00345  23992568.081    23992573.778
  22094223.059   -15775088.13149 -12282189.62447  22094222.628    22094227.457
 03  2 26  0  2  0.0000000  0 10G26G30G15G 6G17G23G10G29G16G18
  21806176.153   -16827494.37649 -13102647.49646  21806176.208    21806181.764
  23816298.517    -7251148.99649  -5631793.11445  23816298.710    23816306.364
  22577490.300   -15133891.44849 -11268535.61246  22577489.619    22577495.889
  20386594.383   -26782541.75249 -20573462.86648  20386594.165    20386598.691
  21152720.078   -23885349.90949 -18595340.34847  21152719.457    21152724.646
  20693785.379   -21779032.19549 -16952190.39648  20693784.831    20693789.876
  24274950.901    -3397889.53749  -2630353.46445  24274950.281    24274957.431
  22703318.862   -12590234.40149  -9801673.54646  22703318.710    22703324.086
  23983480.183    -8412893.31149  -6357839.75145  23983479.763    23983485.610
  22078839.659   -15855928.26449 -12345181.83747  22078839.228    22078843.995
 03  2 26  0  2 30.0000000  0 10G26G30G15G 6G17G23G10G29G16G18
  21799176.423   -16864277.62049 -13131309.69446  21799176.505    21799182.053
  23835649.341    -7149459.84149  -5552554.93545  23835649.572    23835657.333
  22565316.987   -15197862.48549 -11318383.07846  22565316.257    22565322.502
  20391378.842   -26757399.00949 -20553871.11948  20391378.642    20391383.201
  21147791.600   -23911249.35649 -18615521.70547  21147790.969    21147796.137
  20688765.523   -21805411.53649 -16972745.68948  20688764.986    20688770.035
  24294999.976    -3292531.36449  -2548256.23745  24294999.312    24295006.442
  22703642.063   -12588535.67649  -9800349.82446  22703641.906    22703647.314
  23974485.663    -8460159.55749  -6394670.54445  23974485.289    23974491.073
  22063519.599   -15936435.40249 -12407914.56547  22063519.164    22063523.900
 03  2 26  0  3  0.0000000  0 10G26G30G15G 6G17G23G10G29G16G18
  21792286.107   -16900486.02849 -13159523.97146  21792286.174    21792291.737
  23855000.081    -7047771.28649  -5473317.24745  23855000.297    23855008.158
  22553165.497   -15261718.43049 -11368140.86146  22553164.799    22553170.951
  20396254.689   -26731776.34449 -20533905.40848  20396254.487    20396259.049
  21142891.711   -23936998.37349 -18635585.83847  21142891.061    21142896.234
  20683835.522   -21831318.67349 -16992933.02848  20683834.979    20683840.024
  24315058.127    -3187125.33949  -2466121.71445  24315057.416    24315064.622
  22704067.776   -12586298.01549  -9798606.15046  22704067.651    22704073.067
  23965585.226    -8506930.99949  -6431115.77145  23965584.981    23965590.725
  22048263.275   -16016607.43649 -12470386.18247  22048262.845    22048267.573
 03  2 26  0  3 30.0000000  0 10G26G30G15G 6G17G23G10G29G16G18
  21785505.605   -16936117.88049 -13187288.97846  21785505.648    21785511.156
  23874350.075    -6946086.72249  -5394082.63545  23874350.230    23874358.182
  22541035.827   -15325459.73549 -11417809.32146  22541035.126    22541041.300
  20401221.803   -26705674.04349 -20513565.95448  20401221.588    20401226.169
  21138020.291   -23962597.90149 -18655533.49347  21138019.624    21138024.772
  20678995.206   -21856754.40049 -17012753.03448  20678994.670    20678999.714
  24335124.833    -3081674.37149  -2383952.17545  24335124.144    24335131.272
  22704596.188   -12583521.26549  -9796442.39946  22704596.025    22704601.446
  23956779.235    -8553206.77149  -6467174.76145  23956778.908    23956784.754
  22033070.958   -16096443.32149 -12532595.86647  22033070.523    22033075.205
 03  2 26  0  4  0.0000000  0 10G26G30G15G 6G17G23G10G29G16G18
  21778835.087   -16971171.18849 -13214603.17546  21778835.156    21778840.629
  23893698.789    -6844408.99849  -5314853.36545  23893699.077    23893706.941
  22528928.003   -15389086.36349 -11467388.41846  22528927.288    22528933.444
  20406280.179   -26679091.95549 -20492852.64148  20406279.986    20406284.550
  21133177.206   -23988048.14249 -18675364.81747  21133176.566    21133181.713
  20674244.566   -21881719.13549 -17032206.03048  20674244.019    20674249.054
  24355199.747    -2976180.48349  -2301749.18245  24355199.056    24355206.093
  22705227.174   -12580205.28349  -9793858.47346  22705227.019    22705232.387
  23948067.785    -8598985.51249  -6502846.46845  23948067.508    23948073.242
  22017942.754   -16175942.03149 -12594542.82347  22017942.346    22017946.986
 03  2 26  0  4 30.0000000  0 10G26G30G15G 6G17G23G10G29G16G18
  21772275.192   -17005643.61049 -13241464.73046  21772275.238    21772280.731
  23913045.778    -6742740.67449  -5235631.43645  23913046.082    23913053.897
  22516841.993   -15452598.11249 -11516877.99746  22516841.286    22516847.551
  20411429.984   -26652029.74749 -20471765.20748  20411429.781    20411434.339
  21128362.614   -24013348.83249 -18695079.61147  21128361.979    21128367.113
  20669583.518   -21906212.91549 -17051292.05548  20669582.966    20669587.999
  24375282.464    -2870645.66049  -2219514.30145  24375281.654    24375288.798
  22705960.866   -12576349.41149  -9790853.86046  22705960.730    22705966.043
  23939451.269    -8644265.95949  -6538129.87545  23939450.843    23939456.568
  22002879.067   -16255101.94749 -12656225.77547  22002878.624    22002883.275
 03  2 26  0  5  0.0000000  0 10G26G30G15G 6G17G23G10G29G16G18
  21765826.155   -17039533.13449 -13267872.08246  21765826.182    21765831.713
  23932390.437    -6641084.49749  -5156418.97745  23932390.759    23932398.588
  22504777.926   -15515994.88949 -11566278.01646  22504777.197    22504783.494
  20416671.160   -26624487.17949 -20450303.46848  20416670.963    20416675.500
  21123576.511   -24038500.02449 -18714677.91447  21123575.863    21123580.988
  20665012.010   -21930236.11749 -17070011.39948  20665011.470    20665016.468
  24395372.536    -2765072.17149  -2137249.29245  24395371.735    24395378.818
  22706797.382   -12571953.25249  -9787428.24346  22706797.251    22706802.561
  23930929.656    -8689046.87249  -6573024.04145  23930929.202    23930934.929
  21987880.097   -16333921.72949 -12717643.69747  21987879.648    21987884.282
 03  2 26  0  5 30.0000000  0 10G26G30G15G 6G17G23G10G29G16G18
  21759488.427   -17072837.72049 -13293823.64246  21759488.430    21759493.982
  23951732.294    -6539443.26849  -5077218.15745  23951732.582    23951740.502
  22492735.828   -15579276.47749 -11615588.26146  22492735.054    22492741.345
  20422003.775   -26596464.15049 -20428467.33948  20422003.581    20422008.111
  21118818.829   -24063501.77049 -18734159.76547  21118818.167    21118823.279
  20660530.027   -21953788.94849 -17088364.21448  20660529.493    20660534.486
  24415469.514    -2659462.28449  -2054955.91545  24415468.703    24415475.746
  22707736.739   -12567016.56849  -9783581.44046  22707736.621    22707741.951
  23922503.283    -8733326.93149  -6607527.94545  23922502.886    23922508.644
  21972946.064   -16412400.08449 -12778795.56947  21972945.636    21972950.246
 03  2 26  0  6  0.0000000  0 10G26G30G15G 6G17G23G10G29G16G18
  21753262.427   -17105555.20549 -13319317.71946  21753262.440    21753268.006
  23971070.721    -6437819.70149  -4998031.10445  23971070.993    23971078.981
  22480715.637   -15642442.88949 -11664808.76346  22480714.835    22480721.106
  20427427.896   -26567960.35349 -20406256.58848  20427427.676    20427432.186
  21114089.598   -24088354.10749 -18753525.19547  21114088.930    21114094.011
  20656137.500   -21976871.68449 -17106350.72348  20656136.974    20656141.934
  24435572.906    -2553817.93449  -1972635.68045  24435572.026    24435579.293
  22708779.122   -12561538.72949  -9779312.96246  22708779.009    22708784.313
  23914172.630    -8777104.97249  -6641640.64945  23914172.303    23914177.937
  21958077.300   -16490535.55849 -12839680.27247  21958076.860    21958081.462
 03  2 26  0  6 30.0000000  0 10G26G30G15G 6G17G23G10G29G16G18
  21747148.425   -17137684.11049 -13344353.17246  21747148.453    21747154.023
  23990405.181    -6336216.82249  -4918860.17345  23990405.516    23990413.504
  22468717.235   -15705494.60349 -11713939.89846  22468716.431    22468722.656
  20432943.376   -26538976.24349 -20383671.56548  20432943.168    20432947.681
  21109388.791   -24113056.80249 -18772774.02447  21109388.135    21109393.212
  20651834.327   -21999484.95749 -17123971.41648  20651833.783    20651838.715
  24455682.407    -2448141.72949  -1890290.63245  24455681.514    24455688.938
  22709924.379   -12555520.06449  -9774623.05546  22709924.277    22709929.567
  23905937.774    -8820379.99049  -6675361.39045  23905937.324    23905943.079
  21943273.944   -16568327.38849 -12900297.19647  21943273.518    21943278.061
 03  2 26  0  7  0.0000000  0 10G26G30G15G 6G17G23G10G29G16G18
  21741146.952   -17169221.82849 -13368927.95046  21741146.947    21741152.489
  24009735.318    -6234637.03449  -4839707.15545  24009735.785    24009743.566
  22456740.740   -15768430.99549 -11762981.17446  22456739.973    22456746.143
  20438550.358   -26509511.28549 -20360711.85848  20438550.146    20438554.624
  21104716.456   -24137609.94949 -18791906.32847  21104715.799    21104720.907
  20647620.466   -22021628.83349 -17141226.34448  20647619.920    20647624.835
  24475797.717    -2342435.06149  -1807921.84145  24475796.748    24475804.250
  22711172.691   -12548959.89249  -9769511.20546  22711172.563    22711177.923
  23897798.584    -8863150.52949  -6708689.02645  23897798.180    23897804.016
  21928536.334   -16645773.79149 -12960644.95947  21928535.861    21928540.387
 03  2 26  0  7 30.0000000  0 10G26G30G15G 6G17G23G10G29G16G18
  21735258.285   -17200166.66649 -13393040.73746  21735258.304    21735263.818
  24029060.533    -6133083.21449  -4760574.45045  24029060.937    24029068.624
  22444786.257   -15831252.04949 -11811932.57146  22444785.489    22444791.622
  20444248.844   -26479565.45049 -20337377.44147  20444248.641    20444253.110
  21100072.591   -24162013.33449 -18810921.92947  21100071.944    21100077.046
  20643495.818   -22043303.85449 -17158115.93148  20643495.256    20643500.162
  24495918.407    -2236700.41649  -1725531.26045  24495917.409    24495925.018
  22712524.175   -12541857.86149  -9763977.12246  22712524.057    22712529.350
  23889755.846    -8905415.57149  -6741622.76145  23889755.286    23889761.215
  21913864.687   -16722873.50849 -13020722.57847  21913864.218    21913868.717
 03  2 26  0  8  0.0000000  0 10G26G30G15G 6G17G23G10G29G16G18
  21729482.796   -17230516.91049 -13416690.21846  21729482.802    21729488.311
  24048380.180    -6031558.14949  -4681464.14345  24048380.534    24048388.421
  22432853.722   -15893957.85849 -11860794.16546  22432852.949    22432859.048
  20450038.863   -26449138.77849 -20313668.34547  20450038.653    20450043.141
  21095457.168   -24186267.40149 -18829821.18247  21095456.529    21095461.605
  20639460.266   -22064510.55749 -17174640.59248  20639459.729    20639464.608
  24516043.889    -2130940.07649  -1643120.63445  24516043.046    24516050.501
  22713978.766   -12534214.18149  -9758020.97746  22713978.620    22713983.876
  23881809.334    -8947174.18549  -6774161.88645  23881808.868    23881814.713
  21899259.143   -16799625.68749 -13080529.39047  21899258.699    21899263.139
 03  2 26  0  8 30.0000000  0 10G26G30G15G 6G17G23G10G29G16G18
  21723820.959   -17260270.00949 -13439874.38646  21723820.972    21723826.433
  24067693.889    -5930064.25449  -4602378.18145  24067694.132    24067702.207
  22420943.139   -15956547.93349 -11909565.58546  22420942.405    22420948.463
  20455920.440   -26418230.79949 -20289584.20747  20455920.221    20455924.730
  21090870.243   -24210371.72349 -18848603.75047  21090869.605    21090874.689
  20635513.893   -22085248.87949 -17190800.28448  20635513.351    20635518.220
  24536173.763    -2025155.61449  -1560691.22045  24536173.041    24536180.629
  22715536.469   -12526028.03649  -9751642.13246  22715536.361    22715541.626
  23873959.491    -8988424.83449  -6806305.18245  23873959.113    23873964.911
  21884720.102   -16876028.55449 -13140064.01147  21884719.624    21884724.035
 03  2 26  0  9  0.0000000  0 10G26G30G15G 6G17G23G10G29G16G18
  21718273.008   -17289424.35949 -13462591.99846  21718273.022    21718278.473
  24087001.167    -5828604.33149  -4523318.60045  24087001.396    24087009.266
  22409054.627   -16019022.40849 -11958246.93046  22409053.865    22409059.905
  20461893.602   -26386841.52649 -20265125.03547  20461893.376    20461897.909
  21086311.814   -24234326.37549 -18867269.69247  21086311.181    21086316.255
  20631656.550   -22105519.38049 -17206595.44248  20631656.012    20631660.848
  24556308.039    -1919349.28449  -1478244.75745  24556307.253    24556314.899
  22717197.457   -12517299.47349  -9744840.62046  22717197.322    22717202.568
  23866206.600    -9029166.57449  -6838051.94745  23866206.190    23866211.987
  21870247.677   -16952081.16549 -13199325.71147  21870247.183    21870251.596
 03  2 26  0  9 30.0000000  0 10G26G30G15G 6G17G23G10G29G16G18
  21712839.290   -17317978.58949 -13484841.98346  21712839.294    21712844.702
  24106301.402    -5727181.39649  -4444287.89745  24106301.626    24106309.549
  22397187.990   -16081381.65049 -12006838.48846  22397187.260    22397193.328
  20467958.245   -26354971.54649 -20240291.28247  20467958.047    20467962.571
  21081781.855   -24258131.38349 -18885819.03247  21081781.197    21081786.272
  20627888.045   -22125322.90149 -17222026.71448  20627887.511    20627892.340
  24576446.127    -1813523.37649  -1395783.05045  24576445.300    24576453.087
  22718961.582   -12508028.67749  -9737616.59846  22718961.430    22718966.680
  23858550.794    -9069398.46649  -6869401.40745  23858550.409    23858556.113
  21855842.134   -17027782.39949 -13258313.61047  21855841.646    21855846.053
 03  2 26  0 10  0.0000000  0 10G26G30G15G 6G17G23G10G29G16G18
  21707520.098   -17345930.84949 -13506622.89946  21707520.117    21707525.496
  24125593.916    -5625798.24249  -4365288.18345  24125594.240    24125602.419
  22385343.368   -16143625.34249 -12055340.00046  22385342.630    22385348.677
  20474114.432   -26322620.80049 -20215082.91747  20474114.216    20474118.725
  21077280.267   -24281787.14249 -18904252.07147  21077279.633    21077284.693
  20624208.335   -22144659.96249 -17237094.51148  20624207.778    20624212.589
  24596587.488    -1707679.99249  -1313307.70245  24596586.527    24596594.387
  22720828.896   -12498215.60549  -9729970.01346  22720828.767    22720833.984
  23850992.076    -9109119.59149  -6900352.87445  23850991.722    23850997.338
  21841503.721   -17103131.04949 -13317026.76947  21841503.222    21841507.628
 03  2 26  0 10 30.0000000  0 10G26G30G15G 6G17G23G10G29G16G18
  21702315.900   -17373278.80249 -13527932.93246  21702315.939    21702321.295
  24144878.546    -5524457.14849  -4286321.24245  24144878.829    24144886.957
  22373520.826   -16205753.12249 -12103751.20146  22373520.054    22373526.100
  20480362.149   -26289788.79049 -20189499.53947  20480361.910    20480366.423
  21072807.212   -24305293.00749 -18922568.31047  21072806.590    21072811.651
  20620617.353   -22163530.46249 -17251798.76248  20620616.804    20620621.603
  24616731.846    -1601820.65349  -1230819.92145  24616730.921    24616738.585
  22722799.599   -12487859.50649  -9721900.30146  22722799.444    22722804.689
  23843530.726    -9148328.76449  -6930905.41545  23843530.318    23843536.034
  21827232.658   -17178125.62849 -13375464.03547  21827232.172    21827236.575
 03  2 26  0 11  0.0000000  0 10G26G30G15G 6G17G23G10G29G16G18
  21697226.945   -17400021.05149 -13548770.99546  21697227.042    21697232.337
  24164154.504    -5423161.00449  -4207389.35545  24164154.813    24164163.225
  22361720.314   -16267765.05149 -12152072.12346  22361719.554    22361725.544
  20486701.409   -26256475.73049 -20163541.31647  20486701.182    20486705.688
  21068362.638   -24328649.39249 -18940768.07447  21068361.987    21068367.040
  20617114.999   -22181935.25749 -17266140.12048  20617114.439    20617119.227
  24636878.862    -1495947.62749  -1148321.44545  24636877.944    24636885.491
  22724873.524   -12476960.64649  -9713407.64046  22724873.368    22724878.580
  23836166.998    -9187024.95449  -6961058.23145  23836166.525    23836172.437
  21813029.110   -17252765.32349 -13433624.76147  21813028.635    21813033.061
 03  2 26  0 11 30.0000000  0 10G26G30G15G 6G17G23G10G29G16G18
  21692253.654   -17426155.94049 -13569135.77646  21692253.695    21692258.981
  24183421.593    -5321912.68449  -4128494.67145  24183421.806    24183430.125
  22349941.798   -16329661.24749 -12200302.85846  22349941.058    22349947.088
  20493132.176   -26222681.89149 -20137208.46447  20493131.960    20493136.459
  21063946.561   -24351856.06049 -18958851.17547  21063945.914    21063950.966
  20613701.126   -22199875.02149 -17280119.12148  20613700.592    20613705.351
  24657027.998    -1390063.29149  -1065814.18845  24657027.285    24657034.622
  22727050.685   -12465519.28949  -9704492.25546  22727050.550    22727055.722
  23828900.925    -9225207.48349  -6990810.80345  23828900.536    23828906.424
  21798893.327   -17327049.12249 -13491508.16947  21798892.850    21798897.269
 03  2 26  0 12  0.0000000  0 10G26G30G15G 6G17G23G10G29G16G18
  21687396.188   -17451681.63649 -13589025.87146  21687396.218    21687401.533
  24202678.967    -5220714.77349  -4049639.32245  24202679.204    24202687.606
  22338185.290   -16391441.60649 -12248443.33046  22338184.567    22338190.566
  20499654.398   -26188407.38549 -20110501.06147  20499654.165    20499658.694
  21059558.948   -24374913.02949 -18976817.62347  21059558.311    21059563.344
  20610375.688   -22217350.19449 -17293736.10248  20610375.144    20610379.891
  24677179.040    -1284169.37549   -983299.45545  24677178.235    24677185.519
  22729331.174   -12453535.12749  -9695153.90946  22729331.051    22729336.236
  23821732.960    -9262875.24249  -7020162.25445  23821732.638    23821738.448
  21784825.548   -17400975.72449 -13549113.24747  21784825.049    21784829.415
 03  2 26  0 12 30.0000000  0 10G26G30G15G 6G17G23G10G29G16G18
  21682654.969   -17476596.71349 -13608440.15647  21682655.040    21682660.302
  24221926.250    -5119569.93549  -3970825.30845  24221926.440    24221934.969
  22326450.891   -16453105.97749 -12296493.42146  22326450.180    22326456.159
  20506268.091   -26153652.30549 -20083419.18747  20506267.876    20506272.386
  21055199.829   -24397820.26549 -18994667.39547  21055199.179    21055204.210
  20607138.535   -22234361.38649 -17306991.54348  20607138.005    20607142.723
  24697331.547    -1178267.95749   -900778.87745  24697330.823    24697337.901
  22731714.949   -12441008.42949  -9685392.80546  22731714.801    22731720.003
  23814663.303    -9300027.36449  -7049111.91345  23814662.792    23814668.410
  21770825.923   -17474543.89249 -13606439.02047  21770825.431    21770829.789
 03  2 26  0 13  0.0000000  0 10G26G30G15G 6G17G23G10G29G16G18
  21678030.307   -17500899.14649 -13627377.05247  21678030.372    21678035.608
  24241162.987    -5018480.71049  -3892054.60845  24241163.213    24241171.557
  22314738.622   -16514654.16149 -12344452.98146  22314737.879    22314743.844
  20512973.220   -26118416.65549 -20055962.84247  20512973.004    20512977.515
  21050869.280   -24420577.44049 -19012400.23847  21050868.647    21050873.678
  20603989.646   -22250908.93749 -17319885.70048  20603989.105    20603993.796
  24717485.050    -1072360.80549   -818253.81945  24717484.221    24717491.448
  22734202.001   -12427938.65049  -9675208.51946  22734201.850    22734207.078
  23807691.755    -9336662.61449  -7077658.81245  23807691.228    23807696.827
  21756894.764   -17547752.27849 -13663484.44047  21756894.286    21756898.631
 03  2 26  0 13 30.0000000  0  9G26G30G15G 6G17G23G29G16G18
  21673522.812   -17524586.09349 -13645834.35547  21673522.873    21673528.072
  24260388.822    -4917448.28749  -3813328.22045  24260389.143    24260397.676
  22303048.662   -16576084.76549 -12392320.91746  22303047.951    22303053.897
  20519770.047   -26082699.11749 -20028130.99947  20519769.829    20519774.323
  21046567.603   -24443183.01049 -19030014.94847  21046566.965    21046571.976
  20600929.093   -22266992.20249 -17332418.08448  20600928.554    20600933.219
  22736792.633   -12414324.81349  -9664600.29046  22736792.476    22736797.714
  23800818.957    -9372778.98549  -7105801.38245  23800818.456    23800824.135
  21743032.515   -17620598.54249 -13720247.69747  21743032.022    21743036.367
 03  2 26  0 14  0.0000000  0  9G26G30G15G 6G17G23G29G16G18
  21669132.549   -17547656.96849 -13663811.60547  21669132.602    21669137.769
  24279603.214    -4816476.54849  -3734649.10045  24279603.479    24279612.090
  22291380.892   -16637398.71849 -12440097.95746  22291380.189    22291386.195
  20526658.340   -26046500.82449 -19999924.53247  20526658.110    20526662.616
  21042294.538   -24465638.16149 -19047512.44647  21042293.873    21042298.866
  20597956.539   -22282612.92449 -17344590.04148  20597956.012    20597960.660
  22739486.563   -12400168.01349  -9653568.96446  22739486.381    22739491.579
  23794044.845    -9408376.53049  -7133539.67745  23794044.415    23794050.058
  21729239.159   -17693082.74049 -13776728.81847  21729238.691    21729243.032
 03  2 26  0 14 30.0000000  0  9G26G30G15G 6G17G23G29G16G18
  21664859.532   -17570111.64249 -13681308.69947  21664859.580    21664864.713
  24298805.433    -4715569.38149  -3656020.29445  24298805.525    24298814.147
  22279735.188   -16698597.15549 -12487784.97846  22279734.481    22279740.446
  20533637.826   -26009823.43349 -19971344.74947  20533637.599    20533642.128
  21038049.809   -24487944.34349 -19064893.86347  21038049.132    21038054.142
  20595071.604   -22297773.12549 -17356403.15048  20595071.069    20595075.735
  22742283.518   -12385469.73549  -9642115.71646  22742283.335    22742288.573
  23787369.520    -9443455.86449  -7160874.18745  23787369.057    23787374.663
  21715514.675   -17765205.16949 -13832928.04247  21715514.212    21715518.514
 03  2 26  0 15  0.0000000  0  9G26G30G15G 6G17G23G29G16G18
  21660704.233   -17591947.72949 -13698323.78647  21660704.267    21660709.379
  24317995.034    -4614728.88249  -3577443.42045  24317995.162    24318003.781
  22268111.642   -16759679.25749 -12535381.35246  22268110.928    22268116.829
  20540708.591   -25972666.38449 -19942391.20447  20540708.373    20540712.874
  21033833.601   -24510100.45549 -19082158.34747  21033832.941    21033837.959
  20592274.380   -22312472.61049 -17367857.25648  20592273.835    20592278.476
  22745183.645   -12370229.21549  -9630239.92846  22745183.487    22745188.707
  23780793.064    -9478015.54649  -7187803.76345  23780792.480    23780798.124
  21701859.371   -17836963.94749 -13888843.90447  21701858.906    21701863.177
 03  2 26  0 15 30.0000000  0  9G26G30G15G 6G17G23G29G16G18
  21656666.886   -17613163.98349 -13714855.87946  21656666.931    21656671.996
  24337171.329    -4513957.53749  -3498920.44445  24337171.497    24337180.125
  22256510.225   -16820644.85349 -12582886.95146  22256509.509    22256515.372
  20547870.625   -25935029.93549 -19913064.10847  20547870.395    20547874.861
  21029646.002   -24532106.30149 -19099305.73947  21029645.349    21029650.373
  20589564.673   -22326712.06249 -17378952.89948  20589564.122    20589568.759
  22748186.980   -12354446.66549  -9617941.78146  22748186.788    22748191.998
  23774315.472    -9512054.70149  -7214327.72345  23774314.975    23774320.641
  21688273.456   -17908358.06649 -13944475.61747  21688273.001    21688277.269
 03  2 26  0 16  0.0000000  0  9G26G30G15G 6G17G23G29G16G18
  21652747.802   -17633758.47949 -13730903.48347  21652747.845    21652752.935
  24356334.036    -4413257.94549  -3420453.35645  24356334.290    24356342.767
  22244931.048   -16881493.82649 -12630301.67946  22244930.326    22244936.097
  20555123.839   -25896914.04649 -19883363.42547  20555123.614    20555128.071
  21025487.007   -24553962.09649 -19116336.20647  21025486.339    21025491.342
  20586942.436   -22340492.01449 -17389690.48648  20586941.877    20586946.506
  22751293.385   -12338122.26649  -9605221.42446  22751293.138    22751298.378
  23767937.188    -9545572.27949  -7240445.27245  23767936.660    23767942.482
  21674757.230   -17979386.19449 -13999822.14147  21674756.768    21674761.019
 03  2 26  0 16 30.0000000  0  9G26G30G15G 6G17G23G29G16G18
  21648947.343   -17653729.75949 -13746465.46547  21648947.366    21648952.507
  24375482.596    -4312632.34249  -3342043.96745  24375482.744    24375491.384
  22233374.057   -16942225.94849 -12677625.35246  22233373.316    22233379.125
  20562468.229   -25858319.04949 -19853289.41147  20562467.990    20562472.441
  21021356.619   -24575667.22849 -19133249.27747  21021355.958    21021360.964
  20584407.516   -22353812.97849 -17400070.42248  20584406.952    20584411.573
  22754502.878   -12321255.91549  -9592078.76046  22754502.656    22754507.888
  23761658.323    -9578567.32949  -7266155.66645  23761657.797    23761663.711
  21661310.828   -18050047.37349 -14054882.72947  21661310.327    21661314.573
 03  2 26  0 17  0.0000000  0  9G26G30G15G 6G17G23G29G16G18
  21645265.748   -17673076.16549 -13761540.53247  21645265.804    21645270.931
  24394616.622    -4212083.29349  -3263694.18745  24394616.718    24394625.333
  22221839.379   -17002840.71949 -12724857.58146  22221838.671    22221844.465
  20569903.820   -25819244.78849 -19822841.94547  20569903.592    20569908.046
  21017254.932   -24597221.53849 -19150044.82247  21017254.268    21017259.276
  20581959.801   -22366675.50649 -17410093.13548  20581959.246    20581963.866
  22757815.509   -12303847.54649  -9578513.74946  22757815.312    22757820.523
  23755479.090    -9611039.02349  -7291458.25745  23755478.684    23755484.431
  21647934.506   -18120340.12549 -14109656.23547  21647934.037    21647938.263
 03  2 26  0 17 30.0000000  0  9G26G30G15G 6G17G23G29G16G18
  21641703.334   -17691796.78849 -13776127.97447  21641703.371    21641708.469
  24413735.465    -4111613.75449  -3185406.40245  24413735.522    24413744.311
  22210326.974   -17063338.44849 -12771998.61446  22210326.271    22210332.023
  20577430.490   -25779691.93949 -19792021.55547  20577430.261    20577434.718
  21013181.919   -24618625.24349 -19166723.00847  21013181.267    21013186.282
  20579599.180   -22379080.62749 -17419759.42648  20579598.620    20579603.217
  22761231.202   -12285897.75749  -9564526.85446  22761231.058    22761236.183
  23749399.614    -9642986.88049  -7316352.65945  23749399.233    23749404.877
  21634628.476   -18190263.56249 -14164141.96247  21634627.989    21634632.208
 03  2 26  0 18  0.0000000  0  9G26G30G15G 6G17G23G29G16G18
  21638260.201   -17709890.39449 -13790226.83347  21638260.254    21638265.315
  24432838.699    -4011226.40949  -3107182.63945  24432838.807    24432847.526
  22198836.821   -17123719.33349 -12819048.59546  22198836.135    22198841.861
  20585048.127   -25739660.95949 -19760828.59347  20585047.908    20585052.365
  21009137.589   -24639878.30149 -19183283.80647  21009136.927    21009141.945
  20577325.373   -22391029.26649 -17429070.01748  20577324.825    20577329.417
  22764749.823   -12267407.16749  -9550118.57246  22764749.662    22764754.777
  23743419.955    -9674410.60149  -7340838.63245  23743419.483    23743425.143
  21621392.818   -18259817.32649 -14218339.63347  21621392.322    21621396.515
 03  2 26  0 18 30.0000000  0  9G26G30G15G 6G17G23G29G16G18
  21634936.751   -17727354.99549 -13803835.54647  21634936.805    21634941.880
  24451925.804    -3910923.39149  -3029024.59545  24451925.944    24451934.680
  22187369.034   -17183982.49449 -12866006.83946  22187368.355    22187374.117
  20592756.769   -25699151.71349 -19729262.95247  20592756.531    20592761.023
  21005122.083   -24660979.68549 -19199726.41147  21005121.427    21005126.444
  20575138.406   -22402521.70149 -17438025.12448  20575137.859    20575142.449
  22768371.359   -12248375.55249  -9535288.70246  22768371.235    22768376.307
  23737540.272    -9705308.92049  -7364915.21245  23737539.833    23737545.325
  21608227.719   -18329000.02149 -14272248.14947  21608227.216    21608231.432
 03  2 26  0 19  0.0000000  0  9G26G30G15G 6G17G23G29G16G18
  21631733.220   -17744189.44149 -13816953.23947  21631733.293    21631738.335
  24470996.423    -3810707.30149  -2950934.29845  24470996.562    24471005.430
  22175923.735   -17244127.55149 -12912873.06346  22175923.048    22175928.794
  20600556.365   -25658164.46249 -19697324.84647  20600556.132    20600560.658
  21001135.416   -24681929.83849 -19216051.17947  21001134.757    21001139.743
  20573038.122   -22413558.56749 -17446625.24748  20573037.563    20573042.139
  22772095.864   -12228803.04349  -9520037.36646  22772095.716    22772100.788
  23731760.704    -9735681.10649  -7388581.83945  23731760.185    23731765.667
  21595133.477   -18397810.29649 -14325866.47647  21595133.001    21595137.182
 03  2 26  0 19 30.0000000  0  9G26G30G15G 6G17G23G29G16G18
  21628649.767   -17760392.73649 -13829579.12147  21628649.847    21628654.870
  24490049.884    -3710580.90249  -2872913.87545  24490050.121    24490059.061
  22164500.848   -17304155.09049 -12959647.71346  22164500.156    22164505.868
  20608446.803   -25616699.81049 -19665014.73347  20608446.569    20608451.104
  20997177.544   -24702728.57549 -19232257.95747  20997176.877    20997181.824
  20571024.297   -22424141.06149 -17454871.31048  20571023.747    20571028.332
  22775923.141   -12208690.26549  -9504365.03746  22775922.997    22775928.085
  23726081.110    -9765526.94249  -7411838.28845  23726080.637    23726086.173
  21582110.254   -18466247.63249 -14379194.19347  21582109.746    21582113.922
 03  2 26  0 20  0.0000000  0  9G26G30G15G 6G17G23G29G16G18
  21625686.807   -17775963.13149 -13841711.83547  21625686.869    21625691.894
  24509085.894    -3610546.38549  -2794965.08145  24509086.103    24509095.178
  22153100.486   -17364064.21449 -13006330.08746  22153099.768    22153105.457
  20616428.140   -25574757.74149 -19632332.60747  20616427.914    20616432.432
  20993248.556   -24723375.49749 -19248346.44247  20993247.887    20993252.825
  20569096.890   -22434269.58749 -17462763.63748  20569096.341    20569100.916
  22779853.251   -12188037.17049  -9488271.69346  22779853.096    22779858.159
  23720501.987    -9794845.19449  -7434683.65545  23720501.599    23720506.972
  21569158.192   -18534310.62849 -14432230.22447  21569157.703    21569161.859
 03  2 26  0 20 30.0000000  0  9G26G30G15G 6G17G23G29G16G18
  21622844.294   -17790900.55849 -13853351.32747  21622844.347    21622849.320
  24528103.717    -3510607.20249  -2717090.57745  24528103.927    24528113.197
  22141722.482   -17423855.76949 -13052920.84646  22141721.775    22141727.439
  20624500.011   -25532339.72149 -19599279.60947  20624499.796    20624504.302
  20989348.290   -24743871.37849 -19264317.23347  20989347.627    20989352.600
  20567255.510   -22443946.01049 -17470303.67848  20567254.976    20567259.521
  22783885.947   -12166845.11949  -9471758.38646  22783885.825    22783890.835
  23715023.193    -9823636.41549  -7457118.35245  23715022.891    23715028.196
  21556277.384   -18601999.42149 -14484974.66747  21556276.890    21556281.040
 03  2 26  0 21  0.0000000  0  9G26G30G15G 6G17G23G29G16G18
  21620122.711   -17805202.44849 -13864495.59447  21620122.721    21620127.687
  24547103.130    -3410764.66249  -2639291.37145  24547103.273    24547112.688
  22130367.146   -17483528.40449 -13099418.94646  22130366.446    22130372.068
  20632662.643   -25489444.92249 -19565855.09647  20632662.405    20632666.916
  20985477.068   -24764214.52849 -19280169.00947  20985476.417    20985481.402
  20565500.235   -22453169.87649 -17477491.07448  20565499.681    20565504.215
  22788021.336   -12145113.36849  -9454824.53946  22788021.181    22788026.210
  23709644.996    -9851898.96049  -7479141.09845  23709644.675    23709650.029
  21543468.225   -18669311.83949 -14537425.82947  21543467.718    21543471.825
 03  2 26  0 21 30.0000000  0  9G26G30G15G 6G17G23G29G16G18
  21617522.097   -17818868.28049 -13875144.23047  21617522.151    21617527.105
  24566083.769    -3311021.89749  -2561569.92945  24566083.863    24566093.199
  22119034.278   -17543082.81449 -13145824.91946  22119033.572    22119039.199
  20640915.800   -25446074.34749 -19532059.84647  20640915.582    20640920.055
  20981634.794   -24784405.56849 -19295902.26047  20981634.157    20981639.136
  20563830.833   -22461942.51649 -17484326.86648  20563830.287    20563834.801
  22792259.289   -12122842.83249  -9437470.84846  22792259.157    22792264.148
  23704367.534    -9879632.70449  -7500751.76145  23704367.168    23704372.460
  21530730.712   -18736247.92449 -14589583.75047  21530730.216    21530734.233
 03  2 26  0 22  0.0000000  0  9G26G30G15G 6G17G23G29G16G18
  21615042.718   -17831897.50449 -13885296.82147  21615042.767    21615047.658
  24585044.794    -3211382.09849  -2483928.72445  24585044.558    24585054.171
  22107723.904   -17602519.26549 -13192138.97946  22107723.212    22107728.768
  20649259.313   -25402228.95249 -19497894.60447  20649259.105    20649263.577
  20977821.410   -24804445.09549 -19311517.44947  20977820.757    20977825.733
  20562247.019   -22470265.46849 -17490812.25148  20562246.463    20562250.999
  22796599.541   -12100034.67449  -9419698.23246  22796599.393    22796604.390
  23699190.485    -9906837.65149  -7521950.38545  23699190.122    23699195.530
  21518064.907   -18802807.07449 -14641447.96047  21518064.404    21518068.366
 03  2 26  0 22 30.0000000  0  9G26G30G15G 6G17G23G29G16G18
  21612684.779   -17844288.01449 -13894951.71247  21612684.840    21612689.710
  24603985.697    -3111846.81749  -2406368.92645  24603985.734    24603995.460
  22096436.200   -17661836.42949 -13238360.08946  22096435.496    22096441.052
  20657693.276   -25357908.20949 -19463358.96647  20657693.057    20657697.548
  20974037.047   -24824332.11149 -19327013.80247  20974036.387    20974041.332
  20560748.777   -22478138.60549 -17496947.13648  20560748.230    20560752.770
  22801042.252   -12076688.07649  -9401506.05646  22801042.107    22801047.080
  23694114.461    -9933512.29549  -7542735.79745  23694114.066    23694119.494
  21505471.240   -18868987.11149 -14693016.75347  21505470.723    21505474.658
 03  2 26  0 23  0.0000000  0  9G26G30G15G 6G17G23G29G16G18
  21610448.648   -17856038.97849 -13904108.24347  21610448.678    21610453.504
  24622906.395    -3012418.64749  -2328892.60045  24622906.446    24622916.187
  22085171.149   -17721034.43049 -13284488.33646  22085170.445    22085176.002
  20666217.534   -25313112.81749 -19428453.46547  20666217.316    20666221.853
  20970281.710   -24844066.44549 -19342391.18047  20970281.047    20970286.006
  20559335.960   -22485563.01149 -17502732.35248  20559335.408    20559339.949
  22805587.205   -12052804.01849  -9382895.07246  22805587.091    22805592.075
  23689139.412    -9959656.46749  -7563107.84145  23689138.991    23689144.427
  21492949.802   -18934787.37849 -14744289.62547  21492949.291    21492953.216
 03  2 26  0 23 30.0000000  0  9G26G30G15G 6G17G23G29G16G18
  21608334.296   -17867149.72549 -13912765.90647  21608334.331    21608339.116
  24641806.164    -2913100.42649  -2251501.93345  24641806.262    24641815.932
  22073928.802   -17780113.43549 -13330523.87046  22073928.088    22073933.590
  20674832.012   -25267843.51049 -19393178.68747  20674831.782    20674836.338
  20966555.496   -24863647.75749 -19357649.33047  20966554.846    20966559.775
  20558008.220   -22492539.91649 -17508168.87248  20558007.677    20558012.234
  22810234.358   -12028383.07849  -9363865.74346  22810234.263    22810239.232
  23684265.013    -9985270.14849  -7583066.53545  23684264.805    23684270.329
  21480500.701   -19000207.62549 -14795266.38047  21480500.199    21480504.124
 03  2 26  0 24  0.0000000  0  9G26G30G15G 6G17G23G29G16G18
  21606342.029   -17877618.96349 -13920923.69147  21606342.071    21606346.841
  24660684.615    -2813894.50049  -2174198.75245  24660684.752    24660694.082
  22062709.133   -17839072.90049 -13376466.26246  22062708.425    22062713.877
  20683536.567   -25222100.69549 -19357534.94747  20683536.336    20683540.879
  20962858.373   -24883076.13249 -19372788.30547  20962857.736    20962862.648
  20556765.541   -22499070.09649 -17513257.29648  20556765.008    20556769.571
  22814983.602   -12003425.73949  -9344418.43746  22814983.436    22814988.442
  23679491.993   -10010352.49749  -7602611.19545  23679491.629    23679497.259
  21468124.082   -19065246.68449 -14845946.11047  21468123.587    21468127.517
 03  2 26  0 24 30.0000000  0  9G26G30G15G 6G17G23G29G16G18
  21604471.910   -17887446.28149 -13928581.28347  21604471.935    21604476.712
  24679541.157    -2714803.71849  -2096985.27745  24679541.389    24679550.707
  22051512.222   -17897912.90549 -13422315.56946  22051511.516    22051516.948
  20692331.070   -25175885.37749 -19321523.01847  20692330.837    20692335.393
  20959190.420   -24902351.41849 -19387807.99247  20959189.765    20959194.646
  20555607.592   -22505154.92749 -17517998.69448  20555607.069    20555611.619
  22819834.627   -11977933.00449  -9324553.94646  22819834.518    22819839.490
  23674820.081   -10034903.65249  -7621741.93945  23674819.724    23674825.256
  21455820.173   -19129903.96549 -14896328.34647  21455819.685    21455823.611
 03  2 26  0 25  0.0000000  0  8G26G15G 6G17G23G29G16G18
  21602725.851   -17896621.59449 -13935730.81247  21602725.894    21602730.629
  22040339.680   -17956624.57149 -13468064.86846  22040338.981    22040344.392
  20701217.049   -25129189.12049 -19285136.32647  20701216.816    20701221.367
  20955553.335   -24921464.54449 -19402701.32547  20955552.683    20955557.537
  20554535.998   -22510786.17549 -17522386.65048  20554535.461    20554539.983
  22824789.228   -11951896.27249  -9304265.54846  22824789.097    22824794.151
  23670251.121   -10058913.99949  -7640451.28445  23670250.726    23670256.196
  21443590.723   -19194169.76749 -14946405.53747  21443590.242    21443594.146
 03  2 26  0 25 30.0000000  0  8G26G15G 6G17G23G29G16G18
  21601102.321   -17905153.00649 -13942378.61047  21601102.358    21601107.113
  22029189.905   -18015216.65949 -13513720.98946  22029189.210    22029194.620
  20710192.781   -25082021.32649 -19248382.21047  20710192.562    20710197.127
  20951945.332   -24940424.50949 -19417475.31447  20951944.671    20951949.509
  20553548.817   -22515973.81949 -17526428.94248  20553548.275    20553552.786
  22829845.520   -11925325.21349  -9283560.79946  22829845.407    22829850.408
  23665783.396   -10082392.47149  -7658746.18345  23665782.999    23665788.372
  21431434.229   -19258052.40249 -14996184.16347  21431433.747    21431437.627
 03  2 26  0 26  0.0000000  0  8G26G15G 6G17G23G29G16G18
  21599600.824   -17913043.28849 -13948526.82847  21599600.848    21599605.622
  22018062.302   -18073692.60849 -13559286.61146  22018061.583    22018066.964
  20719257.422   -25034386.26149 -19211263.98547  20719257.207    20719261.769
  20948365.939   -24959234.29349 -19432132.27747  20948365.289    20948370.106
  20552645.124   -22520722.61749 -17530129.27648  20552644.570    20552649.081
  22835002.671   -11898224.14249  -9262443.04846  22835002.547    22835007.526
  23661416.227   -10105342.23649  -7676629.10145  23661415.783    23661421.109
  21419350.127   -19321554.55849 -15045666.30647  21419349.653    21419353.498
 03  2 26  0 26 30.0000000  0  8G26G15G 6G17G23G29G16G18
  21598221.827   -17920289.54849 -13954173.20747  21598221.882    21598226.645
  22006957.172   -18132050.15749 -13604759.98446  22006956.441    22006961.852
  20728411.284   -24986282.45749 -19173780.51547  20728411.060    20728415.625
  20944815.518   -24977891.90649 -19446670.66447  20944814.866    20944819.676
  20551825.152   -22525031.42349 -17533486.76148  20551824.608    20551829.118
  22840260.960   -11870591.54349  -9240911.13146  22840260.826    22840265.814
  23657150.099   -10127760.85949  -7694098.13845  23657149.626    23657154.937
  21407338.985   -19384673.27049 -15094849.66547  21407338.508    21407342.342
 03  2 26  0 27  0.0000000  0  8G26G15G 6G17G23G29G16G18
  21596965.755   -17926890.00749 -13959316.36247  21596965.812    21596970.591
  21995874.794   -18190288.12749 -13650140.17147  21995874.073    21995879.473
  20737654.373   -24937709.70449 -19135931.62647  20737654.151    20737658.714
  20941294.203   -24996396.29149 -19461089.64947  20941293.564    20941298.373
  20551088.885   -22528900.39849 -17536501.51748  20551088.348    20551092.856
  22845620.431   -11842427.27549  -9218964.92246  22845620.326    22845625.271
  23652985.237   -10149647.39149  -7711152.57245  23652984.809    23652989.957
  21395401.047   -19447407.13649 -15143733.14347  21395400.592    21395404.425
 03  2 26  0 27 30.0000000  0  8G26G15G 6G17G23G29G16G18
  21595832.734   -17932843.79649 -13963955.62147  21595832.826    21595837.574
  21984815.270   -18248406.11949 -13695426.88247  21984814.560    21984819.999
  20746986.628   -24888668.49049 -19097717.70447  20746986.410    20746990.974
  20937802.238   -25014746.67049 -19475388.63347  20937801.582    20937806.394
  20550436.132   -22532330.44849 -17539174.25548  20550435.590    20550440.095
  22851080.994   -11813731.88149  -9196604.86646  22851080.866    22851085.774
  23648921.729   -10171001.34649  -7727792.00445  23648921.372    23648926.450
  21383536.555   -19509755.22049 -15192316.01047  21383536.106    21383539.928
 03  2 26  0 28  0.0000000  0  8G26G15G 6G17G23G29G16G18
  21594823.045   -17938149.51149 -13968089.89147  21594823.105    21594827.844
  21973778.786   -18306403.02149 -13740619.22647  21973778.080    21973783.501
  20756408.033   -24839158.75649 -19059138.69747  20756407.798    20756412.361
  20934339.767   -25032942.10749 -19489566.88347  20934339.119    20934343.925
  20549866.848   -22535321.92149 -17541505.24448  20549866.314    20549870.796
  22856642.639   -11784505.12449  -9173830.74746  22856642.515    22856647.409
  23644959.734   -10191821.68049  -7744015.62845  23644959.406    23644964.395
  21371745.728   -19571716.15449 -15240597.20247  21371745.279    21371749.079
 03  2 26  0 28 30.0000000  0  8G26G15G 6G17G23G29G16G18
  21593936.849   -17942806.31949 -13971718.51947  21593936.949    21593941.644
  21962765.407   -18364278.70749 -13785717.11947  21962764.654    21962770.063
  20765918.460   -24789181.09549 -19020195.07047  20765918.234    20765922.791
  20930906.743   -25050982.76849 -19503624.52847  20930906.085    20930910.863
  20549380.842   -22537875.88949 -17543495.32748  20549380.300    20549384.787
  22862305.172   -11754748.13149  -9150643.45946  22862305.006    22862309.915
  23641099.355   -10212108.20649  -7759823.29345  23641099.018    23641104.023
  21360028.747   -19633288.94649 -15288575.94847  21360028.300    21360032.095
 03  2 26  0 29  0.0000000  0  8G26G15G 6G17G23G29G16G18
  21593174.231   -17946813.74449 -13974841.13347  21593174.307    21593179.000
  21951775.063   -18422033.04149 -13830720.44747  21951774.323    21951779.726
  20775517.759   -24738736.46249 -18980887.56547  20775517.539    20775522.122
  20927503.230   -25068868.17149 -19517561.19047  20927502.572    20927507.368
  20548977.846   -22539993.60149 -17545145.46848  20548977.299    20548981.777
  22868068.396   -11724461.68749  -9127043.61646  22868068.286    22868073.203
  23637340.506   -10231860.83349  -7775214.95345  23637340.140    23637345.196
  21348385.714   -19694473.35449 -15336252.05047  21348385.281    21348389.054
 03  2 26  0 29 30.0000000  0  8G26G15G 6G17G23G29G16G18
  21592535.367   -17950170.72849 -13977456.91847  21592535.439    21592540.131
  21940807.940   -18479665.51649 -13875628.81847  21940807.176    21940812.588
  20785205.862   -24687825.21449 -18941216.46547  20785205.642    20785210.201
  20924129.365   -25086597.85849 -19531376.51147  20924128.717    20924133.518
  20548657.731   -22541675.68649 -17546456.15748  20548657.181    20548661.654
  22873932.349   -11693646.07449  -9103031.43846  22873932.256    22873937.176
  23633683.421   -10251079.05849  -7790190.18545  23633683.052    23633688.112
  21336816.772   -19755268.21749 -15383624.61847  21336816.359    21336820.082
 03  2 26  0 30  0.0000000  0  8G26G15G 6G17G23G29G16G18
  21592020.329   -17952876.97449 -13979565.63747  21592020.405    21592025.104
  21929864.005   -18537176.14549 -13920442.25247  21929863.252    21929868.639
  20794982.560   -24636448.39049 -18901182.58247  20794982.323    20794986.896
  20920785.149   -25104171.78949 -19545070.46047  20920784.502    20920789.317
  20548420.231   -22542923.63649 -17547428.55848  20548419.675    20548424.158
  22879896.801   -11662302.64749  -9078607.95746  22879896.687    22879901.629
  23630127.905   -10269763.23349  -7804749.26445  23630127.593    23630132.659
  21325322.083   -19815673.21349 -15430693.38947  21325321.647    21325325.368
 03  2 26  0 30 30.0000000  0  8G26G15G 6G17G23G29G16G18
  21591629.283   -17954931.81949 -13981166.77447  21591629.336    21591634.039
  21918943.310   -18594564.54749 -13965160.43847  21918942.562    21918947.933
  20804847.731   -24584606.53749 -18860786.34647  20804847.504    20804852.083
  20917470.604   -25121589.70949 -19558642.84547  20917469.957    20917474.793
  20548265.167   -22543738.31549 -17548063.34448  20548264.612    20548269.119
  22885961.597   -11630431.90349  -9053773.59946  22885961.498    22885966.353
  23626674.025   -10287912.84349  -7818891.81545  23626673.764    23626678.810
  21313901.687   -19875687.54949 -15477457.75147  21313901.253    21313904.942
 03  2 26  0 31  0.0000000  0  8G26G15G 6G17G23G29G16G18
  21591362.345   -17956334.52449 -13982259.74847  21591362.391    21591367.060
  21908045.942   -18651830.49549 -14009783.20647  21908045.216    21908050.590
  20814801.238   -24532300.47249 -18820028.38347  20814801.033    20814805.611
  20914185.932   -25138850.81949 -19572093.03947  20914185.291    20914190.084
  20548192.293   -22544120.93849 -17548361.46748  20548191.753    20548196.279
  22892126.570   -11598034.71749  -9028529.01546  22892126.491    22892131.320
  23623322.039   -10305528.05249  -7832617.93845  23623321.615    23623326.749
  21302555.807   -19935310.40549 -15523917.06547  21302555.368    21302559.031
 03  2 26  0 31 30.0000000  0  8G26G15G 6G17G23G29G16G18
  21591219.537   -17957084.75449 -13982844.29847  21591219.560    21591224.234
  21897171.911   -18708973.74849 -14054310.37047  21897171.204    21897176.518
  20824842.967   -24479531.01049 -18778909.33947  20824842.751    20824847.322
  20910931.028   -25155955.27149 -19585421.16347  20910930.384    20910935.187
  20548201.476   -22544072.66349 -17548323.82748  20548200.917    20548205.444
  22898391.535   -11565111.86549  -9002874.81546  22898391.483    22898396.319
  23620071.799   -10322608.53549  -7845927.39145  23620071.336    23620076.472
  21291284.558   -19994541.17149 -15570070.85247  21291284.091    21291287.761
 03  2 26  0 32  0.0000000  0  8G26G15G 6G17G23G29G16G18
  21591200.981   -17957181.90349 -13982919.95647  21591201.023    21591205.710
  21886321.254   -18765993.99949 -14098741.68247  21886320.546    21886325.887
  20834972.673   -24426299.03749 -18737429.88747  20834972.479    20834977.041
  20907705.962   -25172902.96649 -19598627.13747  20907705.317    20907710.126
  20548292.450   -22543594.60249 -17547951.28448  20548291.904    20548296.409
  22904756.372   -11531664.42249  -8976811.85246  22904756.297    22904761.175
  23616923.112   -10339154.47749  -7858820.31145  23616922.685    23616927.844
  21280087.917   -20053379.43649 -15615918.79447  21280087.472    21280091.141
 03  2 26  0 32 30.0000000  0  8G26G15G 6G17G23G29G16G18
  21591305.989   -17956629.86849 -13982489.75747  21591306.000    21591310.705
  21875493.281   -18822895.13449 -14143080.18347  21875492.562    21875497.908
  20845189.422   -24372609.63449 -18695594.00447  20845189.216    20845193.794
  20904510.038   -25189697.59049 -19611713.83747  20904509.389    20904514.223
  20548464.156   -22542692.12249 -17547248.03348  20548463.595    20548468.100
  22911220.036   -11497697.54949  -8950344.14046  22911219.913    22911224.819
  23613875.453   -10355169.95449  -7871299.89445  23613875.014    23613880.189
  21268965.376   -20111828.71549 -15661463.63247  21268964.902    21268968.566
 03  2 26  0 33  0.0000000  0  8G26G15G 6G17G23G29G16G18
  21591535.723   -17955422.52349 -13981548.94647  21591535.721    21591540.418
  21864689.120   -18879671.19449 -14187321.21547  21864688.391    21864693.718
  20855494.145   -24318457.96549 -18653397.91147  20855493.922    20855498.502
  20901344.353   -25206333.20849 -19624676.64047  20901343.731    20901348.526
  20548717.488   -22541360.76149 -17546210.58448  20548716.949    20548721.421
  22917783.466   -11463206.48749  -8923467.95846  22917783.359    22917788.197
  23610929.847   -10370649.26649  -7883361.68145  23610929.434    23610934.531
  21257918.020   -20169882.69049 -15706700.44247  21257917.570    21257921.226
 03  2 26  0 33 30.0000000  0  8G26G15G 6G17G23G29G16G18
  21591890.292   -17953559.22549 -13980096.97047  21591890.295    21591894.964
  21853908.783   -18936321.86249 -14231464.54047  21853908.064    21853913.373
  20865886.733   -24263844.59349 -18610842.04447  20865886.517    20865891.078
  20898209.128   -25222808.91549 -19637514.83647  20898208.471    20898213.275
  20549052.214   -22539601.60449 -17544839.79248  20549051.668    20549056.118
  22924446.486   -11428191.96549  -8896183.88646  22924446.406    22924451.226
  23608086.296   -10385592.37549  -7895005.64445  23608085.892    23608091.009
  21246946.042   -20227540.66949 -15751628.68747  21246945.576    21246949.221
 03  2 26  0 34  0.0000000  0  8G26G15G 6G17G23G29G16G18
  21592369.502   -17951040.94849 -13978134.63947  21592369.484    21592374.153
  21843152.197   -18992848.04949 -14275510.87147  21843151.461    21843156.770
  20876366.785   -24208771.75249 -18567928.14747  20876366.572    20876371.130
  20895104.064   -25239125.95249 -19650229.39447  20895103.431    20895108.223
  20549467.871   -22537417.21149 -17543137.64548  20549467.310    20549471.768
  22931208.735   -11392656.38049  -8868493.79146  22931208.575    22931213.418
  23605344.570   -10400000.66949  -7906232.87445  23605344.081    23605349.133
  21236049.290   -20284803.40249 -15796248.94347  21236048.819    21236052.449
 03  2 26  0 34 30.0000000  0  8G26G15G 6G17G23G29G16G18
  21592973.541   -17947866.52549 -13975661.03147  21592973.556    21592978.231
  21832419.441   -19049248.86149 -14319459.50647  21832418.691    21832424.015
  20886934.208   -24153239.63849 -18524656.38347  20886933.996    20886938.557
  20892029.346   -25255283.66649 -19662819.80747  20892028.699    20892033.467
  20549964.414   -22534807.88349 -17541104.38048  20549963.866    20549968.312
  22938069.996   -11356599.73749  -8840397.68346  22938069.875    22938074.740
  23602704.690   -10413873.54149  -7917042.89945  23602704.288    23602709.263
  21225227.991   -20341669.54249 -15840560.17147  21225227.511    21225231.121
 03  2 26  0 35  0.0000000  0  8G26G15G 6G17G23G29G16G18
  21593702.263   -17944036.62849 -13972676.65747  21593702.311    21593706.958
  21821710.391   -19105525.02449 -14363311.01547  21821709.675    21821714.962
  20897588.660   -24097250.12249 -18481028.19747  20897588.441    20897593.023
  20888984.889   -25271282.36649 -19675286.31247  20888984.237    20888988.987
  20550541.381   -22531775.95349 -17538741.81548  20550540.827    20550545.262
  22945030.079   -11320024.18649  -8811897.22246  22945029.986    22945034.775
  23600166.501   -10427211.99749  -7927436.48945  23600166.095    23600171.015
  21214482.088   -20398139.51549 -15884562.69547  21214481.600    21214485.187
 03  2 26  0 35 30.0000000  0  8G26G15G 6G17G23G29G16G18
  21594555.899   -17939550.66349 -13969181.06447  21594555.930    21594560.557
  21811025.276   -19161675.58449 -14407064.64747  21811024.552    21811029.801
  20908330.077   -24040803.56649 -18437043.88547  20908329.854    20908334.469
  20885970.884   -25287121.11849 -19687628.18247  20885970.234    20885974.969
  20551198.581   -22528322.24449 -17536050.59248  20551198.032    20551202.450
  22952088.793   -11282930.35049  -8782992.90946  22952088.650    22952093.443
  23597729.995   -10440015.63349  -7937413.35245  23597729.662    23597734.477
  21203811.753   -20454212.21249 -15928255.66247  21203811.277    21203814.844
 03  2 26  0 36  0.0000000  0  8G26G15G 6G17G23G29G16G18
  21595534.257   -17934409.17149 -13965174.66847  21595534.303    21595538.905
  21800363.948   -19217701.18949 -14450720.90547  21800363.203    21800368.429
  20919158.061   -23983902.05249 -18392705.05647  20919157.858    20919162.489
  20882987.161   -25302800.55349 -19699845.90747  20882986.519    20882991.248
  20551935.632   -22524448.83849 -17533032.32848  20551935.091    20551939.507
  22959245.771   -11245320.16949  -8753686.25046  22959245.625    22959250.417
  23595395.260   -10452285.47349  -7946974.22045  23595394.828    23595399.715
  21193216.901   -20509888.40849 -15971639.66347  21193216.422    21193219.996
 03  2 26  0 36 30.0000000  0  8G26G15G 6G17G23G29G16G18
  21596637.603   -17928610.98949 -13960656.55847  21596637.629    21596642.212
  21789726.576   -19273600.45949 -14494278.72447  21789725.837    21789731.090
  20930072.644   -23926545.45849 -18348011.61447  20930072.443    20930077.087
  20880034.015   -25318319.50249 -19711938.57847  20880033.354    20880038.087
  20552752.520   -22520155.93449 -17529687.18548  20552751.976    20552756.406
  22966500.974   -11207193.79449  -8723977.36146  22966500.833    22966505.608
  23593162.070   -10464020.74349  -7956118.57445  23593161.634    23593166.570
  21182697.831   -20565166.40749 -16014713.38047  21182697.364    21182700.896
 03  2 26  0 37  0.0000000  0  8G26G15G 6G17G23G29G16G18
  21597865.844   -17922156.36149 -13955626.94747  21597865.899    21597870.457
  21779113.294   -19329373.51649 -14537738.19747  21779112.554    21779117.803
  20941073.627   -23868734.95949 -18302964.48247  20941073.427    20941078.075
  20877111.412   -25333677.72149 -19723906.01047  20877110.747    20877115.514
  20553648.886   -22515445.31149 -17526016.55048  20553648.355    20553652.784
  22973854.121   -11168552.56449  -8693867.28946  22973854.012    22973858.764
  23591030.483   -10475222.05249  -7964846.85545  23591030.030    23591035.027
  21172254.582   -20620046.05249 -16057476.69747  21172254.104    21172257.613
 03  2 26  0 37 30.0000000  0  8G26G15G 6G17G23G29G16G18
  21599219.024   -17915044.91449 -13950085.52047  21599219.082    21599223.670
  21768524.037   -19385020.15149 -14581099.15947  21768523.305    21768528.554
  20952160.770   -23810471.60749 -18257564.47747  20952160.581    20952165.261
  20874219.436   -25348874.96349 -19735748.00847  20874218.789    20874223.547
  20554624.490   -22510318.33949 -17522021.48548  20554623.960    20554628.375
  22981305.098   -11129397.68349  -8663356.96946  22981304.963    22981309.662
  23589000.479   -10485889.55349  -7973159.16245  23588999.945    23589005.000
  21161887.173   -20674527.06549 -16099929.38947  21161886.681    21161890.206
 03  2 26  0 38  0.0000000  0  8G26G15G 6G17G23G29G16G18
  21600696.996   -17907277.83349 -13944033.21747  21600697.059    21600701.666
  21757958.775   -19440540.92749 -14624362.05047  21757958.039    21757963.272
  20963333.703   -23751757.48249 -18211813.21847  20963333.516    20963338.189
  20871357.986   -25363911.75249 -19747464.97547  20871357.340    20871362.110
  20555678.907   -22504777.23549 -17517703.71948  20555678.380    20555682.800
  22988853.377   -11089731.16249  -8632447.97346  22988853.208    22988857.928
  23587071.811   -10496024.45749  -7981056.48945  23587071.340    23587076.341
  21151595.551   -20728609.69249 -16142071.65047  21151595.056    21151598.558
 03  2 26  0 38 30.0000000  0  8G26G15G 6G17G23G29G16G18
  21602300.263   -17898852.61149 -13937468.06747  21602300.309    21602304.884
  21747417.897   -19495933.31749 -14667524.90047  21747417.177    21747422.380
  20974592.646   -23692591.44249 -18165709.82247  20974592.452    20974597.110
  20868527.617   -25378785.40249 -19759054.82247  20868526.979    20868531.739
  20556812.318   -22498821.07149 -17513062.53248  20556811.775    20556816.197
  22996499.140   -11049552.13149  -8601139.62246  22996498.985    22996503.691
  23585244.819   -10505624.80449  -7988537.24845  23585244.414    23585249.465
  21141380.148   -20782291.68349 -16183901.73847  21141379.668    21141383.171
 03  2 26  0 39  0.0000000  0  8G26G15G 6G17G23G29G16G18
  21604028.344   -17889771.53449 -13930391.85947  21604028.373    21604032.949
  21736901.058   -19551199.24449 -14710589.20147  21736900.367    21736905.550
  20985936.967   -23632976.72949 -18119256.80647  20985936.788    20985941.413
  20865727.967   -25393497.59849 -19770518.85247  20865727.328    20865732.111
  20558024.017   -22492453.47449 -17508100.74448  20558023.477    20558027.892
  23004241.899   -11008863.97449  -8569434.53746  23004241.735    23004246.374
  23583518.994   -10514693.20349  -7995603.50545  23583518.600    23583523.706
  21131240.755   -20835574.38849 -16225420.68747  21131240.277    21131243.774
 03  2 26  0 39 30.0000000  0  8G26G15G 6G17G23G29G16G18
  21605881.457   -17880033.15549 -13922803.47747  21605881.489    21605886.044
  21726408.684   -19606337.06849 -14753553.69547  21726407.991    21726413.162
  20997366.691   -23572913.23749 -18072454.10147  20997366.516    20997371.112
  20862959.247   -25408047.20249 -19781856.19747  20862958.604    20862963.405
  20559314.005   -22485674.45049 -17502818.37348  20559313.463    20559317.872
  23012081.503   -10967666.44649  -8537332.55446  23012081.397    23012085.937
  23581894.791   -10523228.69949  -8002254.53645  23581894.265    23581899.440
  21121177.592   -20888456.32749 -16266627.35747  21121177.113    21121180.628
 03  2 26  0 40  0.0000000  0  8G26G15G 6G17G23G29G16G18
  21607859.561   -17869638.06149 -13914703.37247  21607859.580    21607864.167
  21715940.671   -19661346.61849 -14796418.22947  21715939.948    21715945.129
  21008881.576   -23512402.19249 -18025302.65047  21008881.404    21008885.993
  20860221.529   -25422434.07349 -19793066.73347  20860220.899    20860225.664
  20560681.972   -22478485.71549 -17497216.74548  20560681.446    20560685.816
  23020017.707   -10925961.16049  -8504834.90846  23020017.604    23020022.160
  23580371.892   -10531231.89849  -8008490.78545  23580371.378    23580376.492
  21111190.692   -20940937.51849 -16307521.75447  21111190.227    21111193.743
 03  2 26  0 40 30.0000000  0  8G26G15G 6G17G23G29G16G18
  21609962.608   -17858586.29249 -13906091.56447  21609962.664    21609967.231
  21705497.075   -19716227.91049 -14839182.82747  21705496.348    21705501.538
  21020481.377   -23451444.97949 -17977803.53247  21020481.194    21020485.787
  20857514.815   -25436658.07149 -19804150.35547  20857514.163    20857518.945
  20562127.616   -22470888.87549 -17491297.11248  20562127.076    20562131.456
  23028050.215   -10883749.74149  -8471942.88246  23028050.093    23028054.716
  23578949.956   -10538703.54749  -8014312.82245  23578949.533    23578954.656
  21101280.140   -20993017.68049 -16348103.66147  21101279.678    21101283.203
 03  2 26  0 41  0.0000000  0  8G26G15G 6G17G23G29G16G18
  21612190.669   -17846877.59549 -13896967.86947  21612190.712    21612195.261
  21695078.029   -19770980.17449 -14881846.88647  21695077.291    21695082.488
  21032165.905   -23390042.44249 -17929957.41247  21032165.715    21032170.309
  20854839.282   -25450718.03749 -19815106.15547  20854838.626    20854843.407
  20563650.700   -22462884.85449 -17485060.19548  20563650.181    20563654.561
  23036178.969   -10841032.94149  -8438657.05446  23036178.825    23036183.475
  23577629.260   -10545643.38949  -8019720.48945  23577628.877    23577634.010
  21091446.011   -21044696.15649 -16388372.56947  21091445.556    21091449.099
 03  2 26  0 41 30.0000000  0  8G26G15G 6G17G23G29G16G18
  21614543.596   -17834512.69449 -13887332.84847  21614543.643    21614548.207
  21684683.542   -19825603.51549 -14924410.48547  21684682.806    21684687.988
  21043934.892   -23328196.08549 -17881765.45747  21043934.687    21043939.273
  20852194.845   -25464613.99949 -19825934.16647  20852194.286    20852199.071
  20565250.931   -22454475.60149 -17478507.51848  20565250.383    20565254.746
  23044403.522   -10797812.58149  -8404978.83246  23044403.331    23044408.036
  23576409.718   -10552052.45049  -8024714.55745  23576409.311    23576414.339
  21081688.337   -21095973.05849 -16428328.56047  21081687.881    21081691.419
 03  2 26  0 42  0.0000000  0  8G26G15G 6G17G23G29G16G18
  21617021.441   -17821491.56649 -13877186.47947  21617021.488    21617026.018
  21674313.633   -19880097.53049 -14966873.31547  21674312.925    21674318.083
  21055788.152   -23265907.01749 -17833228.53747  21055787.951    21055792.522
  20849581.864   -25478345.59949 -19836634.09647  20849581.265    20849586.034
  20566928.002   -22445662.44549 -17471640.10548  20566927.452    20566931.811
  23052723.626   -10754089.83049  -8370909.14946  23052723.472    23052728.180
  23575291.035   -10557931.11449  -8029295.32645  23575290.626    23575295.665
  21072007.166   -21146847.79849 -16467971.18147  21072006.693    21072010.230
 03  2 26  0 42 30.0000000  0  8G26G15G 6G17G23G29G16G18
  21619624.140   -17807814.23849 -13866528.78847  21619624.156    21619628.644
  21663968.486   -19934461.57649 -15009234.87247  21663967.777    21663972.886
  21067725.368   -23203176.39249 -17784347.53947  21067725.187    21067729.794
  20847000.151   -25491912.75649 -19847205.89147  20846999.542    20847004.298
  20568681.689   -22436446.67349 -17464458.96248  20568681.148    20568685.502
  23061139.115   -10709865.94649  -8336448.96246  23061138.956    23061143.691
  23574273.262   -10563279.93049  -8033463.24345  23574272.850    23574277.744
  21062402.513   -21197320.28549 -16507300.35547  21062402.043    21062405.573
 03  2 26  0 43  0.0000000  0  8G26G15G 6G17G23G29G16G18
  21622351.694   -17793480.68849 -13855359.75847  21622351.698    21622356.156
  21653648.249   -19988694.90349 -15051494.56747  21653647.522    21653652.573
  21079746.469   -23140004.96849 -17735123.06947  21079746.285    21079750.921
  20844449.943   -25505314.12449 -19857648.49947  20844449.308    20844454.062
  20570511.842   -22426829.18649 -17456964.79848  20570511.301    20570515.635
  23069649.804   -10665141.92949  -8301599.06846  23069649.644    23069654.355
  23573356.255   -10568098.84249  -8037218.22645  23573355.815    23573360.722
  21052874.656   -21247389.40549 -16546315.21747  21052874.179    21052877.701
 03  2 26  0 43 30.0000000  0  8G26G15G 6G17G23G29G16G18
  21625204.133   -17778491.00849 -13843679.46347  21625204.153    21625208.567
  21643352.880   -20042797.40249 -15093652.32047  21643352.149    21643357.179
  21091851.243   -23076394.26149 -17685556.29947  21091851.045    21091855.664
  20841931.345   -25518549.37249 -19867961.66147  20841930.712    20841935.460
  20572418.126   -22416811.55549 -17449158.82748  20572417.582    20572421.905
  23078255.404   -10619919.23849  -8266360.60946  23078255.246    23078259.995
  23572539.987   -10572388.48849  -8040560.80245  23572539.581    23572544.422
  21043423.511   -21297055.37649 -16585015.93847  21043423.022    21043426.561
 03  2 26  0 44  0.0000000  0  8G26G15G 6G17G23G29G16G18
  21628181.274   -17762845.85949 -13831488.41347  21628181.282    21628185.715
  21633082.488   -20096768.63549 -15135707.79547  21633081.759    21633086.798
  21104039.380   -23012345.28749 -17635648.02547  21104039.158    21104043.793
  20839444.370   -25531618.43749 -19878145.33147  20839443.733    20839448.496
  20574400.251   -22406395.34349 -17441042.28148  20574399.710    20574404.026
  23086955.628   -10574199.30049  -8230734.67546  23086955.454    23086960.157
  23571824.248   -10576149.39249  -8043491.36345  23571823.796    23571828.781
  21034049.105   -21346317.78249 -16623402.19447  21034048.631    21034052.170
 03  2 26  0 44 30.0000000  0  8G26G15G 6G17G23G29G16G18
  21631283.178   -17746545.16049 -13818786.54447  21631283.184    21631287.612
  21622837.135   -20150607.99849 -15177660.50247  21622836.412    21622841.456
  21116310.615   -22947859.13549 -17585399.09047  21116310.432    21116315.070
  20836989.166   -25544520.49049 -19888198.85647  20836988.533    20836993.290
  20576457.982   -22395581.67249 -17432616.01948  20576457.435    20576461.773
  23095750.219   -10527983.28349  -8194722.18146  23095750.045    23095754.756
  23571209.147   -10579381.86449  -8046010.16945  23571208.682    23571213.685
  21024751.626   -21395176.25649 -16661473.69347  21024751.138    21024754.658
 03  2 26  0 45  0.0000000  0  8G26G15G 6G17G23G29G16G18
  21634509.675   -17729589.44249 -13805574.27247  21634509.701    21634514.144
  21612616.961   -20204315.36049 -15219510.35147  21612616.217    21612621.280
  21128664.847   -22882937.38749 -17534810.72647  21128664.640    21128669.289
  20834565.786   -25557255.16349 -19898121.95547  20834565.151    20834569.916
  20578591.032   -22384372.33449 -17423881.44448  20578590.488    20578594.805
  23104638.881   -10481272.95949  -8158324.52546  23104638.712    23104643.436
  23570694.335   -10582086.83449  -8048117.93445  23570693.928    23570698.984
  21015530.981   -21443630.81049 -16699230.44147  21015530.491    21015534.019
 03  2 26  0 45 30.0000000  0  8G26G15G 6G17G23G29G16G18
  21637860.877   -17711978.64349 -13791851.55147  21637860.971    21637865.346
  21602422.063   -20257889.72949 -15261256.57647  21602421.305    21602426.371
  21141101.822   -22817580.80649 -17483883.53547  21141101.580    21141106.252
  20832174.521   -25569821.39649 -19907913.80447  20832173.886    20832178.643
  20580799.228   -22372768.32449 -17414839.33848  20580798.660    20580802.975
  23113621.507   -10434069.20049  -8121542.35446  23113621.283    23113626.024
  23570279.839   -10584264.41549  -8049814.76345  23570279.575    23570284.645
  21006387.306   -21491680.78449 -16736671.93447  21006386.841    21006390.395
 03  2 26  0 46  0.0000000  0  8G26G15G 6G17G23G29G16G18
  21641336.639   -17693713.64049 -13777619.06047  21641336.704    21641341.023
  21592252.439   -20311331.29349 -15302899.31547  21592251.695    21592256.726
  21153621.170   -22751791.17549 -17432618.90247  21153620.943    21153625.610
  20829815.074   -25582220.15149 -19917575.14947  20829814.430    20829819.218
  20583082.039   -22360771.84849 -17405491.41648  20583081.469    20583085.788
  23122697.642   -10386373.87749  -8084377.17146  23122697.449    23122702.175
  23569965.620   -10585915.77649  -8051101.51945  23569965.403    23569970.437
  20997320.674   -21539326.13749 -16773798.13947  20997320.208    20997323.741
 03  2 26  0 46 30.0000000  0  8G26G15G 6G17G23G29G16G18
  21644936.749   -17674794.91149 -13762877.18547  21644936.812    21644941.144
  21582108.148   -20364639.74849 -15344438.32147  21582107.388    21582112.439
  21166222.645   -22685569.82049 -17381017.86647  21166222.439    21166227.081
  20827487.767   -25594450.26149 -19927105.08347  20827487.121    20827491.915
  20585439.294   -22348384.42049 -17395838.85648  20585438.727    20585443.025
  23131866.994   -10338188.71649  -8046830.28246  23131866.822    23131871.497
  23569751.436   -10587041.50549  -8051978.71645  23569751.251    23569756.186
  20988331.008   -21586566.96949 -16810609.12747  20988330.531    20988334.051
 03  2 26  0 47  0.0000000  0  8G26G15G 6G17G23G29G16G18
  21648661.111   -17655223.11049 -13747626.40647  21648661.164    21648665.495
  21571989.249   -20417814.66249 -15385873.27247  21571988.493    21571993.544
  21178906.010   -22618918.33749 -17329081.66347  21178905.799    21178910.465
  20825192.568   -25606511.47449 -19936503.40547  20825191.920    20825196.707
  20587870.625   -22335607.62449 -17385882.89148  20587870.064    20587874.359
  23141129.223   -10289515.26749  -8008902.91146  23141129.040    23141133.707
  23569637.029   -10587642.64449  -8052447.13845  23569636.820    23569641.774
  20979418.382   -21633403.06849 -16847104.73747  20979417.911    20979421.414
 03  2 26  0 47 30.0000000  0  8G26G15G 6G17G23G29G16G18
  21652509.747   -17634998.22049 -13731866.73947  21652509.819    21652514.168
  21561895.893   -20470855.28049 -15427203.58147  21561895.161    21561900.193
  21191671.077   -22551837.55049 -17276810.93747  21191670.862    21191675.530
  20822929.750   -25618402.73949 -19945769.30247  20822929.096    20822933.849
  20590375.844   -22322442.44749 -17375624.29748  20590375.290    20590379.578
  23150484.125   -10240354.63449  -7970595.91246  23150483.984    23150488.676
  23569622.566   -10587719.41249  -8052506.95445  23569622.180    23569627.251
  20970582.852   -21679833.92149 -16883284.57447  20970582.388    20970585.852
 03  2 26  0 48  0.0000000  0  8G26G15G 6G17G23G29G16G18
  21656482.588   -17614120.67949 -13715598.50447  21656482.649    21656487.018
  21551828.187   -20523761.23749 -15468428.95547  21551827.441    21551832.465
  21204517.550   -22484328.80049 -17224206.72747  21204517.348    21204522.044
  20820699.274   -25630123.85249 -19954902.61147  20820698.620    20820703.376
  20592954.738   -22308890.37949 -17365064.23148  20592954.184    20592958.426
  23159931.488   -10190708.22049  -7931910.38446  23159931.393    23159936.111
  23569707.631   -10587272.25849  -8052158.52145  23569707.301    23569712.379
  20961824.539   -21725859.21149 -16919148.38947  20961824.051    20961827.512
 03  2 26  0 48 30.0000000  0  8G26G15G 6G17G23G29G16G18
  21660579.482   -17592591.18949 -13698822.26247  21660579.553    21660583.932
  21541786.177   -20576531.99549 -15509548.98347  21541785.482    21541790.467
  21217445.233   -22416393.45449 -17171270.11047  21217445.038    21217449.751
  20818501.315   -25641673.96349 -19963902.67847  20818500.672    20818505.436
  20595606.907   -22294953.12949 -17354204.02548  20595606.348    20595610.567
  23169471.019   -10140577.74049  -7892847.65746  23169470.899    23169475.599
  23569892.337   -10586302.14149  -8051402.58945  23569891.944    23569896.995
  20953143.275   -21771479.18549 -16954696.37347  20953142.801    20953146.256
 03  2 26  0 49  0.0000000  0  8G26G15G 6G17G23G29G16G18
  21664800.247   -17570410.76249 -13681538.79647  21664800.281    21664804.678
  21531770.041   -20629167.30149 -15550563.46147  21531769.296    21531774.241
  21230453.734   -22348033.26949 -17118002.44547  21230453.543    21230458.281
  20816335.883   -25653053.11849 -19972769.53947  20816335.251    20816340.022
  20598332.047   -22280632.35749 -17343044.96948  20598331.492    20598335.709
  23179102.295   -10089965.04949  -7853409.19746  23179102.152    23179106.825
  23570176.246   -10584810.05549  -8050239.93845  23570175.927    23570180.908
  20944539.180   -21816693.87049 -16989928.55547  20944538.708    20944542.137
 03  2 26  0 49 30.0000000  0  8G26G15G 6G17G23G29G16G18
  21669144.961   -17547579.31849 -13663748.03347  21669144.963    21669149.320
  21521779.744   -20681666.34249 -15591471.76047  21521779.003    21521783.932
  21243542.903   -22279249.18649 -17064404.46347  21243542.711    21243547.467
  20814203.283   -25664260.07549 -19981502.21147  20814202.657    20814207.415
  20601129.956   -22265929.25149 -17331587.98448  20601129.385    20601133.611
  23188825.123   -10038871.16849  -7813595.76446  23188825.001    23188829.685
  23570559.426   -10582796.69549  -8048671.07445  23570559.062    23570564.090
  20936012.331   -21861502.59049 -17024844.39847  20936011.861    20936015.264
 03  2 26  0 50  0.0000000  0  8G26G15G 6G17G23G29G16G18
  21673613.350   -17524097.63149 -13645450.59747  21673613.350    21673617.769
  21511815.496   -20734028.76249 -15632273.60847  21511814.751    21511819.646
  21256712.530   -22210042.50349 -17010477.19147  21256712.314    21256717.078
  20812103.457   -25675294.56049 -19990100.49547  20812102.831    20812107.582
  20604000.301   -22250845.30249 -17319834.24748  20603999.738    20604003.974
  23198639.197    -9987297.67949  -7773408.62446  23198639.097    23198643.756
  23571041.567   -10580262.55049  -8046696.42545  23571041.248    23571046.228
  20927562.727   -21905905.36649 -17059443.93047  20927562.260    20927565.640
 03  2 26  0 50 30.0000000  0  8G26G15G 6G17G23G29G16G18
  21678205.483   -17499965.71249 -13626646.48147  21678205.520    21678209.904
  21501877.439   -20786253.38449 -15672968.07447  21501876.711    21501881.584
  21269962.361   -22140414.24449 -16956221.41647  21269962.132    21269966.892
  20810036.681   -25686155.49249 -19998563.54047  20810036.052    20810040.791
  20606942.894   -22235381.65149 -17307784.63548  20606942.371    20606946.603
  23208544.282    -9935245.94949  -7732848.82446  23208544.199    23208548.850
  23571622.805   -10577207.94849  -8044316.20845  23571622.545    23571627.486
  20919190.549   -21949901.42849 -17093726.54047  20919190.076    20919193.409
 03  2 26  0 51  0.0000000  0  9G26G15G 6G17G23G29G 2G16G18
  21682920.194   -17475189.76949 -13607340.51547  21682920.197    21682924.571
  21491964.643   -20838345.12949 -15713559.00647  21491963.943    21491968.787
  21283291.176   -22070370.96549 -16901642.24747  21283290.954    21283295.705
  20808001.967   -25696847.87049 -20006895.24447  20808001.330    20808006.070
  20609956.490   -22219545.17949 -17295444.51848  20609955.935    20609960.167
  23218539.079    -9882722.59949  -7691921.52246  23218538.970    23218543.664
  25116382.009    -2663783.51049  -2067532.10745  25116381.431    25116388.764
  23572302.012   -10573638.95649  -8041535.18345  23572301.755    23572306.586
  20910894.752   -21993496.04449 -17127696.33947  20910894.279    20910897.577
 03  2 26  0 51 30.0000000  0  9G26G15G 6G17G23G29G 2G16G18
  21687757.837   -17449767.45949 -13587530.89647  21687757.858    21687762.224
  21482077.843   -20890300.50849 -15754043.68247  21482077.118    21482081.944
  21296699.185   -21999911.51649 -16846738.79247  21296698.962    21296703.709
  20806000.046   -25707367.91649 -20015092.67247  20805999.416    20806004.170
  20613041.237   -22203334.61749 -17282812.89748  20613040.669    20613044.917
  23228623.836    -9829726.63849  -7650625.96646  23228623.758    23228628.453
  25111366.271    -2690140.93549  -2088070.36645  25111365.663    25111373.209
  23573079.393   -10569553.90749  -8038352.02945  23573079.117    23573083.881
  20902675.845   -22036686.41949 -17161351.15047  20902675.379    20902678.699
 03  2 26  0 52  0.0000000  0  9G26G15G 6G17G23G29G 2G16G18
  21692719.100   -17423695.44149 -13567215.01347  21692719.183    21692723.515
  21472217.814   -20942114.89749 -15794418.49147  21472217.093    21472221.968
  21310186.885   -21929033.11049 -16791508.87247  21310186.685    21310191.432
  20804031.796   -25717711.12749 -20023152.30247  20804031.149    20804035.922
  20616197.688   -22186747.26249 -17269887.66648  20616197.144    20616201.385
  23238799.129    -9776255.30849  -7608959.97946  23238799.044    23238803.725
  25106430.899    -2716076.65049  -2108280.01345  25106430.360    25106437.985
  23573955.692   -10564949.35949  -8034764.07845  23573955.321    23573960.118
  20894534.764   -22079467.87249 -17194687.32247  20894534.315    20894537.633
 03  2 26  0 52 30.0000000  0  9G26G15G 6G17G23G29G 2G16G18
  21697803.803   -17396975.07349 -13546393.92047  21697803.863    21697808.204
  21462384.658   -20993788.35649 -15834683.49547  21462383.941    21462388.778
  21323753.932   -21857737.78249 -16735954.07847  21323753.742    21323758.500
  20802097.145   -25727877.69449 -20031074.29247  20802096.508    20802101.251
  20619425.460   -22169785.27349 -17256670.51648  20619424.909    20619429.134
  23249064.392    -9722311.00249  -7566925.43746  23249064.278    23249068.954
  25101575.653    -2741591.28949  -2128161.55545  25101575.111    25101582.740
  23574930.347   -10559826.73049  -8030772.42445  23574930.066    23574934.915
  20886471.337   -22121841.32949 -17227705.57747  20886470.867    20886474.207
 03  2 26  0 53  0.0000000  0  9G26G15G 6G17G23G29G 2G16G18
  21703011.592   -17369608.05349 -13525068.95547  21703011.648    21703015.968
  21452578.206   -21045321.31849 -15874839.01847  21452577.500    21452582.361
  21337399.862   -21786027.87349 -16680076.23247  21337399.685    21337404.429
  20800196.062   -25737867.77049 -20038858.75747  20800195.434    20800200.166
  20622724.038   -22152451.13949 -17243163.37948  20622723.486    20622727.695
  23259419.194    -9667896.10949  -7524524.22646  23259419.079    23259423.785
  25096800.442    -2766685.46749  -2147715.45845  25096799.857    25096807.417
  23576003.457   -10554188.00449  -8026378.61545  23576003.093    23576008.003
  20878485.472   -22163807.33749 -17260406.34147  20878485.015    20878488.310
 03  2 26  0 53 30.0000000  0  9G26G15G 6G17G23G29G 2G16G18
  21708342.065   -17341596.39849 -13503241.66547  21708342.098    21708346.397
  21442798.409   -21096714.37749 -15914885.52947  21442797.690    21442802.555
  21351124.206   -21713906.12949 -16623877.48047  21351124.014    21351128.757
  20798328.536   -25747681.85449 -20046506.08447  20798327.907    20798332.612
  20626092.883   -22134747.71449 -17229368.48248  20626092.324    20626096.520
  23269862.939    -9613013.81649  -7481758.78946  23269862.839    23269867.552
  25092105.005    -2791359.97649  -2166942.35145  25092104.407    25092112.045
  23577174.333   -10548035.05449  -8021584.11145  23577173.902    23577178.926
  20870576.897   -22205367.17549 -17292790.60947  20870576.411    20870579.685
 03  2 26  0 54  0.0000000  0  9G26G15G 6G17G23G29G 2G16G18
  21713795.161   -17312939.98249 -13480911.97447  21713795.202    21713799.499
  21433045.559   -21147966.06349 -15954821.88047  21433044.842    21433049.684
  21364926.785   -21641373.10449 -16567358.24847  21364926.599    21364931.326
  20796494.739   -25757318.41849 -20054015.08447  20796494.107    20796498.814
  20629531.872   -22116675.49549 -17215286.21548  20629531.313    20629535.536
  23280395.565    -9557664.69249  -7438629.59246  23280395.468    23280400.154
  25087489.763    -2815613.63849  -2185841.32245  25087489.183    25087496.714
  23578443.037   -10541368.09249  -8016389.06645  23578442.604    23578447.612
  20862745.733   -22246520.00249 -17324857.72747  20862745.262    20862748.522
 03  2 26  0 54 30.0000000  0  9G26G15G 6G17G23G29G 2G16G18
  21719370.675   -17283640.57049 -13458081.23947  21719370.692    21719374.981
  21423319.550   -21199076.62449 -15994648.26047  21423318.815    21423323.627
  21378807.223   -21568431.05549 -16510520.30047  21378807.050    21378811.727
  20794694.714   -25766777.64949 -20061385.90547  20794694.093    20794698.772
  20633040.604   -22098236.81549 -17200918.39648  20633040.054    20633044.293
  23291016.508    -9501851.12649  -7395138.50446  23291016.425    23291021.092
  25082954.446    -2839447.05349  -2204412.81945  25082953.882    25082961.278
  23579809.234   -10534189.09649  -8010795.05245  23579808.788    23579813.712
  20854991.906   -22287266.57749 -17356608.28747  20854991.450    20854994.710
 03  2 26  0 55  0.0000000  0  9G26G15G 6G17G23G29G 2G16G18
  21725068.347   -17253698.98449 -13434750.10947  21725068.358    21725072.647
  21413620.443   -21250045.37549 -16034364.13647  21413619.740    21413624.551
  21392765.211   -21495081.52949 -16453364.83147  21392764.997    21392769.682
  20792928.479   -25776059.28849 -20068618.33547  20792927.836    20792932.537
  20636618.732   -22079433.40349 -17186266.36348  20636618.177    20636622.420
  23301725.491    -9445575.11749  -7351287.05146  23301725.421    23301730.065
  25078499.145    -2862860.11949  -2222656.74345  25078498.447    25078505.779
  23581272.607   -10526498.88149  -8004802.68445  23581272.234    23581277.035
  20847315.392   -22327606.88649 -17388042.27247  20847314.924    20847318.183
 03  2 26  0 55 30.0000000  0  9G26G15G 6G17G23G29G 2G16G18
  21730888.081   -17223115.99649 -13410919.19047  21730888.099    21730892.336
  21403948.539   -21300871.61949 -16073968.97547  21403947.815    21403952.582
  21406800.432   -21421325.86649 -16395892.90047  21406800.211    21406804.910
  20791196.215   -25785162.28749 -20075711.57447  20791195.585    20791200.255
  20640266.042   -22060266.49649 -17171331.09248  20640265.502    20640269.770
  23312522.244    -9388837.89949  -7307076.23146  23312522.147    23312526.773
  25074123.772    -2885852.37149  -2240572.78845  25074123.236    25074130.601
  23582833.231   -10518298.18049  -7998412.53645  23582832.794    23582837.574
  20839716.224   -22367540.61649 -17419159.44447  20839715.755    20839719.018
 03  2 26  0 56  0.0000000  0  9G26G15G 6G17G23G29G 2G16G18
  21736829.678   -17191892.64449 -13386589.28147  21736829.716    21736833.914
  21394303.772   -21351555.14149 -16113462.59747  21394303.032    21394307.775
  21420912.577   -21347165.92349 -16338105.94247  21420912.361    21420917.104
  20789498.098   -25794086.02049 -20082665.11647  20789497.460    20789502.106
  20643982.133   -22040738.15249 -17156114.18048  20643981.589    20643985.863
  23323406.307    -9331641.72949  -7262507.76746  23323406.193    23323410.862
  25069828.698    -2908424.14049  -2258161.14945  25069828.070    25069835.307
  23584490.563   -10509588.53149  -7991625.79745  23584490.108    23584495.000
  20832194.346   -22407068.19749 -17449960.13447  20832193.882    20832197.137
 03  2 26  0 56 30.0000000  0  9G26G15G 6G17G23G29G 2G16G18
  21742893.009   -17160029.62549 -13361760.92747  21742893.028    21742897.201
  21384686.379   -21402094.73249 -16152844.06247  21384685.660    21384690.410
  21435101.469   -21272602.73049 -16280004.76247  21435101.268    21435106.009
  20787834.300   -25802829.49449 -20089478.19847  20787833.652    20787838.283
  20647766.805   -22020849.46149 -17140616.47948  20647766.259    20647770.526
  23334377.541    -9273987.68649  -7217582.53246  23334377.407    23334381.948
  25065613.498    -2930574.71849  -2275421.31945  25065612.778    25065620.026
  23586244.683   -10500370.55249  -7984442.97745  23586244.253    23586249.140
  20824749.880   -22446188.94749 -17480443.81147  20824749.426    20824752.681
 03  2 26  0 57  0.0000000  0  9G26G15G 6G17G23G29G 2G16G18
  21749077.671   -17127528.79149 -13336435.57447  21749077.707    21749081.868
  21375096.273   -21452490.94449 -16192113.80847  21375095.569    21375100.324
  21449366.647   -21197638.80849 -16221591.32747  21449366.433    21449371.195
  20786204.760   -25811392.72349 -20096150.82947  20786204.110    20786208.747
  20651619.565   -22000603.03249 -17124840.01948  20651619.012    20651623.277
  23345435.335    -9215878.52749  -7172302.64146  23345435.192    23345439.771
  25061478.267    -2952304.94149  -2292353.95945  25061477.560    25061485.112
  23588095.219   -10490646.03349  -7976865.45745  23588094.802    23588099.655
  20817382.641   -22484904.03449 -17510611.38647  20817382.196    20817385.417
 03  2 26  0 57 30.0000000  0  9G26G15G 6G17G23G29G 2G16G18
  21755383.680   -17094390.25149 -13310613.30547  21755383.731    21755387.903
  21365533.778   -21502741.90049 -16231270.37047  21365533.079    21365537.847
  21463707.935   -21122274.77749 -16162866.12247  21463707.734    21463712.527
  20784609.720   -25819774.64249 -20102682.18347  20784609.065    20784613.686
  20655540.226   -21979999.54949 -17108785.33848  20655539.677    20655543.937
  23356579.520    -9157315.29149  -7126668.93046  23356579.366    23356583.978
  25057423.266    -2973613.66949  -2308958.15045  25057422.588    25057430.032
  23590042.010   -10480415.18149  -7968893.37345  23590041.575    23590046.477
  20810092.830   -22523212.36449 -17540462.00447  20810092.373    20810095.575
 03  2 26  0 58  0.0000000  0  9G26G15G 6G17G23G29G 2G16G18
  21761810.782   -17060615.52549 -13284295.31147  21761810.842    21761814.989
  21355998.975   -21552847.59149 -16270313.72947  21355998.240    21356003.032
  21478125.005   -21046512.65949 -16103830.72047  21478124.804    21478129.617
  20783049.277   -25827974.85749 -20109071.94547  20783048.625    20783053.246
  20659528.505   -21959040.99849 -17092453.98548  20659527.956    20659532.205
  23367809.740    -9098300.06749  -7080683.02146  23367809.592    23367814.164
  25053448.445    -2994501.28249  -2325234.19545  25053447.788    25053455.176
  23592084.931   -10469679.59249  -7960527.99645  23592084.519    23592089.477
  20802880.256   -22561114.58549 -17569996.17347  20802879.796    20802882.993
 03  2 26  0 58 30.0000000  0  9G26G15G 6G17G23G29G 2G16G18
  21768358.687   -17026206.22249 -13257482.83947  21768358.699    21768362.882
  21346491.808   -21602807.94249 -16309243.84047  21346491.082    21346495.839
  21492617.392   -20970354.54949 -16044486.75247  21492617.191    21492622.026
  20781523.477   -25835992.94849 -20115319.78947  20781522.811    20781527.462
  20663583.911   -21937729.61849 -17075847.69048  20663583.369    20663587.588
  23379125.542    -9038834.99049  -7034346.57646  23379125.358    23379130.008
  25049553.935    -3014968.19249  -2341182.40745  25049553.046    25049560.554
  23594223.566   -10458440.84149  -7951770.53845  23594223.209    23594228.177
  20795744.859   -22598611.10749 -17599214.20947  20795744.396    20795747.616
 03  2 26  0 59  0.0000000  0  9G26G15G 6G17G23G29G 2G16G18
  21775027.116   -16991163.36449 -13230176.68847  21775027.132    21775031.292
  21337012.455   -21652622.09349 -16348060.02647  21337011.744    21337016.491
  21507184.920   -20893801.87949 -15984835.33747  21507184.696    21507189.517
  20780032.448   -25843828.23949 -20121425.19447  20780031.803    20780036.438
  20667706.234   -21916066.69849 -17058967.47148  20667705.685    20667709.920
  23390526.634    -8978921.92949  -6987661.05346  23390526.425    23390531.008
  25045738.995    -3035014.12849  -2356802.63845  25045738.385    25045746.154
  23596457.748   -10446700.17249  -7942621.97145  23596457.413    23596462.389
  20788686.638   -22635702.15449 -17628116.28947  20788686.182    20788689.416
 03  2 26  0 59 30.0000000  0  9G26G15G 6G17G23G29G 2G16G18
  21781815.969   -16955487.61449 -13202377.38446  21781815.953    21781820.135
  21327561.142   -21702289.23449 -16386761.66247  21327560.397    21327565.136
  21521827.307   -20816855.98549 -15924877.50547  21521827.079    21521831.871
  20778576.383   -25851479.86049 -20127387.47847  20778575.741    20778580.364
  20671895.145   -21894053.62249 -17041814.40748  20671894.595    20671898.852
  23402012.663    -8918562.37349  -6940627.60846  23402012.444    23402017.082
  25042004.494    -3054638.93849  -2372094.68645  25042003.891    25042011.491
  23598787.344   -10434458.24749  -7933082.81745  23598786.960    23598791.970
  20781705.675   -22672387.18949 -17656701.99747  20781705.225    20781708.462
 03  2 26  1  0  0.0000000  0  9G26G15G 6G17G23G29G 2G16G18
  21788724.979   -16919180.27049 -13174085.92346  21788724.950    21788729.158
  21318137.919   -21751808.69549 -16425348.21747  21318137.161    21318141.882
  21536544.071   -20739518.68149 -15864614.68547  21536543.861    21536548.665
  20777155.366   -25858947.16549 -20133206.13247  20777154.735    20777159.358
  20676150.342   -21871692.20849 -17024389.90948  20676149.799    20676154.042
  23413583.368    -8857758.36749  -6893247.85146  23413583.104    23413587.706
  25038350.119    -3073842.64249  -2387058.58445  25038349.532    25038356.999
  23601212.038   -10421716.54849  -7923154.24045  23601211.691    23601216.631
  20774801.912   -22708666.55749 -17684971.59947  20774801.454    20774804.689
 03  2 26  1  0 30.0000000  0  9G26G15G 6G17G23G29G 2G16G18
  21795753.795   -16882243.35549 -13145303.90346  21795753.784    21795757.984
  21308742.751   -21801180.53149 -16463819.74847  21308741.995    21308746.682
  21551334.881   -20661792.37149 -15804048.74747  21551334.681    21551339.501
  20775769.478   -25866230.02849 -20138881.07047  20775768.825    20775773.465
  20680471.398   -21848984.78149 -17006695.79548  20680470.858    20680475.087
  23425238.022    -8796512.40649  -6845523.71046  23425237.786    23425242.390
  25034775.795    -3092625.94949  -2401694.92345  25034775.176    25034782.493
  23603731.549   -10408477.00749  -7912837.69245  23603731.067    23603735.976
  20767975.219   -22744540.84449 -17712925.55747  20767974.760    20767978.001
 03  2 26  1  1  0.0000000  0  9G26G15G 6G17G23G29G 2G16G18
  21802902.339   -16844676.99649 -13116031.39946  21802902.365    21802906.595
  21299376.001   -21850402.88449 -16502174.79747  21299375.259    21299379.930
  21566199.657   -20583677.75349 -15743180.23447  21566199.471    21566204.254
  20774418.913   -25873327.08849 -20144411.22647  20774418.279    20774422.908
  20684858.244   -21825931.85649 -16988732.46048  20684857.721    20684861.931
  23436976.668    -8734825.18349  -6797455.73946  23436976.459    23436980.982
  25031281.687    -3110987.72249  -2416002.78445  25031281.014    25031288.513
  23606345.599   -10394739.73249  -7902133.35145  23606345.177    23606350.073
  20761225.748   -22780009.45549 -17740563.39947  20761225.293    20761228.538
 03  2 26  1  1 30.0000000  0  9G26G15G 6G17G23G29G 2G16G18
  21810170.351   -16806483.12349 -13086269.93046  21810170.403    21810174.630
  21290037.727   -21899475.74449 -16540413.35147  21290036.984    21290041.662
  21581137.863   -20505177.30649 -15682011.07847  21581137.669    21581142.430
  20773103.809   -25880237.98549 -20149796.32047  20773103.170    20773107.800
  20689310.369   -21802535.83549 -16970501.78048  20689309.819    20689314.030
  23448798.757    -8672699.46249  -6749046.07346  23448798.564    23448803.062
  25027867.663    -3128928.83149  -2429982.83045  25027866.998    25027874.571
  23609053.989   -10380506.62949  -7891042.61145  23609053.643    23609058.618
  20754553.318   -22815073.25249 -17767885.79947  20754552.852    20754556.110
 03  2 26  1  2  0.0000000  0  9G26G15G 6G17G23G29G 2G16G18
  21817557.503   -16767663.25649 -13056020.66046  21817557.539    21817561.846
  21280727.924   -21948398.86349 -16578535.22647  21280727.189    21280731.871
  21596149.103   -20426292.78749 -15620542.64447  21596148.907    21596153.663
  20771824.153   -25886962.48549 -20155036.16447  20771823.526    20771828.153
  20693827.373   -21778798.63949 -16952005.24848  20693826.822    20693831.034
  23460703.910    -8610137.39949  -6700296.38746  23460703.743    23460708.209
  25024533.354    -3146449.46549  -2443635.25645  25024532.777    25024540.309
  23611856.437   -10365779.34049  -7879566.81945  23611856.012    23611861.108
  20747957.823   -22849732.56849 -17794893.01547  20747957.368    20747960.594
 03  2 26  1  2 30.0000000  0  9G26G15G 6G17G23G29G 2G16G18
  21825063.658   -16728217.82249 -13025283.95246  21825063.723    21825068.046
  21271446.948   -21997170.50149 -16616539.06047  21271446.214    21271450.888
  21611233.286   -20347024.87049 -15558775.45847  21611233.105    21611237.849
  20770580.347   -25893498.64149 -20160129.25947  20770579.717    20770584.339
  20698409.218   -21754720.90049 -16933243.36448  20698408.670    20698412.846
  23472691.958    -8547139.99549  -6651207.49646  23472691.764    23472696.211
  25021279.527    -3163548.55249  -2456959.20545  25021279.099    25021286.469
  23614753.002   -10350558.22149  -7867706.20645  23614752.507    23614757.590
  20741439.506   -22883986.55749 -17821584.39847  20741439.061    20741442.249
 03  2 26  1  3  0.0000000  0  9G26G15G 6G17G23G29G 2G16G18
  21832688.491   -16688149.07149 -12994061.54046  21832688.524    21832692.880
  21262194.762   -22045791.00349 -16654425.12647  21262194.029    21262198.665
  21626389.952   -20267376.42349 -15496711.74947  21626389.742    21626394.467
  20769372.256   -25899847.06049 -20165076.05047  20769371.623    20769376.262
  20703055.386   -21730305.30649 -16914218.21447  20703054.813    20703058.971
  23484762.253    -8483710.04049  -6601781.53746  23484762.038    23484766.508
  25018105.698    -3180227.44949  -2469955.71345  25018105.047    25018112.644
  23617742.844   -10334845.69449  -7855462.67845  23617742.467    23617747.652
  20734998.020   -22917836.53449 -17847960.96347  20734997.570    20735000.757
 03  2 26  1  3 30.0000000  0  9G26G15G 6G17G23G29G 2G16G18
  21840431.587   -16647458.55149 -12962354.62746  21840431.614    21840436.005
  21252971.388   -22094260.04549 -16692193.17347  21252970.635    21252975.263
  21641618.611   -20187349.27849 -15434352.95947  21641618.419    21641623.123
  20768200.057   -25906007.01249 -20169875.99547  20768199.425    20768204.061
  20707765.425   -21705553.72349 -16894931.25647  20707764.843    20707769.006
  23496914.465    -8419849.72149  -6552020.24645  23496914.255    23496918.682
  25015011.878    -3196486.29549  -2482624.92345  25015011.148    25015018.864
  23620826.191   -10318643.23549  -7842837.38045  23620825.672    23620830.860
  20728633.389   -22951282.76049 -17874022.92347  20728632.946    20728636.131
 03  2 26  1  4  0.0000000  0  9G26G15G 6G17G23G29G 2G16G18
  21848292.868   -16606147.41249 -12930164.11846  21848292.911    21848297.261
  21243777.048   -22142576.48149 -16729842.30147  21243776.320    21243780.899
  21656919.120   -20106944.78849 -15371700.12847  21656918.907    21656923.615
  20767063.984   -25911977.10849 -20174528.00047  20767063.331    20767067.926
  20712539.159   -21680467.50649 -16875383.54147  20712538.588    20712542.748
  23509148.201    -8355560.63749  -6501924.83645  23509148.025    23509152.481
  25011997.796    -3212325.00849  -2494966.77145  25011997.234    25012005.051
  23624002.407   -10301951.89549  -7829831.15845  23624001.984    23624007.184
  20722345.616   -22984325.13249 -17899770.18947  20722345.149    20722348.353
 03  2 26  1  4 30.0000000  0  9G26G15G 6G17G23G29G 2G16G18
  21856272.080   -16564216.35949 -12897490.55646  21856272.098    21856276.452
  21234611.962   -22190739.05649 -16767371.53247  21234611.215    21234615.812
  21672291.185   -20026164.15149 -15308754.19447  21672290.975    21672295.647
  20765964.121   -25917756.81549 -20179031.65047  20765963.483    20765968.061
  20717376.361   -21655047.78249 -16855575.95047  20717375.789    20717379.945
  23521463.306    -8290844.18849  -6451496.42545  23521463.110    23521467.606
  25009063.949    -3227743.13849  -2506980.88245  25009063.256    25009070.885
  23627271.531   -10284772.55949  -7816444.65545  23627271.061    23627276.281
  20716134.760   -23016962.98649 -17925202.24547  20716134.309    20716137.510
 03  2 26  1  5  0.0000000  0  9G26G15G 6G17G23G29G 2G16G18
  21864368.695   -16521668.24249 -12864336.16946  21864368.743    21864373.076
  21225476.039   -22238748.35749 -16804781.33847  21225475.299    21225479.909
  21687734.177   -19945010.70049 -15245517.75647  21687733.964    21687738.643
  20764900.484   -25923346.19849 -20183387.00147  20764899.829    20764904.403
  20722276.440   -21629297.58749 -16835510.85147  20722275.877    20722280.017
  23533859.130    -8225703.70549  -6400737.59445  23533858.978    23533863.425
  25006209.776    -3242742.21449  -2518668.42745  25006209.102    25006216.903
  23630633.092   -10267107.94649  -7802680.02145  23630632.584    23630637.761
  20710000.556   -23049198.39049 -17950320.70747  20710000.115    20710003.287
 03  2 26  1  5 30.0000000  0  9G26G15G 6G17G23G29G 2G16G18
  21872582.714   -16478503.54349 -12830701.32846  21872582.746    21872587.057
  21216369.646   -22286602.65649 -16842070.36147  21216368.883    21216373.476
  21703247.994   -19863485.12349 -15181991.35347  21703247.774    21703252.475
  20763873.423   -25928743.45149 -20187592.64547  20763872.780    20763877.318
  20727239.276   -21603217.61049 -16815188.78047  20727238.701    20727242.851
  23546335.434    -8160140.19949  -6349649.14545  23546335.261    23546339.750
  25003435.508    -3257321.35449  -2530028.77645  25003434.842    25003442.481
  23634086.750   -10248958.61849  -7788537.70645  23634086.272    23634091.441
  20703943.115   -23081030.47649 -17975124.89347  20703942.669    20703945.794
 03  2 26  1  6  0.0000000  0  9G26G15G 6G17G23G29G 2G16G18
  21880913.651   -16434723.93049 -12796587.32946  21880913.669    21880918.018
  21207292.824   -22334301.25049 -16879238.05547  21207292.087    21207296.684
  21718832.217   -19781589.34149 -15118176.48147  21718831.995    21718836.719
  20762882.927   -25933948.54349 -20191648.54847  20762882.276    20762886.807
  20732264.535   -21576809.72249 -16794611.19147  20732263.972    20732268.096
  23558891.792    -8094155.72449  -6298232.66546  23558891.719    23558896.215
  25000741.126    -3271480.84349  -2541062.14045  25000740.517    25000747.833
  23637632.410   -10230326.10549  -7774018.84645  23637632.038    23637637.144
  20697962.354   -23112459.60549 -17999615.08747  20697961.889    20697965.009
 03  2 26  1  6 30.0000000  0  9G26G15G 6G17G23G29G 2G16G18
  21889361.284   -16390330.94149 -12761995.37246  21889361.351    21889365.712
  21198245.777   -22381843.73049 -16916284.09947  21198245.040    21198249.627
  21734486.543   -19699325.41249 -15054074.74247  21734486.338    21734491.043
  20761929.219   -25938960.25749 -20195553.76647  20761928.566    20761933.105
  20737351.830   -21550075.80749 -16773779.55247  20737351.281    20737355.392
  23571527.872    -8027752.54949  -6246489.92046  23571527.801    23571532.313
  24998126.294    -3285221.10649  -2551768.80645  24998125.758    24998133.017
  23641269.704   -10211212.08249  -7759124.81445  23641269.290    23641274.340
  20692058.176   -23143485.90949 -18023791.39147  20692057.717    20692060.846
 03  2 26  1  7  0.0000000  0  9G26G15G 6G17G23G29G 2G16G18
  21897925.331   -16345326.58249 -12726927.02046  21897925.392    21897929.746
  21189228.527   -22429229.53549 -16953208.05547  21189227.783    21189232.351
  21750210.565   -19616695.43549 -14989687.76447  21750210.303    21750215.027
  20761012.318   -25943778.41449 -20199308.16047  20761011.661    20761016.231
  20742500.757   -21523017.88549 -16752695.43948  20742500.226    20742504.327
  23584243.228    -7960933.08549  -6194422.79546  23584243.168    23584247.616
  24995591.307    -3298542.75849  -2562149.29945  24995590.752    24995597.926
  23644998.340   -10191618.07849  -7743856.74745  23644997.979    23645002.991
  20686230.492   -23174110.43949 -18047654.62547  20686230.031    20686233.165
 03  2 26  1  7 30.0000000  0  9G26G15G 6G17G23G29G 2G16G18
  21906605.494   -16299711.96849 -12691383.14746  21906605.553    21906609.892
  21180241.353   -22476457.45449 -16990008.99047  21180240.595    21180245.159
  21766003.884   -19533700.86349 -14925016.69147  21766003.629    21766008.371
  20760132.559   -25948401.58549 -20202910.62147  20760131.910    20760136.454
  20747711.080   -21495637.33449 -16731359.92748  20747710.559    20747714.661
  23597037.440    -7893699.05649  -6142032.62746  23597037.331    23597041.821
  24993135.650    -3311445.78149  -2572203.57545  24993135.083    24993142.617
  23648817.940   -10171545.81349  -7728216.01545  23648817.714    23648822.615
  20680479.288   -23204333.01949 -18071204.65447  20680478.832    20680481.957
 03  2 26  1  8  0.0000000  0  9G26G15G 6G17G23G29G 2G16G18
  21915401.348   -16253489.23449 -12655365.41646  21915401.403    21915405.756
  21171284.218   -22523527.31149 -17026686.76047  21171283.475    21171288.041
  21781866.188   -19450343.95249 -14860063.27547  21781865.928    21781870.709
  20759289.897   -25952830.00249 -20206361.32747  20759289.233    20759293.760
  20752982.434   -21467936.20649 -16709774.61947  20752981.900    20752986.010
  23609910.158    -7826052.70949  -6089321.18246  23609910.019    23609914.541
  24990760.046    -3323930.54549  -2581931.93345  24990759.278    24990766.569
  23652728.474   -10150996.96349  -7712203.93445  23652728.147    23652732.901
  20674804.482   -23234154.35349 -18094442.02347  20674804.021    20674807.109
 03  2 26  1  8 30.0000000  0 10G26G15G 6G17G23G 3G29G 2G16G18
  21924312.456   -16206661.15449 -12618875.98146  21924312.484    21924316.795
  21162357.029   -22570439.65049 -17063241.79647  21162356.286    21162360.878
  21797796.881   -19366627.73249 -14794829.87947  21797796.599    21797801.408
  20758484.145   -25957064.14849 -20209660.65347  20758483.481    20758487.998
  20758314.209   -21439917.55349 -16687941.88747  20758313.678    20758317.750
  24587992.267    -3735586.99049  -2677168.76245  24587992.087    24587998.948
  23622860.621    -7757997.45749  -6036291.11046  23622860.515    23622865.082
  24988463.124    -3335998.59749  -2591335.61645  24988462.628    24988470.177
  23656729.009   -10129974.34949  -7695822.66945  23656728.488    23656733.376
  20669205.755   -23263575.88549 -18117367.85848  20669205.287    20669208.347
 03  2 26  1  9  0.0000000  0 10G26G15G 6G17G23G 3G29G 2G16G18
  21933338.396   -16159229.46549 -12581916.19446  21933338.436    21933342.706
  21153460.020   -22617193.63049 -17099673.43347  21153459.295    21153463.870
  21813795.568   -19282554.16949 -14729318.02947  21813795.304    21813800.106
  20757715.625   -25961102.69349 -20212807.56147  20757714.953    20757719.484
  20763706.087   -21411583.09349 -16665863.07247  20763705.556    20763709.613
  24569059.828    -3835077.73049  -2754693.90245  24569059.574    24569066.419
  23635888.474    -7689535.44449  -5982944.08146  23635888.385    23635892.911
  24986245.886    -3347650.41849  -2600414.96545  24986245.502    24986252.787
  23660819.225   -10108479.51949  -7679073.46945  23660818.746    23660823.595
  20663683.009   -23292598.09649 -18139982.53448  20663682.530    20663685.571
 03  2 26  1  9 30.0000000  0 10G26G15G 6G17G23G 3G29G 2G16G18
  21942479.395   -16111193.22149 -12544485.33846  21942479.417    21942483.679
  21144593.760   -22663786.11349 -17135979.23147  21144593.023    21144597.577
  21829862.282   -19198122.81449 -14663527.38447  21829862.061    21829866.846
  20756984.864   -25964942.78149 -20215799.82447  20756984.199    20756988.759
  20769158.184   -21382932.07149 -16643537.58447  20769157.631    20769161.686
  24550157.069    -3934412.15849  -2832097.22745  24550156.720    24550163.650
  23648993.738    -7620666.34549  -5929279.84245  23648993.663    23648998.233
  24984108.281    -3358884.11849  -2609168.46645  24984107.762    24984115.102
  23664999.597   -10086511.81249  -7661955.78145  23664998.943    23665003.925
  20658236.596   -23321218.74349 -18162284.30448  20658236.141    20658239.192
 03  2 26  1 10  0.0000000  0 10G26G15G 6G17G23G 3G29G 2G16G18
  21951735.000   -16062554.78849 -12506585.23546  21951734.970    21951739.192
  21135758.291   -22710216.71749 -17172158.88747  21135757.530    21135762.082
  21845996.696   -19113335.95449 -14597459.72747  21845996.501    21846001.280
  20756292.003   -25968583.63649 -20218636.83847  20756291.348    20756295.923
  20774670.137   -21353966.59749 -16620967.06847  20774669.596    20774673.636
  24531284.360    -4033588.16549  -2909377.13945  24531283.986    24531290.897
  23662176.100    -7551392.52549  -5875300.23145  23662175.966    23662180.524
  24982050.149    -3369700.22249  -2617596.60045  24982049.598    24982056.845
  23669269.511   -10064073.15449  -7644471.11445  23669268.836    23669273.906
  20652866.487   -23349438.71449 -18184273.85648  20652866.038    20652869.084
 03  2 26  1 10 30.0000000  0 10G26G15G 6G17G23G 3G29G 2G16G18
  21961104.928   -16013315.64349 -12468217.05346  21961104.874    21961109.110
  21126953.774   -22756484.47449 -17208211.64947  21126953.005    21126957.571
  21862198.459   -19028195.39049 -14531116.45647  21862198.245    21862203.017
  20755637.187   -25972024.77349 -20221318.23247  20755636.522    20755641.057
  20780241.583   -21324688.38549 -16598152.86047  20780241.048    20780245.088
  24512442.243    -4132603.39649  -2986531.72645  24512441.810    24512448.796
  23675435.111    -7481716.06549  -5821006.88445  23675435.008    23675439.455
  24980071.143    -3380099.14849  -2625699.63445  24980070.587    24980077.868
  23673628.727   -10041165.00749  -7626620.60345  23673628.128    23673633.180
  20647572.501   -23377258.51249 -18205951.58648  20647572.063    20647575.097
 03  2 26  1 11  0.0000000  0 10G26G15G 6G17G23G 3G29G 2G16G18
  21970588.569   -15963478.77849 -12429383.10146  21970588.498    21970592.737
  21118180.119   -22802590.04049 -17244138.03247  21118179.379    21118183.963
  21878466.943   -18942704.10249 -14464499.89647  21878466.703    21878471.508
  20755020.270   -25975266.75249 -20223844.43947  20755019.589    20755024.113
  20785871.999   -21295100.28749 -16575097.18747  20785871.471    20785875.501
  24493631.042    -4231456.59949  -3063560.10745  24493630.623    24493637.544
  23688770.114    -7411640.36049  -5766402.42545  23688769.996    23688774.438
  24978171.261    -3390082.38149  -2633478.78345  24978170.683    24978178.194
  23678076.796   -10017790.51349  -7608406.71745  23678076.119    23678081.192
  20642354.467   -23404679.56649 -18227318.60948  20642354.016    20642357.030
 03  2 26  1 11 30.0000000  0 10G26G15G 6G17G23G 3G29G 2G16G18
  21980185.736   -15913045.18049 -12390084.16546  21980185.664    21980189.892
  21109437.662   -22848531.73849 -17279936.73147  21109436.951    21109441.541
  21894801.880   -18856863.23649 -14397610.93147  21894801.684    21894806.525
  20754441.600   -25978307.60649 -20226213.92147  20754440.930    20754445.433
  20791561.208   -21265203.22849 -16551800.76447  20791560.662    20791564.703
  24474851.233    -4330144.61849  -3140459.74545  24474850.883    24474857.734
  23702180.846    -7341166.63849  -5711487.82045  23702180.682    23702185.141
  24976350.888    -3399649.53549  -2640933.67945  24976350.213    24976357.748
  23682613.551    -9993950.34649  -7589829.97445  23682612.838    23682617.848
  20637212.345   -23431701.41149 -18248374.56048  20637211.896    20637214.898
 03  2 26  1 12  0.0000000  0 10G26G15G 6G17G23G 3G29G 2G16G18
  21989895.906   -15862017.64049 -12350322.42046  21989895.882    21989900.056
  21100726.363   -22894309.79649 -17315607.91347  21100725.642    21100730.241
  21911202.784   -18770675.90249 -14330451.99747  21911202.590    21911207.452
  20753901.183   -25981147.32349 -20228426.66447  20753900.514    20753905.012
  20797308.683   -21234999.95449 -16528265.73147  20797308.133    20797312.186
  24456103.224    -4428665.83149  -3217229.42345  24456102.863    24456109.721
  23715666.593    -7270298.15149  -5656265.62045  23715666.446    23715670.946
  24974609.287    -3408801.95449  -2648065.43645  24974608.648    24974616.193
  23687238.249    -9969647.36249  -7570892.59545  23687237.487    23687242.604
  20632145.926   -23458325.44149 -18269120.52248  20632145.473    20632148.462
 03  2 26  1 12 30.0000000  0 10G26G15G 6G17G23G 3G29G 2G16G18
  21999718.929   -15810397.24349 -12310098.70146  21999718.931    21999723.055
  21092046.517   -22939922.59449 -17351150.31947  21092045.790    21092050.350
  21927669.428   -18684143.15949 -14263023.91347  21927669.211    21927674.125
  20753399.291   -25983784.66749 -20230481.71647  20753398.631    20753403.124
  20803114.249   -21204491.55649 -16504492.94147  20803113.694    20803117.725
  24437387.461    -4527017.15049  -3293866.72945  24437387.070    24437393.845
  23729227.282    -7199036.32149  -5600736.90545  23729227.128    23729231.596
  24972946.975    -3417539.21349  -2654873.66845  24972946.190    24972953.669
  23691950.780    -9944882.46649  -7551595.28545  23691950.124    23691955.277
  20627155.250   -23484551.36349 -18289556.27448  20627154.798    20627157.806
 03  2 26  1 13  0.0000000  0 10G26G15G 6G17G23G 3G29G 2G16G18
  22009654.442   -15758185.90049 -12269414.51446  22009654.413    22009658.471
  21083398.268   -22985369.39149 -17386563.37847  21083397.548    21083402.074
  21944201.385   -18597267.10649 -14195328.31147  21944201.185    21944206.107
  20752936.023   -25986219.02349 -20232378.59647  20752935.372    20752939.893
  20808977.529   -21173679.84149 -16480483.79947  20808976.975    20808981.004
  24418704.396    -4625196.13749  -3370369.70345  24418703.843    24418710.872
  23742862.381    -7127383.36149  -5544903.40645  23742862.259    23742866.666
  24971363.195    -3425862.08549  -2661359.01745  24971362.425    24971369.960
  23696750.831    -9919657.71049  -7531939.63045  23696750.321    23696755.376
  20622240.258   -23510379.61649 -18309682.15348  20622239.811    20622242.827
 03  2 26  1 13 30.0000000  0 10G26G15G 6G17G23G 3G29G 2G16G18
  22019701.949   -15705385.84049 -12228271.59246  22019701.957    22019705.982
  21074781.675   -23030649.81949 -17421846.79647  21074780.963    21074785.464
  21960798.281   -18510050.15849 -14127367.08147  21960798.066    21960802.947
  20752511.407   -25988450.17149 -20234117.13247  20752510.766    20752515.283
  20814898.109   -21142566.96549 -16456239.98747  20814897.546    20814901.582
  24400054.697    -4723200.83749  -3446736.91045  24400054.174    24400061.074
  23756571.454    -7055341.85949  -5488767.16245  23756571.388    23756575.659
  24969858.238    -3433771.45649  -2667522.12245  24969857.397    24969864.801
  23701638.070    -9893975.06749  -7511927.19845  23701637.548    23701642.554
  20617400.791   -23535811.27049 -18329498.99348  20617400.331    20617403.342
 03  2 26  1 14  0.0000000  0 10G26G15G 6G17G23G 3G29G 2G16G18
  22029861.165   -15651999.03349 -12186671.46346  22029861.154    22029865.152
  21066196.937   -23075762.84649 -17456999.77247  21066196.216    21066200.697
  21977459.556   -18422494.42149 -14059141.85546  21977459.341    21977464.268
  20752125.756   -25990476.76749 -20235696.27847  20752125.113    20752129.646
  20820875.631   -21111154.74049 -16431762.91547  20820875.078    20820879.123
  24381438.610    -4821028.60449  -3522966.21345  24381438.062    24381444.879
  23770354.036    -6982913.96149  -5432329.81545  23770353.897    23770358.241
  24968431.565    -3441267.84849  -2673363.45045  24968430.705    24968438.325
  23706612.096    -9867836.26149  -7491559.30345  23706611.565    23706616.622
  20612636.651   -23560846.77249 -18349007.14548  20612636.179    20612639.194
 03  2 26  1 14 30.0000000  0 10G26G15G 6G17G23G 3G29G 2G16G18
  22040131.651   -15598027.05849 -12144615.35546  22040131.674    22040135.625
  21057644.233   -23120707.43649 -17492021.49347  21057643.507    21057647.984
  21994184.985   -18334601.53249 -13990653.91546  21994184.812    21994189.764
  20751779.120   -25992298.26749 -20237115.60447  20751778.493    20751783.018
  20826909.861   -21079444.57549 -16407053.67947  20826909.311    20826913.346
  24362856.833    -4918676.67249  -3599055.52745  24362856.215    24362862.985
  23784209.769    -6910101.53549  -5375592.84445  23784209.674    23784214.029
  24967083.310    -3448351.48249  -2678883.15145  24967082.558    24967090.374
  23711672.668    -9841242.77849  -7470837.13445  23711672.111    23711677.216
  20607947.911   -23585486.06949 -18368206.56348  20607947.455    20607950.477
 03  2 26  1 15  0.0000000  0 10G26G15G 6G17G23G 3G29G 2G16G18
  22050513.104   -15543472.11149 -12102104.99546  22050513.107    22050517.070
  21049123.713   -23165483.06849 -17526911.56347  21049122.985    21049127.449
  22010974.168   -18246373.68149 -13921904.97046  22010974.009    22010978.962
  20751471.723   -25993913.63749 -20238374.31347  20751471.076    20751475.624
  20833000.429   -21047438.41149 -16382113.80047  20832999.864    20833003.901
  24344309.520    -5016142.85649  -3675003.10545  24344309.056    24344315.656
  23798138.171    -6836907.10049  -5318558.20645  23798138.082    23798142.509
  24965813.698    -3455022.87249  -2684081.62745  24965812.947    24965820.719
  23716819.299    -9814196.86649  -7449762.41445  23716818.808    23716823.987
  20603334.415   -23609729.94549 -18387097.86848  20603333.979    20603336.990
 03  2 26  1 15 30.0000000  0 10G26G15G 6G17G23G 3G29G 2G16G18
  22061005.120   -15488336.10249 -12059141.84846  22061005.144    22061009.091
  21040635.515   -23210088.67849 -17561669.14247  21040634.802    21040639.220
  22027826.776   -18157812.91849 -13852896.60946  22027826.623    22027831.532
  20751203.607   -25995322.54149 -20239472.13847  20751202.951    20751207.488
  20839146.974   -21015138.02349 -16356944.65247  20839146.409    20839150.451
  24325797.360    -5113424.61249  -3750806.94645  24325796.981    24325803.546
  23812138.886    -6763332.81449  -5261227.57945  23812138.760    23812143.225
  24964622.654    -3461282.66349  -2688959.37245  24964621.872    24964629.458
  23722051.690    -9786700.27049  -7428336.51845  23722051.206    23722056.450
  20598796.073   -23633578.98749 -18405681.50548  20598795.621    20598798.635
 03  2 26  1 16  0.0000000  0 10G26G15G 6G17G23G 3G29G 2G16G18
  22071607.352   -15432620.79649 -12015727.30246  22071607.375    22071611.356
  21032179.910   -23254523.23449 -17596293.42947  21032179.195    21032183.576
  22044742.378   -18068921.12349 -13783630.29746  22044742.202    22044747.118
  20750975.093   -25996523.29949 -20240407.77047  20750974.429    20750978.985
  20845349.165   -20982545.06849 -16331547.52547  20845348.615    20845352.665
  24307320.818    -5210519.47949  -3826465.18545  24307320.422    24307326.773
  23826211.453    -6689380.74549  -5203602.58145  23826211.347    23826215.806
  24963509.460    -3467131.39249  -2693516.80545  24963508.793    24963516.337
  23727369.457    -9758754.77349  -7406560.83745  23727369.034    23727374.355
  20594332.808   -23657033.55549 -18423957.75748  20594332.370    20594335.347
 03  2 26  1 16 30.0000000  0 10G26G15G 6G17G23G 3G29G 2G16G18
  22082319.263   -15376329.20149 -11971863.71646  22082319.308    22082323.235
  21023756.730   -23298787.16649 -17630784.77047  21023756.007    21023760.358
  22061720.386   -17979701.29449 -13714108.38546  22061720.209    22061725.140
  20750786.116   -25997516.24649 -20241181.47947  20750785.470    20750790.001
  20851606.568   -20949662.25349 -16305924.54347  20851606.004    20851610.043
  24288880.071    -5307425.99449  -3901976.63545  24288879.629    24288886.022
  23840355.285    -6615054.08249  -5145685.69145  23840355.196    23840359.651
  24962474.648    -3472570.53949  -2697755.08645  24962473.949    24962481.148
  23732772.162    -9730363.14049  -7384437.50845  23732771.744    23732777.091
  20589944.317   -23680095.14949 -18441927.80148  20589943.868    20589946.825
 03  2 26  1 17  0.0000000  0 10G26G15G 6G17G23G 3G29G 2G16G18
  22093140.595   -15319462.57549 -11927552.04246  22093140.657    22093144.551
  21015366.370   -23342878.63849 -17665141.71847  21015365.655    21015370.004
  22078760.610   -17890154.56649 -13644331.73946  22078760.432    22078765.317
  20750636.998   -25998299.86749 -20241792.07247  20750636.343    20750640.872
  20857918.950   -20916490.42549 -16280076.34647  20857918.374    20857922.407
  24270475.841    -5404140.50649  -3977338.45445  24270475.470    24270481.849
  23854570.263    -6540354.00949  -5087477.83045  23854570.125    23854574.608
  24961517.683    -3477599.80349  -2701673.97345  24961516.852    24961524.044
  23738259.550    -9701526.50049  -7361967.42245  23738259.106    23738264.602
  20585630.680   -23702763.36349 -18459591.30748  20585630.225    20585633.156
 03  2 26  1 17 30.0000000  0 10G26G15G 6G17G23G 3G29G 2G16G18
  22104070.918   -15262023.08749 -11882793.98846  22104070.960    22104074.897
  21007008.940   -23386796.95849 -17699363.74847  21007008.231    21007012.610
  22095862.572   -17800283.31749 -13574302.22246  22095862.393    22095867.291
  20750527.862   -25998873.26149 -20242238.85947  20750527.219    20750531.740
  20864285.910   -20883031.73549 -16254004.62147  20864285.336    20864289.362
  24252108.528    -5500661.05149  -4052549.14145  24252108.125    24252114.534
  23868855.691    -6465283.52749  -5028981.33345  23868855.475    23868859.987
  24960638.260    -3482220.12449  -2705274.24545  24960637.649    24960644.853
  23743831.244    -9672246.91249  -7339152.19645  23743830.928    23743836.375
  20581391.696   -23725039.19149 -18476949.06548  20581391.239    20581394.192
 03  2 26  1 18  0.0000000  0 10G26G15G 6G17G23G 3G29G 2G16G18
  22115109.856   -15204012.93249 -11837591.25846  22115109.908    22115113.884
  20998684.664   -23430541.30749 -17733450.21047  20998683.944    20998688.336
  22113025.935   -17710089.56349 -13504021.40446  22113025.721    22113030.615
  20750458.761   -25999236.20649 -20242521.65647  20750458.127    20750462.632
  20870707.159   -20849287.79949 -16227710.62547  20870706.581    20870710.611
  24233778.547    -5596985.17149  -4127606.78445  24233778.154    24233784.580
  23883211.217    -6389844.49749  -4970197.65945  23883211.007    23883215.591
  24959836.878    -3486432.18649  -2708556.33745  24959836.155    24959843.300
  23749486.852    -9642526.39549  -7315993.36945  23749486.633    23749492.037
  20577227.320   -23746922.95749 -18494001.31348  20577226.872    20577229.821
 03  2 26  1 18 30.0000000  0 10G26G15G 6G17G23G 3G29G 2G16G18
  22126257.005   -15145434.24449 -11791945.51046  22126257.071    22126261.080
  20990393.570   -23474111.05549 -17767400.62247  20990392.854    20990397.255
  22130250.218   -17619575.49449 -13433490.98946  22130250.007    22130254.939
  20750429.978   -25999387.60349 -20242639.61147  20750429.317    20750433.817
  20877182.295   -20815260.53649 -16201195.85547  20877181.718    20877185.759
  24215486.392    -5693110.41749  -4202509.44245  24215485.958    24215492.373
  23897636.413    -6314039.45249  -4911128.78245  23897636.251    23897640.780
  24959112.790    -3490236.77449  -2711520.93445  24959112.107    24959119.334
  23755225.969    -9612367.05449  -7292492.60945  23755225.719    23755231.078
  20573137.442   -23768415.21249 -18510748.49448  20573136.994    20573139.939
 03  2 26  1 19  0.0000000  0 10G26G15G 6G17G23G 3G29G 2G16G18
  22137511.994   -15086289.06149 -11745858.33946  22137512.029    22137516.044
  20982135.904   -23517505.15849 -17801214.16547  20982135.210    20982139.606
  22147535.075   -17528743.07249 -13362712.51046  22147534.860    22147539.770
  20750441.531   -25999326.65849 -20242592.10547  20750440.879    20750445.376
  20883711.042   -20780951.73349 -16174461.70747  20883710.478    20883714.515
  24197232.666    -5789033.99249  -4277254.99745  24197232.284    24197238.500
  23912130.876    -6237870.55749  -4851776.37445  23912130.666    23912135.186
  24958466.175    -3493634.25649  -2714168.32145  24958465.504    24958472.818
  23761048.308    -9581770.79049  -7268651.40345  23761047.938    23761053.338
  20569121.930   -23789516.68049 -18527191.16948  20569121.484    20569124.419
 03  2 26  1 19 30.0000000  0 10G26G15G 6G17G23G 3G29G 2G16G18
  22148874.289   -15026579.36649 -11699331.28346  22148874.363    22148878.408
  20973911.933   -23560722.40949 -17834889.90547  20973911.233    20973915.627
  22164880.216   -17437594.32149 -13291687.54146  22164879.973    22164884.845
  20750493.759   -25999052.10649 -20242378.15047  20750493.113    20750497.595
  20890293.089   -20746362.85149 -16147509.31347  20890292.531    20890296.548
  24179017.726    -5884753.59449  -4351841.58845  24179017.344    24179023.527
  23926694.171    -6161339.82349  -4792142.02245  23926693.975    23926698.519
  24957896.896    -3496625.34149  -2716499.04245  24957896.288    24957903.615
  23766953.291    -9550739.28749  -7244471.02145  23766953.021    23766958.447
  20565180.690   -23810227.82549 -18543329.69648  20565180.262    20565183.216
 03  2 26  1 20  0.0000000  0 10G26G15G 6G17G23G 3G29G 2G16G18
  22160343.592   -14966307.83449 -11652366.43046  22160343.643    22160347.672
  20965721.632   -23603762.52849 -17868427.61947  20965720.924    20965725.314
  22182284.975   -17346131.86549 -13220418.12546  22182284.704    22182289.580
  20750586.722   -25998563.56149 -20241997.44547  20750586.068    20750590.561
  20896927.987   -20711496.08549 -16120340.38847  20896927.428    20896931.451
  24160841.983    -5980267.05749  -4426267.56545  24160841.667    24160847.725
  23941325.786    -6084450.08949  -4732227.92345  23941325.545    23941330.073
  24957404.929    -3499211.27649  -2718514.03445  24957404.229    24957411.555
  23772940.719    -9519275.06549  -7219953.48245  23772940.475    23772945.947
  20561313.551   -23830549.64649 -18559164.84948  20561313.109    20561316.060
 03  2 26  1 20 30.0000000  0 10G26G15G 6G17G23G 3G29G 2G16G18
  22171919.460   -14905476.10649 -11604965.06646  22171919.510    22171923.554
  20957565.269   -23646624.39449 -17901826.44247  20957564.560    20957568.919
  22199749.050   -17254357.48249 -13148905.64446  22199748.794    22199753.681
  20750720.540   -25997860.10649 -20241449.28147  20750719.896    20750724.365
  20903615.476   -20676353.07249 -16092956.20547  20903614.919    20903618.964
  24142706.072    -6075571.71449  -4500530.82745  24142705.763    24142711.682
  23956025.351    -6007203.29649  -4672035.59945  23956025.199    23956029.632
  24956989.673    -3501392.48849  -2720213.68845  24956989.046    24956996.393
  23779010.238    -9487380.03349  -7195100.21745  23779009.944    23779015.322
  20557520.488   -23850482.31949 -18574696.77348  20557520.035    20557523.009
 03  2 26  1 21  0.0000000  0 10G26G15G 6G17G23G 3G29G 2G16G18
  22183601.403   -14844086.83649 -11557129.24246  22183601.453    22183605.520
  20949442.978   -23689307.20249 -17935085.73647  20949442.273    20949446.604
  22217272.011   -17162273.50949 -13077151.93346  22217271.763    22217276.683
  20750895.404   -25996941.18049 -20240733.20947  20750894.774    20750899.224
  20910355.107   -20640935.77249 -16065358.29547  20910354.573    20910358.630
  24124610.391    -6170665.07849  -4574629.48645  24124609.990    24124615.855
  23970792.395    -5929602.12349  -4611567.13245  23970792.186    23970796.705
  24956651.351    -3503169.59749  -2721598.45145  24956650.770    24956658.143
  23785161.369    -9455056.14649  -7169912.78945  23785161.026    23785166.415
  20553801.228   -23870026.94949 -18589926.32748  20553800.780    20553803.746
 03  2 26  1 21 30.0000000  0 10G26G15G 6G17G23G 3G29G 2G16G18
  22195389.061   -14782141.97349 -11508860.49946  22195389.112    22195393.207
  20941355.008   -23731809.78449 -17968204.60147  20941354.292    20941358.603
  22234853.549   -17069881.80149 -13005158.42646  22234853.281    22234858.245
  20751111.539   -25995805.32149 -20239848.10447  20751110.885    20751115.337
  20917146.672   -20605245.79849 -16037547.91247  20917146.121    20917150.187
  24106555.400    -6265544.42549  -4648561.36345  24106554.979    24106560.900
  23985626.359    -5851648.68649  -4550824.17345  23985626.237    23985630.756
  24956389.956    -3504543.48349  -2722669.01145  24956389.440    24956396.528
  23791393.644    -9422305.40749  -7144392.77145  23791393.331    23791398.718
  20550155.758   -23889183.81349 -18604853.72648  20550155.324    20550158.279
 03  2 26  1 22  0.0000000  0 10G26G15G 6G17G23G 3G29G 2G16G18
  22207281.971   -14719644.35949 -11460161.03446  22207282.039    22207286.126
  20933301.404   -23774131.67349 -18001182.66447  20933300.687    20933304.972
  22252493.152   -16977184.90649 -12932927.11446  22252492.939    22252497.931
  20751368.939   -25994452.48049 -20238793.92347  20751368.297    20751372.760
  20923989.680   -20569285.40349 -16009526.81447  20923989.124    20923993.212
  24088541.411    -6360207.84249  -4722324.96145  24088540.980    24088546.978
  24000526.943    -5773345.68249  -4489808.82345  24000526.851    24000531.260
  24956205.515    -3505515.18349  -2723426.17745  24956204.838    24956211.722
  23797706.638    -9389130.59649  -7118542.29645  23797706.361    23797711.662
  20546583.891   -23907954.03249 -18619479.84048  20546583.446    20546586.404
 03  2 26  1 22 30.0000000  0 10G26G15G 6G17G23G 3G29G 2G16G18
  22219279.734   -14656595.83449 -11411032.28646  22219279.793    22219283.878
  20925282.397   -23816271.79349 -18034019.09347  20925281.679    20925285.944
  22270190.432   -16884184.94649 -12860459.64346  22270190.218    22270195.284
  20751667.870   -25992881.54649 -20237569.79647  20751667.230    20751671.686
  20930883.880   -20533056.06649 -15981296.14947  20930883.331    20930887.408
  24070568.993    -6454652.79549  -4795918.33345  24070568.662    24070574.542
  24015493.641    -5694695.27449  -4428522.76345  24015493.519    24015497.909
  24956097.118    -3506085.32549  -2723870.47445  24956096.374    24956103.574
  23804099.983    -9355533.40249  -7092362.67045  23804099.715    23804105.031
  20543085.528   -23926338.05949 -18633805.02848  20543085.068    20543088.016
 03  2 26  1 23  0.0000000  0 10G26G15G 6G17G23G 3G29G 2G16G18
  22231381.902   -14592998.37149 -11361475.80746  22231381.935    22231386.027
  20917298.224   -23858228.88649 -18066712.90847  20917297.486    20917301.745
  22287945.094   -16790883.68349 -12787757.38546  22287944.887    22287949.948
  20752008.569   -25991091.26449 -20236174.75447  20752007.914    20752012.350
  20937829.009   -20496559.12849 -15952856.96547  20937828.463    20937832.550
  24052638.800    -6548876.34749  -4869339.18845  24052638.516    24052644.359
  24030526.017    -5615699.30949  -4366967.45745  24030525.913    24030530.257
  24956064.605    -3506254.56949  -2724002.35045  24956063.947    24956071.378
  23810573.336    -9321515.55949  -7065855.28545  23810573.124    23810578.498
  20539660.555   -23944336.30349 -18647829.60648  20539660.099    20539663.043
 03  2 26  1 23 30.0000000  0 10G26G15G 6G17G23G 3G29G 2G16G18
  22243588.058   -14528854.39749 -11311493.46746  22243588.114    22243592.189
  20909349.023   -23900002.00549 -18099263.36447  20909348.299    20909352.551
  22305756.661   -16697283.33849 -12714822.08446  22305756.456    22305761.501
  20752391.192   -25989080.57149 -20234607.95947  20752390.539    20752394.943
  20944824.664   -20459796.50749 -15924210.75747  20944824.120    20944828.198
  24034751.332    -6642875.78649  -4942585.38845  24034751.068    24034756.815
  24045623.756    -5536360.25949  -4305144.78545  24045623.701    24045628.052
  24956108.357    -3506023.73949  -2723822.49645  24956107.786    24956115.246
  23817126.387    -9287079.33349  -7039021.89645  23817126.166    23817131.532
  20536308.884   -23961949.33449 -18661554.01948  20536308.430    20536311.375
 03  2 26  1 24  0.0000000  0 10G26G15G 6G17G23G 3G29G 2G16G18
  22255897.676   -14464166.94149 -11261087.63746  22255897.703    22255901.772
  20901434.819   -23941591.17749 -18131670.48547  20901434.098    20901438.361
  22323624.586   -16603386.92149 -12641656.07246  22323624.386    22323629.452
  20752815.679   -25986849.70649 -20232869.60547  20752815.025    20752819.408
  20951870.443   -20422770.80349 -15895359.54447  20951869.892    20951873.960
  24016906.711    -6736649.49849  -5015655.69245  24016906.412    24016912.205
  24060786.154    -5456681.32549  -4243057.28845  24060786.015    24060790.447
  24956228.281    -3505394.55549  -2723332.24745  24956227.683    24956234.914
  23823758.646    -9252227.38849  -7011864.57345  23823758.375    23823763.775
  20533030.184   -23979178.79949 -18674979.54648  20533029.729    20533032.682
 03  2 26  1 24 30.0000000  0 10G26G15G 6G17G23G 3G29G 2G16G18
  22268310.289   -14398937.78449 -11210259.70246  22268310.300    22268314.425
  20893555.908   -23982994.81349 -18163933.03947  20893555.193    20893559.485
  22341548.525   -16509196.22249 -12568260.76346  22341548.268    22341553.383
  20753282.457   -25984396.57549 -20230958.05847  20753281.802    20753286.208
  20958965.992   -20385483.28149 -15866304.31847  20958965.440    20958969.529
  23999105.492    -6830194.45449  -5088547.74845  23999105.176    23999111.068
  24076012.891    -5376664.41149  -4180706.42645  24076012.704    24076017.233
  24956423.864    -3504367.24249  -2722531.75345  24956423.298    24956430.210
  23830469.557    -9216961.60649  -6984384.76145  23830469.269    23830474.500
  20529824.519   -23996024.53249 -18688106.06548  20529824.059    20529827.026
 03  2 26  1 25  0.0000000  0 10G26G15G 6G17G23G 3G29G 2G16G18
  22280825.618   -14333169.25949 -11159011.47846  22280825.596    22280829.756
  20885712.520   -24024211.83149 -18196050.17247  20885711.803    20885716.096
  22359528.038   -16414713.40249 -12494637.82046  22359527.811    22359532.910
  20753791.520   -25981721.28449 -20228873.39747  20753790.880    20753795.285
  20966111.064   -20347935.69749 -15837046.44247  20966110.504    20966114.602
  23981348.405    -6923508.18449  -5161259.61545  23981348.108    23981354.047
  24091303.460    -5296311.87349  -4118094.04345  24091303.288    24091307.775
  24956695.124    -3502942.61149  -2721421.66645  24956694.460    24956701.331
  23837258.768    -9181284.13149  -6956584.14145  23837258.409    23837263.635
  20526691.659   -24012487.69949 -18700934.48148  20526691.217    20526694.154
 03  2 26  1 25 30.0000000  0 10G26G15G 6G17G23G 3G29G 2G16G18
  22293443.201   -14266863.44649 -11107344.59046  22293443.151    22293447.294
  20877904.851   -24065241.10549 -18228021.01047  20877904.138    20877908.452
  22377562.731   -16319940.26349 -12420788.66346  22377562.566    22377567.654
  20754343.127   -25978822.44149 -20226614.54547  20754342.498    20754346.892
  20973305.329   -20310129.51949 -15807587.06947  20973304.783    20973308.859
  23963635.801    -7016587.95249  -5233789.18445  23963635.541    23963641.427
  24106657.478    -5215625.57249  -4055221.57345  24106657.359    24106661.900
  24957041.387    -3501121.34849  -2720002.46545  24957040.820    24957048.079
  23844125.842    -9145196.79449  -6928464.17345  23844125.545    23844130.853
  20523631.549   -24028568.61049 -18713465.03648  20523631.096    20523634.013
 03  2 26  1 26  0.0000000  0 10G26G15G 6G17G23G 3G29G 2G16G18
  22306162.384   -14200023.50649 -11055261.49946  22306162.365    22306166.519
  20870132.944   -24106082.48649 -18259845.43547  20870132.238    20870136.564
  22395652.194   -16224879.86049 -12346715.64546  22395652.003    22395657.077
  20754937.399   -25975699.44149 -20224181.01847  20754936.746    20754941.137
  20980548.316   -20272067.24549 -15777928.14247  20980547.759    20980551.846
  23945968.131    -7109431.93049  -5306135.00645  23945967.782    23945973.637
  24122074.425    -5134608.59949  -3992091.44545  24122074.336    24122078.818
  24957462.951    -3498905.12449  -2718275.54845  24957462.279    24957469.847
  23851070.480    -9108702.62949  -6900027.17645  23851070.197    23851075.444
  20520643.942   -24044268.57249 -18725698.74648  20520643.504    20520646.380
 03  2 26  1 26 30.0000000  0  9G26G15G 6G17G23G 3G29G16G18
  22318983.180   -14132649.40049 -11002762.16646  22318983.170    22318987.334
  20862397.521   -24146732.37349 -18291520.64147  20862396.813    20862401.154
  22413796.467   -16129531.88749 -12272418.55946  22413796.221    22413801.242
  20755574.921   -25972349.03549 -20221570.28747  20755574.295    20755578.679
  20987840.221   -20233748.10449 -15748069.05547  20987839.671    20987843.733
  23928346.267    -7202034.92949  -5378293.06745  23928345.991    23928351.723
  24137554.376    -5053261.13349  -3928703.78045  24137554.219    24137558.725
  23858092.635    -9071801.35849  -6871272.94545  23858092.316    23858097.445
  20517729.153   -24059585.86249 -18737634.26848  20517728.712    20517731.586
 03  2 26  1 27  0.0000000  0  9G26G15G 6G17G23G 3G29G16G18
  22331905.061   -14064744.20249 -10949848.99846  22331905.064    22331909.242
  20854698.536   -24187190.67349 -18323046.56547  20854697.833    20854702.145
  22431994.745   -16033899.40549 -12197899.78146  22431994.493    22431999.495
  20756255.807   -25968770.99349 -20218782.18747  20756255.154    20756259.543
  20995180.456   -20195174.72249 -15718011.86347  20995179.899    20995183.985
  23910770.659    -7294395.32649  -5450262.07345  23910770.318    23910776.139
  24153096.565    -4971586.25549  -3865060.99445  24153096.449    24153100.903
  23865191.572    -9034496.13949  -6842203.96245  23865191.242    23865196.273
  20514886.887   -24074521.98549 -18749272.78348  20514886.450    20514889.323
 03  2 26  1 27 30.0000000  0  9G26G15G 6G17G23G 3G29G16G18
  22344927.064   -13996312.89049 -10896525.86846  22344927.139    22344931.248
  20847035.807   -24227458.57949 -18354424.12847  20847035.078    20847039.404
  22450246.274   -15937986.95249 -12123162.83146  22450246.047    22450251.061
  20756979.596   -25964967.31449 -20215818.26247  20756978.962    20756983.335
  21002568.295   -20156351.26649 -15687759.80847  21002567.735    21002571.815
  23893241.181    -7386513.17149  -5522042.07445  23893240.833    23893246.613
  24168700.176    -4889588.52649  -3801166.63745  24168700.077    24168704.496
  23872366.579    -8996791.48349  -6812823.71445  23872366.335    23872371.221
  20512116.511   -24089080.26949 -18760616.88148  20512116.068    20512118.927
 03  2 26  1 28  0.0000000  0  9G26G15G 6G17G23G 3G29G16G18
  22358048.687   -13927358.40749 -10842795.06446  22358048.705    22358052.794
  20839409.362   -24267535.73149 -18385653.05147  20839408.658    20839412.948
  22468550.533   -15841797.33049 -12048209.92046  22468550.306    22468555.377
  20757746.422   -25960937.52349 -20212678.15047  20757745.782    20757750.163
  21010003.259   -20117280.16249 -15657314.77747  21010002.718    21010006.783
  23875758.165    -7478386.60649  -5593631.61745  23875757.797    23875763.513
  24184364.570    -4807271.27349  -3737023.29445  24184364.513    24184368.882
  23879617.114    -8958690.22649  -6783134.43245  23879616.745    23879621.731
  20509417.824   -24103261.92049 -18771667.49448  20509417.356    20509420.213
 03  2 26  1 28 30.0000000  0  9G26G15G 6G17G23G 3G29G16G18
  22371269.655   -13857881.75049 -10788657.38046  22371269.692    22371273.735
  20831819.726   -24307419.56149 -18416731.33647  20831818.982    20831823.285
  22486907.399   -15745331.20149 -11973041.53346  22486907.208    22486912.258
  20758556.790   -25956678.91249 -20209359.73147  20758556.141    20758560.525
  21017485.327   -20077961.56849 -15626676.89747  21017484.778    21017488.837
  23858322.397    -7570011.45949  -5665027.47245  23858322.008    23858327.712
  24200089.690    -4724635.17349  -3672631.50645  24200089.567    24200093.936
  23886942.910    -8920193.07349  -6753136.68145  23886942.594    23886947.590
  20506790.921   -24117066.25749 -18782424.09848  20506790.454    20506793.301
 03  2 26  1 29  0.0000000  0  9G26G15G 6G17G23G 3G29G16G18
  22384589.472   -13787885.73749 -10734115.00946  22384589.521    22384593.533
  20824266.941   -24347109.51649 -18447658.54247  20824266.211    20824270.499
  22505316.391   -15648591.32949 -11897659.84246  22505316.233    22505321.281
  20759410.807   -25952191.04249 -20205862.67447  20759410.159    20759414.516
  21025014.087   -20038397.60549 -15595847.82247  21025013.546    21025017.599
  23840934.394    -7661385.51249  -5736227.89445  23840934.025    23840939.705
  24215874.958    -4641682.89749  -3607993.34145  24215874.819    24215879.208
  23894343.560    -8881302.62949  -6722832.46045  23894343.241    23894348.288
  20504235.584   -24130494.45149 -18792887.60848  20504235.113    20504237.945
 03  2 26  1 29 30.0000000  0  9G26G15G 6G17G23G 3G29G16G18
  22398007.542   -13717373.33849 -10679170.24946  22398007.592    22398011.539
  20816751.208   -24386604.81549 -18478434.07347  20816750.484    20816754.752
  22523776.982   -15551580.36749 -11822066.90546  22523776.824    22523781.861
  20760308.573   -25947473.27849 -20202186.47847  20760307.928    20760312.245
  21032589.151   -19998590.35949 -15564829.17247  21032588.592    21032592.628
  23823594.379    -7752506.78249  -5807231.34645  23823594.050    23823599.772
  24231719.836    -4558417.39649  -3543111.10345  24231719.660    24231724.172
  23901818.442    -8842021.74149  -6692224.00645  23901818.115    23901823.155
  20501751.647   -24143547.57749 -18803058.85748  20501751.203    20501754.017
 03  2 26  1 30  0.0000000  0 10G26G14G15G 6G17G23G 3G29G16G18
  22411523.577   -13646346.17149 -10623824.37746  22411523.635    22411527.481
  24663437.205    -1635408.44549  -1253303.83644  24663436.138    24663442.370
  20809272.767   -24425904.19849 -18509056.93947  20809272.041    20809276.317
  22542288.919   -15454299.80349 -11746263.88246  22542288.748    22542293.788
  20761250.294   -25942524.35949 -20198330.15147  20761249.656    20761253.958
  21040210.238   -19958541.00649 -15533621.86647  21040209.696    21040213.726
  23806303.141    -7843371.98349  -5878035.27145  23806302.790    23806308.554
  24247623.975    -4474840.46649  -3477986.20245  24247623.830    24247628.311
  23909367.423    -8802352.09049  -6661312.60945  23909367.039    23909372.141
  20499339.011   -24156225.81749 -18812937.98448  20499338.573    20499341.379
 03  2 26  1 30 30.0000000  0 10G26G14G15G 6G17G23G 3G29G16G18
  22425136.279   -13574810.93849 -10568082.61546  22425136.311    22425140.131
  24641815.908    -1749028.54649  -1341838.80544  24641814.977    24641820.855
  20801831.041   -24465010.32449 -18539529.21147  20801830.323    20801834.629
  22560850.967   -15356755.87449 -11670255.64046  22560850.748    22560855.804
  20762235.494   -25937347.07649 -20194295.88647  20762234.844    20762239.150
  21047876.371   -19918255.24649 -15502230.34247  21047875.809    21047879.813
  23789060.404    -7933982.74049  -5948640.93945  23789060.086    23789065.807
  24263586.180    -4390958.26649  -3412623.42645  24263586.058    24263590.551
  23916989.104    -8762299.91049  -6630103.15445  23916988.703    23916993.944
  20496996.879   -24168533.82249 -18822528.61848  20496996.435    20496999.221
 03  2 26  1 31  0.0000000  0 10G26G14G15G 6G17G23G 3G29G16G18
  22438846.392   -13502763.84349 -10511941.99546  22438846.440    22438850.194
  24620194.591    -1862648.09749  -1430373.27944  24620193.814    24620199.945
  20794427.527   -24503915.93349 -18569845.24447  20794426.818    20794431.112
  22579463.733   -15258944.72249 -11594039.19246  22579463.572    22579468.671
  20763265.437   -25931934.54849 -20190078.30847  20763264.791    20763269.096
  21055588.324   -19877728.56449 -15470651.08847  21055587.760    21055591.747
  23771867.763    -8024330.20749  -6019041.44045  23771867.459    23771873.085
  24279607.243    -4306767.19349  -3347019.96445  24279607.098    24279611.592
  23924684.275    -8721861.38449  -6598592.65645  23924683.836    23924689.200
  20494726.188   -24180466.37049 -18831826.68748  20494725.757    20494728.533
 03  2 26  1 31 30.0000000  0 10G26G14G15G 6G17G23G 3G29G16G18
  22452653.140   -13430209.05049 -10455405.77346  22452653.162    22452656.876
  24598573.655    -1976265.95749  -1518906.45145  24598572.882    24598579.258
  20787062.092   -24542621.58149 -18600005.45447  20787061.377    20787065.652
  22598126.679   -15160870.12749 -11517617.45246  22598126.523    22598131.654
  20764340.086   -25926287.08949 -20185677.66747  20764339.447    20764343.759
  21063345.523   -19836964.16649 -15438886.59847  21063344.960    21063348.947
  23754725.513    -8114413.19049  -6089235.84245  23754725.206    23754730.778
  24295686.292    -4222271.16249  -3281178.86545  24295686.067    24295690.512
  23932452.330    -8681040.26249  -6566783.99945  23932451.858    23932457.133
  20492526.529   -24192025.70849 -18840833.94148  20492526.079    20492528.855
 03  2 26  1 32  0.0000000  0 10G26G14G15G 6G17G23G 3G29G16G18
  22466555.913   -13357149.29749 -10398476.06846  22466555.918    22466559.706
  24576953.509    -2089879.92149  -1607436.55945  24576952.640    24576959.336
  20779734.821   -24581126.59949 -18630009.33847  20779734.099    20779738.350
  22616839.270   -15062534.76649 -11440992.51946  22616839.148    22616844.275
  20765459.535   -25920404.30149 -20181093.65347  20765458.902    20765463.172
  21071147.533   -19795964.23449 -15406938.57647  21071146.979    21071150.993
  23737633.928    -8204229.73449  -6159222.64945  23737633.559    23737639.089
  24311822.790    -4137472.72649  -3215102.14445  24311822.665    24311826.946
  23940292.576    -8639839.31649  -6534679.39745  23940292.160    23940297.376
  20490397.639   -24203212.90649 -18849551.21748  20490397.183    20490399.956
 03  2 26  1 32 30.0000000  0 10G26G14G15G 6G17G23G 3G29G16G18
  22480554.271   -13283586.88849 -10341154.68446  22480554.296    22480558.133
  24555334.485    -2203487.13149  -1695961.36245  24555333.687    24555340.666
  20772446.009   -24619429.24349 -18659855.52347  20772445.296    20772449.563
  22635601.256   -14963940.38749 -11364165.75746  22635601.090    22635606.193
  20766624.020   -25914284.84149 -20176325.22347  20766623.386    20766627.651
  21078994.106   -19754730.16649 -15374808.11347  21078993.556    21078997.549
  23720593.621    -8293776.85249  -6228999.54245  23720593.185    23720598.730
  24328016.477    -4052374.20449  -3148791.57545  24328016.354    24328020.711
  23948204.736    -8598260.55849  -6502280.38845  23948204.374    23948209.565
  20488339.430   -24214028.57849 -18857978.98548  20488338.988    20488341.766
 03  2 26  1 33  0.0000000  0 10G26G14G15G 6G17G23G 3G29G16G18
  22494647.623   -13209525.63249 -10283444.60346  22494647.690    22494651.527
  24533717.015    -2317086.02848  -1784479.69745  24533716.362    24533723.310
  20765195.689   -24657529.92849 -18689544.33847  20765194.995    20765199.245
  22654411.781   -14865090.60649 -11287139.97246  22654411.607    22654416.712
  20767833.479   -25907929.03949 -20171372.63247  20767832.839    20767837.111
  21086884.644   -19713265.03149 -15342497.60147  21086884.104    21086888.075
  23703604.601    -8383053.34849  -6298565.51745  23703604.157    23703609.869
  24344266.646    -3966979.15249  -3082249.94745  24344266.516    24344270.741
  23956188.070    -8556307.53049  -6469589.72945  23956187.716    23956192.986
  20486351.554   -24224474.86249 -18866118.92448  20486351.124    20486353.872
 03  2 26  1 33 30.0000000  0 10G26G14G15G 6G17G23G 3G29G16G18
  22508835.567   -13134967.32749 -10225347.20646  22508835.597    22508839.489
  24512101.918    -2430673.06049  -1872988.76345  24512101.336    24512108.365
  20757984.177   -24695426.83449 -18719074.36547  20757983.467    20757987.659
  22673270.581   -14765987.08349 -11209916.48546  22673270.381    22673275.489
  20769088.292   -25901334.84549 -20166234.27747  20769087.660    20769091.929
  21094818.987   -19671569.62049 -15310007.64947  21094818.451    21094822.417
  23686667.979    -8472055.59549  -6367917.82645  23686667.482    23686673.156
  24360572.839    -3881289.08249  -3015478.43345  24360572.767    24360577.016
  23964242.464    -8513981.83149  -6436608.69545  23964242.090    23964247.237
  20484434.029   -24234551.58949 -18873970.89448  20484433.592    20484436.348
 03  2 26  1 34  0.0000000  0 10G26G14G15G 6G17G23G 3G29G16G18
  22523117.612   -13059915.03849 -10166864.88546  22523117.600    22523121.490
  24490489.403    -2544246.34849  -1961487.16745  24490488.888    24490495.936
  20750811.472   -24733119.40649 -18748445.16847  20750810.743    20750814.953
  22692177.167   -14666632.42749 -11132497.30946  22692176.943    22692182.075
  20770388.466   -25894502.24049 -20160910.14547  20770387.830    20770392.103
  21102796.797   -19629646.01649 -15277339.88947  21102796.248    21102800.228
  23669783.882    -8560781.58349  -6437054.86645  23669783.470    23669789.051
  24376934.716    -3795306.81249  -2948479.22545  24376934.609    24376938.845
  23972367.149    -8471286.35949  -6403339.53145  23972366.826    23972372.077
  20482586.488   -24244260.25649 -18881536.05948  20482586.031    20482588.807
 03  2 26  1 34 30.0000000  0 10G26G14G15G 6G17G23G 3G29G16G18
  22537492.934   -12984372.19249 -10108000.31246  22537492.898    22537496.775
  24468879.916    -2657803.87049  -2049973.32045  24468879.438    24468886.494
  20743677.688   -24770607.39749 -18777656.56447  20743676.971    20743681.196
  22711130.968   -14567029.70649 -11054884.82946  22711130.761    22711135.904
  20771734.067   -25887431.03149 -20155400.09247  20771733.428    20771737.692
  21110817.539   -19587496.79549 -15244496.32547  21110816.995    21110820.949
  23652952.636    -8649229.75449  -6505975.42545  23652952.252    23652957.806
  24393351.533    -3709035.90049  -2881255.10645  24393351.465    24393355.608
  23980561.661    -8428224.53449  -6369784.88545  23980561.283    23980566.487
  20480808.767   -24253602.20749 -18888815.47848  20480808.311    20480811.091
 03  2 26  1 35  0.0000000  0 10G26G14G15G 6G17G23G 3G29G16G18
  22551961.225   -12908340.62349 -10048754.92046  22551961.182    22551965.090
  24447274.233    -2771342.20749  -2138444.53045  24447273.605    24447280.727
  20736583.297   -24807888.53549 -18806706.77347  20736582.573    20736586.808
  22730131.673   -14467180.47249 -10977080.26846  22730131.437    22730136.618
  20773125.455   -25880119.21649 -20149702.54847  20773124.825    20773129.099
  21118881.006   -19545122.87549 -15211477.66947  21118880.453    21118884.393
  23636174.981    -8737396.94449  -6574677.04845  23636174.507    23636180.048
  24409822.959    -3622477.76349  -2813807.19445  24409822.851    24409827.089
  23988825.491    -8384797.60649  -6335945.75245  23988825.122    23988830.211
  20479100.696   -24262577.78549 -18895809.40748  20479100.244    20479103.046
 03  2 26  1 35 30.0000000  0 10G26G14G15G 6G17G23G 3G29G16G18
  22566521.942   -12831823.21949  -9989130.94846  22566521.962    22566525.855
  24425672.521    -2884858.97649  -2226898.94045  24425672.079    24425679.083
  20729528.435   -24844962.09149 -18835595.22647  20729527.707    20729531.924
  22749178.828   -14367087.24549 -10899085.58846  22749178.601    22749183.733
  20774562.764   -25872566.18849 -20143817.04647  20774562.110    20774566.384
  21126986.876   -19502526.28849 -15178285.50647  21126986.312    21126990.261
  23619451.266    -8825280.64149  -6643157.76245  23619450.785    23619456.259
  24426348.505    -3535635.19149  -2746137.62245  24426348.540    24426352.589
  23997158.252    -8341008.55349  -6301824.45845  23997157.813    23997162.895
  20477462.190   -24271188.14549 -18902518.75148  20477461.758    20477464.563
 03  2 26  1 36  0.0000000  0 10G26G14G15G 6G17G23G 3G29G16G18
  22581174.636   -12754822.46649  -9929130.34846  22581174.628    22581178.559
  24404075.493    -2998351.44349  -2315334.44745  24404075.081    24404081.867
  20722513.261   -24881827.00849 -18864321.10947  20722512.523    20722516.735
  22768271.931   -14266752.42149 -10820902.63946  22768271.753    22768276.822
  20776046.125   -25864770.82349 -20137742.70947  20776045.483    20776049.763
  21135134.769   -19459708.52849 -15144920.99947  21135134.231    21135138.168
  23602781.941    -8912878.05449  -6711415.40445  23602781.534    23602786.877
  24442927.775    -3448510.28649  -2678248.05945  24442927.853    24442931.944
  24005559.618    -8296859.48549  -6267422.61745  24005559.147    24005564.350
  20475893.060   -24279433.88949 -18908943.98148  20475892.625    20475895.422
 03  2 26  1 36 30.0000000  0 10G26G14G15G 6G17G23G 3G29G16G18
  22595918.729   -12677341.37849  -9868755.44246  22595918.721    22595922.737
  24382483.546    -3111817.35949  -2403749.24345  24382483.138    24382489.725
  20715537.944   -24918482.54449 -18892883.83547  20715537.202    20715541.386
  22787410.577   -14166178.44749 -10742533.33946  22787410.374    22787415.401
  20777575.722   -25856732.45149 -20131479.00747  20777575.084    20777579.366
  21143324.426   -19416671.62249 -15111385.72547  21143323.862    21143327.799
  23586167.498    -9000187.15049  -6779448.37945  23586167.127    23586172.468
  24459560.306    -3361106.02149  -2610140.80445  24459560.269    24459564.453
  24014028.828    -8252353.50349  -6232742.66545  24014028.315    24014033.547
  20474393.063   -24287316.39649 -18915086.16348  20474392.623    20474395.396
 03  2 26  1 37  0.0000000  0 10G26G14G15G 6G17G23G 3G29G16G18
  22610753.624   -12599383.25049  -9808008.83146  22610753.611    22610757.640
  24360897.006    -3225254.48449  -2492141.62445  24360896.573    24360903.175
  20708602.603   -24954927.96849 -18921282.83747  20708601.873    20708606.023
  22806594.210   -14065368.16549 -10663979.90446  22806593.953    22806598.997
  20779151.686   -25848450.68249 -20125025.65547  20779151.043    20779155.317
  21151555.311   -19373417.91849 -15077681.51947  21151554.773    21151558.708
  23569608.387    -9087205.78249  -6847255.03245  23569608.030    23569613.246
  24476245.413    -3273425.23049  -2541818.08545  24476245.318    24476249.598
  24022565.447    -8207493.38449  -6197786.77445  24022565.074    24022570.173
  20472961.946   -24294836.91749 -18920946.28648  20472961.504    20472964.249
 03  2 26  1 37 30.0000000  0 10G26G14G15G 6G17G23G 3G29G16G18
  22625679.059   -12520949.47649  -9746891.58546  22625679.048    22625683.061
  24339316.755    -3338658.84349  -2580508.47745  24339316.392    24339322.702
  20701707.676   -24991160.93949 -18949516.29247  20701706.937    20701711.075
  22825822.558   -13964322.74849 -10585243.24646  22825822.302    22825827.333
  20780774.434   -25839923.09249 -20118380.75247  20780773.790    20780778.038
  21159827.399   -19329947.82649 -15043808.70247  21159826.847    21159830.744
  23553105.152    -9173930.36449  -6914832.55945  23553104.835    23553109.969
  24492982.879    -3185469.19849  -2473280.89245  24492982.781    24492987.045
  24031169.221    -8162280.45849  -6162555.94445  24031168.768    24031173.947
  20471599.768   -24301995.19349 -18926524.13648  20471599.317    20471602.047
 03  2 26  1 38  0.0000000  0 10G26G14G15G 6G17G23G 3G29G16G18
  22640694.333   -12442043.70449  -9685406.54246  22640694.343    22640698.287
  24317743.002    -3452029.08949  -2668848.71445  24317742.568    24317748.864
  20694853.165   -25027181.37349 -18977584.12847  20694852.442    20694856.573
  22845094.978   -13863045.51849 -10506325.95146  22845094.760    22845099.760
  20782443.891   -25831150.05349 -20111544.59347  20782443.234    20782447.464
  21168140.157   -19286263.97049 -15009769.31247  21168139.602    21168143.471
  23536658.113    -9260359.49949  -6982179.85845  23536657.821    23536662.850
  24509772.166    -3097241.40849  -2404531.92345  24509771.968    24509776.260
  24039839.376    -8116718.32649  -6127053.01345  24039838.905    24039844.135
  20470306.129   -24308793.14049 -18931821.21048  20470305.692    20470308.396
 03  2 26  1 38 30.0000000  0 10G26G14G15G 6G17G23G 3G29G16G18
  22655798.998   -12362668.18749  -9623555.46946  22655798.987    22655802.915
  24296176.268    -3565361.70849  -2757159.64245  24296175.837    24296182.202
  20688039.475   -25062987.54149 -19005485.00047  20688038.729    20688042.855
  22864411.200   -13761538.25149 -10427229.40846  22864410.987    22864415.914
  20784160.304   -25822129.97149 -20104515.92747  20784159.666    20784163.898
  21176493.396   -19242367.39149 -14975564.16347  21176492.839    21176496.695
  23520267.977    -9346489.90649  -7049294.37145  23520267.658    23520272.685
  24526612.828    -3008743.51849  -2335572.49545  24526612.550    24526616.821
  24048575.828    -8070808.71749  -6091279.32445  24048575.437    24048580.473
  20469081.022   -24315231.01749 -18936837.71048  20469080.590    20469083.291
 03  2 26  1 39  0.0000000  0 10G26G14G15G 6G17G23G 3G29G16G18
  22670992.361   -12282826.72349  -9561341.32046  22670992.328    22670996.210
  24274617.004    -3678655.14049  -2845440.02545  24274616.614    24274622.921
  20681266.525   -25098579.39849 -19033218.88047  20681265.788    20681269.923
  22883770.513   -13659804.44649 -10347956.35746  22883770.305    22883775.249
  20785923.671   -25812863.16749 -20097295.01447  20785923.055    20785927.299
  21184886.554   -19198261.05949 -14941195.57347  21184886.019    21184889.848
  23503934.997    -9432320.04149  -7116174.92245  23503934.615    23503939.672
  24543504.076    -2919979.27649  -2266405.52345  24543503.816    24543508.107
  24057377.568    -8024555.25149  -6055237.69545  24057377.134    24057382.199
  20467924.094   -24321310.72649 -18941575.11648  20467923.651    20467926.356
 03  2 26  1 39 30.0000000  0 10G26G14G15G 6G17G23G 3G29G16G18
  22686274.014   -12202521.18349  -9498765.54646  22686273.990    22686277.794
  24253065.891    -3791905.92249  -2933687.17645  24253065.622    24253071.658
  20674534.820   -25133954.73049 -19060784.03647  20674534.088    20674538.188
  22903172.704   -13557845.52149 -10268507.87746  22903172.484    22903177.446
  20787734.391   -25803347.68849 -20089880.32147  20787733.751    20787738.018
  21193319.457   -19153945.72649 -14906664.12547  21193318.911    21193322.753
  23487659.861    -9517846.43049  -7182818.79245  23487659.452    23487664.473
  24560445.666    -2830950.30749  -2197032.27245  24560445.378    24560449.706
  24066244.456    -7977959.81749  -6018929.59845  24066244.106    24066249.139
  20466835.232   -24327032.51349 -18946033.62148  20466834.795    20466837.515
 03  2 26  1 40  0.0000000  0 10G26G14G15G 6G17G23G 3G29G16G18
  22701643.416   -12121754.16949  -9435830.18846  22701643.429    22701647.249
  24231523.516    -3905111.09449  -3021898.77945  24231523.346    24231529.262
  20667844.548   -25169112.21249 -19088179.43547  20667843.809    20667847.880
  22922617.325   -13455663.67149 -10188885.67746  22922617.102    22922622.081
  20789592.702   -25793582.14949 -20082270.77647  20789592.055    20789596.304
  21201791.869   -19109422.94149 -14871971.02347  21201791.305    21201795.150
  23471443.073    -9603066.62949  -7249224.07245  23471442.638    23471447.551
  24577437.190    -2741658.71749  -2127454.37145  24577436.974    24577441.279
  24075175.924    -7931024.57049  -5982356.69045  24075175.583    24075180.702
  20465814.355   -24332397.08849 -18950213.78148  20465813.922    20465816.623
 03  2 26  1 40 30.0000000  0 10G26G14G15G 6G17G23G 3G29G16G18
  22717099.959   -12040529.22149  -9372538.00646  22717099.988    22717103.802
  24209990.226    -4018268.98549  -3110073.55445  24209989.763    24209995.775
  20661195.762   -25204051.69049 -19115404.96947  20661195.013    20661199.074
  22942103.695   -13353262.04549 -10109092.22346  22942103.482    22942108.484
  20791498.561   -25783566.90449 -20074466.66647  20791497.896    20791502.145
  21210303.256   -19064695.10249 -14837118.14247  21210302.703    21210306.543
  23455284.748    -9687978.94249  -7315389.43346  23455284.315    23455289.261
  24594478.089    -2652107.74449  -2057674.35945  24594477.887    24594482.201
  24084171.401    -7883752.99049  -5945521.71145  24084171.025    24084176.217
  20464861.097   -24337406.32949 -18954117.05748  20464860.652    20464863.376
 03  2 26  1 41  0.0000000  0 10G26G14G15G 6G17G23G 3G29G16G18
  22732643.342   -11958848.39849  -9308890.59546  22732643.349    22732647.132
  24188466.512    -4131376.04249  -3198208.70345  24188466.164    24188472.190
  20654588.748   -25238771.48349 -19142459.31647  20654588.016    20654592.073
  22961631.545   -13250642.36649 -10029128.86046  22961631.383    22961636.432
  20793452.215   -25773300.13549 -20066466.56847  20793451.573    20793455.817
  21218853.508   -19019763.18649 -14802106.23647  21218852.944    21218856.777
  23439185.581    -9772580.13649  -7381312.36746  23439185.120    23439190.096
  24611567.947    -2562299.28149  -1987693.70645  24611567.867    24611572.164
  24093230.619    -7836146.91349  -5908426.10245  24093230.224    24093235.480
  20463975.387   -24342060.55149 -18957743.69648  20463974.955    20463977.677
 03  2 26  1 41 30.0000000  0 10G26G14G15G 6G17G23G 3G29G16G18
  22748272.805   -11876715.00949  -9244890.52546  22748272.808    22748276.592
  24166952.801    -4244430.31249  -3286302.72545  24166952.437    24166958.504
  20648023.717   -25273270.73849 -19169341.81447  20648023.001    20648027.044
  22981200.411   -13147807.46649  -9948997.79446  22981200.176    22981205.315
  20795453.917   -25762781.06149 -20058269.86447  20795453.257    20795457.499
  21227442.120   -18974629.38249 -14766937.01547  21227441.578    21227445.415
  23423145.903    -9856868.46149  -7446991.52346  23423145.504    23423150.533
  24628706.308    -2472236.40949  -1917514.82045  24628706.082    24628710.534
  24102352.786    -7788209.59249  -5871072.37645  24102352.419    24102357.690
  20463157.024   -24346361.13449 -18961094.77248  20463156.581    20463159.281
 03  2 26  1 42  0.0000000  0 10G26G14G15G 6G17G23G 3G29G16G18
  22763987.723   -11794132.40449  -9180540.42046  22763987.759    22763991.527
  24145449.645    -4357429.21449  -3374353.61645  24145449.253    24145455.276
  20641500.850   -25307548.58149 -19196051.78147  20641500.137    20641504.135
  23000809.683   -13044760.09349  -9868701.16846  23000809.471    23000814.606
  20797503.777   -25752008.77149 -20049875.84347  20797503.128    20797507.347
  21236068.765   -18929295.81849 -14731612.13647  21236068.226    21236072.106
  23407166.266    -9940841.53849  -7512425.01846  23407165.916    23407170.942
  24645892.586    -2381921.60049  -1847139.62745  24645892.424    24645896.792
  24111537.521    -7739943.80649  -5833462.68545  24111537.139    24111542.404
  20462405.672   -24350309.31349 -18964171.24448  20462405.222    20462407.908
 03  2 26  1 42 30.0000000  0 10G26G14G15G 6G17G23G 3G29G16G18
  22779787.789   -11711102.32249  -9115841.63746  22779787.831    22779791.592
  24123957.583    -4470369.69549  -3462358.97045  24123957.192    24123963.275
  20635020.552   -25341602.90349 -19222587.57747  20635019.813    20635023.814
  23020459.116   -12941501.87949  -9788240.24746  23020458.878    23020464.082
  20799602.010   -25740982.40849 -20041283.84947  20799601.356    20799605.568
  21244733.296   -18883763.34349 -14696132.26147  21244732.758    21244736.625
  23391247.182   -10024496.30249  -7577610.46746  23391246.817    23391251.899
  24663126.481    -2291356.81049  -1776569.63445  24663126.293    24663130.702
  24120784.440    -7691351.34649  -5795598.46945  24120784.009    24120789.269
  20461721.374   -24353905.21749 -18966973.21948  20461720.935    20461723.616
 03  2 26  1 43  0.0000000  0 10G26G14G15G 6G17G23G 3G29G16G18
  22795672.432   -11627628.01449  -9050796.68946  22795672.464    22795676.223
  24102477.129    -4583248.90649  -3550316.55645  24102476.743    24102482.858
  20628582.848   -25375433.00249 -19248948.65547  20628582.120    20628586.111
  23040148.090   -12838035.53749  -9707617.16346  23040147.838    23040153.085
  20801748.771   -25729700.90649 -20032493.03647  20801748.120    20801752.323
  21253435.345   -18838033.79349 -14660498.82547  21253434.793    21253438.647
  23375389.140   -10107830.33449  -7642546.01546  23375388.854    23375393.896
  24680407.433    -2200544.74849  -1705806.97245  24680407.420    24680411.627
  24130092.803    -7642435.15649  -5757481.95745  24130092.415    24130097.733
  20461103.905   -24357150.07349 -18969501.65048  20461103.463    20461106.122
 03  2 26  1 43 30.0000000  0 10G26G14G15G 6G17G23G 3G29G16G18
  22811641.000   -11543712.60249  -8985408.03446  22811641.019    22811644.772
  24081008.758    -4696064.54649  -3638224.64445  24081008.425    24081014.402
  20622188.018   -25409038.01149 -19275134.33747  20622187.297    20622191.272
  23059876.193   -12734363.72949  -9626833.96046  23059875.940    23059881.234
  20803944.264   -25718163.63849 -20023502.93147  20803943.620    20803947.794
  21262174.506   -18792109.00949 -14624713.25547  21262173.953    21262177.801
  23359592.606   -10190841.39349  -7707229.89746  23359592.381    23359597.392
  24697734.971    -2109488.15649  -1634853.76745  24697734.983    24697739.137
  24139462.305    -7593198.10049  -5719115.48045  24139461.888    24139467.309
  20460552.928   -24360045.29649 -18971757.64148  20460552.494    20460555.137
 03  2 26  1 44  0.0000000  0 10G26G14G15G 6G17G23G 3G29G16G18
  22827692.929   -11459358.81849  -8919677.78546  22827692.957    22827696.688
  24059553.069    -4808814.24649  -3726081.35445  24059552.728    24059558.584
  20615836.190   -25442417.04749 -19301143.94247  20615835.454    20615839.410
  23079642.864   -12630489.07549  -9545892.69746  23079642.626    23079647.951
  20806188.555   -25706369.88049 -20014312.97047  20806187.886    20806192.049
  21270950.436   -18745990.88049 -14588777.03247  21270949.888    21270953.759
  23343857.989   -10273527.06049  -7771660.21746  23343857.654    23343862.776
  24715108.565    -2018189.42749  -1563711.87445  24715108.497    24715112.610
  24148892.281    -7543643.16049  -5680501.24745  24148891.851    24148897.324
  20460068.265   -24362592.22749 -18973742.23748  20460067.820    20460070.469
 03  2 26  1 44 30.0000000  0 10G26G14G15G 6G17G23G 3G29G16G18
  22843827.673   -11374569.83549  -8853608.41846  22843827.707    22843831.485
  24038110.505    -4921495.24349  -3813884.52645  24038110.133    24038115.909
  20609527.571   -25475568.87749 -19326976.49947  20609526.832    20609530.794
  23099447.678   -12526413.87949  -9464795.16146  23099447.445    23099452.816
  20808481.832   -25694318.51649 -20004922.26747  20808481.158    20808485.293
  21279762.859   -18699680.98149 -14552691.37447  21279762.327    21279766.214
  23328185.648   -10355885.05449  -7835835.19846  23328185.314    23328190.467
  24732527.673    -1926651.33049  -1492383.47145  24732527.568    24732531.698
  24158382.369    -7493772.64849  -5641641.13645  24158381.920    24158387.442
  20459649.736   -24364791.53849 -18975455.95748  20459649.280    20459651.937
 03  2 26  1 45  0.0000000  0 10G26G14G15G 6G17G23G 3G29G16G18
  22860044.902   -11289347.77349  -8787201.58646  22860044.891    22860048.688
  24016681.735    -5034104.23549  -3901631.62145  24016681.348    24016686.978
  20603262.506   -25508491.73349 -19352630.63947  20603261.769    20603265.722
  23119290.361   -12422140.11349  -9383542.88046  23119290.119    23119295.541
  20810824.366   -25682008.04149 -19995329.66847  20810823.727    20810827.861
  21288611.571   -18653180.62049 -14516457.30247  21288611.031    21288614.934
  23312576.388   -10437912.28749  -7899752.46646  23312576.029    23312581.100
  24749991.851    -1834875.62149  -1420869.89745  24749991.816    24749995.900
  24167932.016    -7443588.72149  -5602536.81045  24167931.609    24167937.173
  20459297.177   -24366643.99449 -18976899.40348  20459296.724    20459299.375
 03  2 26  1 45 30.0000000  0 10G26G14G15G 6G17G23G 3G29G16G18
  22876343.706   -11203696.18449  -8720460.07346  22876343.807    22876347.534
  23995266.971    -5146639.29749  -3989321.12845  23995266.573    23995272.000
  20597041.159   -25541184.97349 -19378105.85947  20597040.426    20597044.382
  23139170.271   -12317670.60649  -9302138.10346  23139170.026    23139175.467
  20813216.418   -25669437.79149 -19985534.65247  20813215.781    20813219.900
  21297496.111   -18606492.02249 -14480076.55747  21297495.561    21297499.460
  23297030.395   -10519606.95649  -7963410.58846  23297030.062    23297035.085
  24767500.794    -1742865.37949  -1349173.58645  24767500.747    24767504.812
  24177540.655    -7393094.79149  -5563190.89745  24177540.307    24177545.794
  20459010.435   -24368150.95049 -18978073.62848  20459009.972    20459012.610
 03  2 26  1 46  0.0000000  0 10G26G14G15G 6G17G23G 3G29G16G18
  22892723.765   -11117618.17049  -8653386.26946  22892723.907    22892727.576
  23973866.624    -5259097.83649  -4076950.98045  23973866.278    23973871.629
  20590863.691   -25573647.60549 -19403401.38247  20590862.972    20590866.910
  23159086.899   -12213008.02749  -9220582.86346  23159086.658    23159092.104
  20815657.924   -25656607.63949 -19975537.09647  20815657.290    20815661.369
  21306416.096   -18559616.97549 -14443550.51647  21306415.546    21306419.432
  23281548.157   -10600966.63549  -8026807.67446  23281547.880    23281552.770
  24785053.827    -1650623.37249  -1277296.66945  24785053.615    24785057.656
  24187207.898    -7342293.77949  -5523605.73145  24187207.425    24187213.025
  20458789.113   -24369313.74649 -18978979.67048  20458788.655    20458791.286
 03  2 26  1 46 30.0000000  0 10G26G14G15G 6G17G23G 3G29G16G18
  22909184.567   -11031116.51449  -8585982.35246  22909184.562    22909188.283
  23952481.345    -5371477.07949  -4164519.06545  23952481.133    23952486.417
  20584730.403   -25605878.28849 -19428516.16748  20584729.668    20584733.612
  23179039.833   -12108154.71549  -9138878.99746  23179039.585    23179045.031
  20818149.090   -25643516.46049 -19965336.15147  20818148.446    20818152.517
  21315371.315   -18512556.96949 -14406880.36047  21315370.746    21315374.645
  23266130.167   -10681988.82749  -8089941.77446  23266129.834    23266134.737
  24802650.578    -1558151.96649  -1205241.00045  24802650.263    24802654.243
  24196933.021    -7291188.28549  -5483783.28345  24196932.552    24196938.089
  20458633.112   -24370133.40849 -18979618.33948  20458632.663    20458635.280
 03  2 26  1 47  0.0000000  0 10G26G14G15G 6G17G23G 3G29G16G18
  22925725.410   -10944193.57249  -8518250.16746  22925725.441    22925729.151
  23931111.826    -5483773.78949  -4252022.82945  23931111.537    23931116.876
  20578641.528   -25637875.34349 -19453448.90548  20578640.793    20578644.719
  23199028.709   -12003112.58849  -9057028.00345  23199028.457    23199033.878
  20820690.249   -25630162.48149 -19954930.43047  20820689.597    20820693.648
  21324361.486   -18465313.18249 -14370066.99547  21324360.932    21324364.811
  23250776.900   -10762670.67549  -8152810.68246  23250776.512    23250781.464
  24820290.560    -1465453.14049  -1133008.12145  24820290.411    24820294.333
  24206715.660    -7239780.30949  -5443725.16545  24206715.110    24206720.703
  20458542.381   -24370610.18949 -18979989.82948  20458541.926    20458544.526
 03  2 26  1 47 30.0000000  0 10G26G14G15G 6G17G23G 3G29G16G18
  22942345.730   -10856853.03149  -8450192.57746  22942345.774    22942349.492
  23909758.404    -5595986.05149  -4339460.78845  23909758.079    23909763.374
  20572597.252   -25669638.21449 -19478199.16348  20572596.518    20572600.440
  23219052.876   -11897884.85449  -8975032.36645  23219052.724    23219058.035
  20823281.474   -25616545.30149 -19944319.61547  20823280.823    20823284.873
  21333386.169   -18417888.01549 -14333112.29547  21333385.624    21333389.491
  23235488.659   -10843010.42149  -8215413.01046  23235488.296    23235493.211
  24837973.264    -1372530.03149  -1060600.46745  24837973.319    24837976.858
  24216555.260    -7188073.37049  -5403434.04545  24216554.728    24216560.101
  20458516.521   -24370745.96949 -18980095.59948  20458516.064    20458518.659
 03  2 26  1 48  0.0000000  0 10G26G14G15G 6G17G23G 3G29G16G18
  22959045.232   -10769096.85149  -8381811.12246  22959045.224    22959048.860
  23888421.722    -5708110.42949  -4426830.28145  23888421.460    23888426.729
  20566597.910   -25701164.80549 -19502765.30648  20566597.181    20566601.063
  23239112.135   -11792473.17149  -8892893.41345  23239111.887    23239117.217
  20825923.029   -25602663.68249 -19933502.74247  20825922.384    20825926.430
  21342445.251   -18370282.24449 -14296016.86547  21342444.713    21342448.530
  23220266.147   -10923005.03849  -8277746.41246  23220265.814    23220270.666
  24855698.425    -1279384.22649   -988019.28445  24855698.388    24855701.888
  24226451.345    -7136069.37849  -5362911.47945  24226450.827    24226456.206
  20458555.477   -24370541.12949 -18979935.95448  20458555.027    20458557.601
 03  2 26  1 48 30.0000000  0 10G26G14G15G 6G17G23G 3G29G16G18
  22975822.990   -10680929.14249  -8313108.99146  22975822.998    22975826.572
  23867102.088    -5820145.27949  -4514129.97745  23867101.840    23867107.069
  20560643.546   -25732455.17349 -19527147.38148  20560642.813    20560646.681
  23259205.597   -11686880.87149  -8810613.70245  23259205.337    23259210.753
  20828614.951   -25588517.44749 -19922479.67847  20828614.310    20828618.328
  21351538.199   -18322498.51349 -14258782.76147  21351537.658    21351541.459
  23205109.710   -11002652.88649  -8339809.59446  23205109.377    23205114.129
  24873465.170    -1186019.29549   -915267.35845  24873465.048    24873468.595
  24236403.077    -7083772.31549  -5322160.55745  24236402.597    24236408.073
  20458658.852   -24369997.63649 -18979512.41648  20458658.406    20458660.989
 03  2 26  1 49  0.0000000  0 10G26G14G15G 6G17G23G 3G29G16G18
  22992678.673   -10592352.20549  -8244087.97446  22992678.670    22992682.209
  23845800.105    -5932087.11549  -4601357.18545  23845799.907    23845805.107
  20554734.458   -25763507.50749 -19551343.97848  20554733.724    20554737.594
  23279333.082   -11581109.89149  -8728194.76945  23279332.894    23279338.318
  20831357.443   -25574105.65349 -19911249.68347  20831356.792    20831360.806
  21360664.776   -18274537.94849 -14221410.87147  21360664.230    21360668.008
  23190019.839   -11081951.02549  -8401600.28246  23190019.493    23190024.094
  24891273.201    -1092437.30349   -842346.30245  24891272.980    24891276.719
  24246410.215    -7031184.29949  -5281182.89145  24246409.730    24246415.175
  20458826.558   -24369116.18349 -18978825.53948  20458826.129    20458828.676
 03  2 26  1 49 30.0000000  0  9G26G14G15G 6G17G23G 3G16G18
  23009612.009   -10503366.97949  -8174748.82046  23009611.997    23009615.536
  23824516.808    -6043931.44649  -4688508.44645  23824516.451    23824521.683
  20548871.272   -25794318.53949 -19575352.54748  20548870.553    20548874.393
  23299494.490   -11475160.66149  -8645636.94245  23299494.376    23299499.740
  20834151.147   -25559424.46849 -19899809.77047  20834150.508    20834154.532
  21369825.104   -18226400.08549 -14183900.82247  21369824.558    21369828.313
  23174997.250   -11160895.07149  -8463115.03746  23174996.914    23175001.469
  24256472.626    -6978305.74349  -5239978.84045  24256472.124    24256477.692
  20459058.761   -24367895.79449 -18977874.55348  20459058.319    20459060.873
 03  2 26  1 50  0.0000000  0  9G26G14G15G 6G17G23G 3G16G18
  23026621.940   -10413979.13249  -8105095.92346  23026621.962    23026625.464
  23803251.960    -6155678.35249  -4775583.76745  23803251.641    23803256.782
  20543053.707   -25824890.07349 -19599174.49448  20543052.960    20543056.810
  23319688.873   -11369038.43149  -8562944.31845  23319688.735    23319694.203
  20836995.663   -25544476.18449 -19888161.73247  20836995.019    20836999.069
  21379018.369   -18178089.25149 -14146255.99347  21379017.814    21379021.554
  23160041.934   -11239485.27249  -8524354.08546  23160041.587    23160046.177
  24266589.236    -6925142.37849  -5198552.86645  24266588.780    24266594.381
  20459354.754   -24366340.17649 -18976662.35148  20459354.314    20459356.847
 03  2 26  1 50 30.0000000  0  9G26G14G15G 6G17G23G 3G16G18
  23043707.912   -10324191.27349  -8035131.34146  23043707.972    23043711.495
  23782006.286    -6267324.65549  -4862580.69145  23782006.020    23782011.011
  20537282.014   -25855220.32349 -19622808.42548  20537281.276    20537285.149
  23339915.853   -11262745.13149  -8480118.39845  23339915.712    23339921.262
  20839891.226   -25529259.52449 -19876304.57147  20839890.624    20839894.678
  21388244.289   -18129606.58849 -14108477.27147  21388243.757    21388247.450
  23145154.500   -11317718.74549  -8585315.14446  23145154.143    23145158.749
  24276759.656    -6871696.48849  -5156906.76145  24276759.189    24276764.696
  20459714.442   -24364449.99149 -18975189.44648  20459713.985    20459716.522
 03  2 26  1 51  0.0000000  0  9G26G14G15G 6G17G23G 3G16G18
  23060869.410   -10234006.74349  -7964857.65846  23060869.483    23060873.028
  23760780.122    -6378868.15349  -4949497.50745  23760779.806    23760784.729
  20531556.387   -25885308.37949 -19646253.63348  20531555.670    20531559.542
  23360174.804   -11156283.79549  -8397161.54845  23360174.677    23360180.175
  20842838.080   -25513773.58949 -19864237.58747  20842837.474    20842841.497
  21397502.550   -18080954.12149 -14070566.23647  21397502.008    21397505.705
  23130335.335   -11395593.73549  -8645996.88246  23130334.963    23130339.569
  24286983.333    -6817971.08949  -5115042.82645  24286982.842    24286988.313
  20460137.450   -24362226.99349 -18973457.20448  20460136.992    20460139.532
 03  2 26  1 51 30.0000000  0  9G26G14G15G 6G17G23G 3G16G18
  23078106.070   -10143427.57349  -7894276.46146  23078106.150    23078109.685
  23739574.146    -6490305.12049  -5036331.31345  23739573.796    23739578.909
  20525877.280   -25915152.04549 -19669508.41048  20525876.551    20525880.442
  23380465.398   -11049656.00449  -8314074.97245  23380465.291    23380470.840
  20845836.464   -25498016.88749 -19851959.62047  20845835.828    20845839.884
  21406792.988   -18032132.56549 -14032523.44547  21406792.436    21406796.110
  23115585.004   -11473106.80249  -8706396.60046  23115584.674    23115589.259
  24297259.660    -6763968.29949  -5072962.76745  24297259.227    24297264.690
  20460623.827   -24359670.90749 -18971465.41848  20460623.365    20460625.884
 03  2 26  1 52  0.0000000  0  9G26G14G15G 6G17G23G 3G16G18
  23095417.096   -10052457.41349  -7823390.61346  23095417.225    23095420.735
  23718388.940    -6601633.35449  -5123080.37245  23718388.572    23718393.708
  20520244.822   -25944750.71849 -19692572.28048  20520244.111    20520247.989
  23400787.062   -10942864.77949  -8230861.08145  23400786.943    23400792.643
  20848886.409   -25481989.15449 -19839470.45547  20848885.777    20848889.843
  21416115.142   -17983144.14049 -13994350.62447  21416114.602    21416118.271
  23100903.874   -11550256.16349  -8766512.89246  23100903.527    23100908.158
  24307588.222    -6709691.42649  -5030669.13245  24307587.787    24307593.214
  20461173.237   -24356783.63549 -18969215.56048  20461172.775    20461175.273
 03  2 26  1 52 30.0000000  0  9G26G14G15G 6G17G23G 3G16G18
  23112801.996    -9961099.31549  -7752202.46146  23112802.050    23112805.613
  23697224.801    -6712850.76749  -5209743.08445  23697224.413    23697229.525
  20514659.161   -25974103.53749 -19715444.58048  20514658.447    20514662.309
  23421139.332   -10835912.88049  -8147521.95545  23421139.143    23421144.924
  20851988.097   -25465689.60549 -19826769.48347  20851987.460    20851991.530
  21425468.751   -17933990.63249 -13956049.16847  21425468.187    21425471.838
  23086292.390   -11627039.55249  -8826344.02446  23086292.033    23086296.664
  24317968.368    -6655143.58049  -4988164.36145  24317967.962    24317973.398
  20461785.357   -24353566.75949 -18966708.87348  20461784.911    20461787.380
 03  2 26  1 53  0.0000000  0  9G26G14G15G 6G17G23G 3G16G18
  23130260.267    -9869355.55449  -7680713.79546  23130260.244    23130263.850
  23676082.468    -6823953.55049  -5296316.50245  23676082.070    23676087.214
  20509120.701   -26003208.30149 -19738123.58448  20509119.982    20509123.831
  23441521.897   -10728801.81649  -8064058.82345  23441521.713    23441527.514
  20855141.894   -25449116.37549 -19813855.25647  20855141.246    20855145.308
  21434853.616   -17884672.65849 -13917619.55647  21434853.070    21434856.730
  23071751.135   -11703453.75149  -8885887.48546  23071750.799    23071755.413
  24328399.582    -6600326.51349  -4945449.80245  24328399.101    24328404.745
  20462460.191   -24350020.31349 -18963945.37548  20462459.744    20462462.209
 03  2 26  1 53 30.0000000  0  9G26G14G15G 6G17G23G 3G16G18
  23147791.192    -9777229.54649  -7608927.27445  23147791.167    23147794.794
  23654962.360    -6934939.61749  -5382798.97545  23654961.931    23654967.029
  20503629.562   -26032064.48949 -19760608.89348  20503628.833    20503632.662
  23461934.162   -10621534.59849  -7980473.99845  23461934.051    23461939.764
  20858347.822   -25432268.93149 -19800727.35547  20858347.187    20858351.217
  21444269.350   -17835192.41349 -13879063.50047  21444268.812    21444272.486
  23057280.472   -11779497.12949  -8945141.99146  23057280.117    23057284.753
  24338881.505    -6545243.68149  -4902528.16145  24338881.093    24338886.693
  20463197.496   -24346145.80449 -18960926.24748  20463197.043    20463199.490
 03  2 26  1 54  0.0000000  0  9G26G14G15G 6G17G23G 3G16G18
  23165394.281    -9684724.53949  -7536845.42545  23165394.261    23165397.879
  23633865.047    -7045806.30449  -5469188.45745  23633864.576    23633869.590
  20498185.911   -26060670.93749 -19782899.59948  20498185.182    20498189.028
  23482375.617   -10514113.87749  -7896769.57245  23482375.540    23482381.212
  20861606.081   -25415146.55649 -19787385.22847  20861605.451    20861609.473
  21453715.652   -17785551.69349 -13840382.40047  21453715.122    21453718.813
  23042880.778   -11855167.41849  -9004105.77546  23042880.456    23042885.087
  24349413.468    -6489897.98749  -4859401.66245  24349412.992    24349418.653
  20463996.872   -24341944.79549 -18957652.70448  20463996.410    20463998.851
 03  2 26  1 54 30.0000000  0  9G26G14G15G 6G17G23G 3G16G18
  23183068.986    -9591843.30849  -7464470.43345  23183068.966    23183072.576
  23612790.935    -7156550.97749  -5555482.86345  23612790.436    23612795.303
  20492790.062   -26089026.03149 -19804994.44748  20492789.337    20492793.205
  23502845.854   -10406541.82049  -7812947.23545  23502845.779    23502851.583
  20864916.936   -25397748.01549 -19773827.90247  20864916.309    20864920.302
  21463192.209   -17735751.76149 -13801577.23547  21463191.692    21463195.382
  23028552.578   -11930462.24249  -9062776.97746  23028552.245    23028556.888
  24359994.951    -6434292.03149  -4816072.34545  24359994.557    24360000.005
  20464858.274   -24337418.08649 -18954125.37348  20464857.814    20464860.255
 03  2 26  1 55  0.0000000  0  9G26G14G15G 6G17G23G 3G16G18
  23200814.795    -9498588.24149  -7391804.13445  23200814.750    23200818.400
  23591740.638    -7267170.30249  -5641679.61945  23591740.149    23591744.966
  20487442.336   -26117128.15749 -19826892.17748  20487441.629    20487445.511
  23523344.616   -10298820.38949  -7729008.48645  23523344.537    23523350.288
  20868280.517   -25380072.21749 -19760054.53747  20868279.870    20868283.877
  21472698.880   -17685793.77249 -13762648.91247  21472698.350    21472702.046
  23014296.350   -12005378.59749  -9121153.27846  23014296.005    23014300.650
  24370625.598    -6378428.16249  -4772542.08245  24370625.157    24370630.515
  20465781.536   -24332566.16849 -18950344.63248  20465781.085    20465783.540
 03  2 26  1 55 30.0000000  0  9G26G14G15G 6G17G23G 3G16G18
  23218631.008    -9404963.38849  -7318849.68345  23218630.936    23218634.646
  23570714.449    -7377662.69649  -5727777.45245  23570714.004    23570718.782
  20482142.868   -26144976.87749 -19848592.44448  20482142.158    20482146.015
  23543871.148   -10190952.99649  -7644955.99945  23543871.097    23543876.800
  20871696.809   -25362119.30749 -19746065.23547  20871696.165    20871700.148
  21482235.175   -17635680.13249 -13723599.30647  21482234.638    21482238.316
  23000112.522   -12079914.96249  -9179233.48846  23000112.174    23000116.733
  24381304.497    -6322310.06249  -4728813.72245  24381304.054    24381309.670
  20466766.203   -24327391.51749 -18946312.41048  20466765.743    20466768.184
 03  2 26  1 56  0.0000000  0  9G26G14G15G 6G17G23G 3G16G18
  23236517.071    -9310971.37649  -7245609.13545  23236517.064    23236520.736
  23549713.083    -7488024.85749  -5813773.81745  23549712.674    23549717.493
  20476891.959   -26172570.57149 -19870093.99148  20476891.233    20476895.099
  23564425.079   -10082941.67449  -7560791.37745  23564425.078    23564430.693
  20875166.186   -25343887.71649 -19731858.77647  20875165.554    20875169.490
  21491800.874   -17585412.00349 -13684429.31247  21491800.326    21491804.001
  22986001.439   -12154068.85949  -9237015.66646  22986001.103    22986005.647
  24392031.374    -6265940.35849  -4684889.30445  24392031.068    24392036.436
  20467812.231   -24321894.50649 -18942028.99748  20467811.789    20467814.220
 03  2 26  1 56 30.0000000  0  9G26G14G15G 6G17G23G 3G16G18
  23254472.324    -9216616.07249  -7172085.48745  23254472.244    23254475.969
  23528736.808    -7598254.95349  -5899667.27445  23528736.445    23528741.299
  20471689.578   -26199909.05349 -19891396.67348  20471688.855    20471692.719
  23585005.759    -9974790.01349  -7476517.37745  23585005.720    23585011.371
  20878688.513   -25325377.61749 -19717435.29847  20878687.865    20878691.788
  21501395.426   -17534992.01649 -13645140.98747  21501394.894    21501398.589
  22971963.387   -12227838.86349  -9294498.70646  22971963.061    22971967.636
  24402805.346    -6209322.81749  -4640771.75145  24402805.160    24402810.397
  20468919.205   -24316077.23149 -18937496.02648  20468918.772    20468921.193
 03  2 26  1 57  0.0000000  0  9G26G14G15G 6G17G23G 3G16G18
  23272496.362    -9121898.74849  -7098279.76245  23272496.376    23272500.035
  23507786.479    -7708348.66249  -5985454.42145  23507786.158    23507791.081
  20466536.428   -26226989.00749 -19912497.90348  20466535.692    20466539.538
  23605613.079    -9866498.39149  -7392134.32245  23605613.004    23605618.616
  20882264.425   -25306586.05849 -19702792.49747  20882263.770    20882267.685
  21511019.051   -17484419.53549 -13605733.83847  21511018.532    21511022.228
  22957999.192   -12301220.60649  -9351679.20546  22957998.888    22958003.497
  24413626.360    -6152458.09649  -4596461.59445  24413626.137    24413631.472
  20470087.256   -24309938.99849 -18932712.95848  20470086.814    20470089.209
 03  2 26  1 57 30.0000000  0 10G26G14G15G 6G17G23G 3G 9G16G18
  23290588.601    -9026823.31849  -7024194.99945  23290588.602    23290592.202
  23486862.569    -7818304.06349  -6071133.82645  23486862.224    23486867.126
  20461432.480   -26253810.43349 -19933397.68648  20461431.756    20461435.578
  23626246.391    -9758070.34149  -7307644.94845  23626246.190    23626251.774
  20885893.854   -25287513.12649 -19687930.44647  20885893.207    20885897.123
  21520671.171   -17433697.12549 -13566209.86047  21520670.660    21520674.379
  22944109.184   -12374212.79949  -9408556.16246  22944108.874    22944113.488
  24468431.979     -970181.11249   -743999.88645  24468431.608    24468436.633
  24424493.643    -6095350.35149  -4551962.08845  24424493.245    24424498.899
  20471315.969   -24303482.08049 -18927681.56348  20471315.523    20471317.883
 03  2 26  1 58  0.0000000  0 10G26G14G15G 6G17G23G 3G 9G16G18
  23308748.476    -8931392.75549  -6949833.49745  23308748.469    23308752.081
  23465965.511    -7928118.52849  -6156703.39145  23465965.172    23465970.022
  20456377.985   -26280371.87749 -19954094.88648  20456377.255    20456381.080
  23646905.147    -9649508.35249  -7223051.21945  23646904.938    23646910.422
  20889576.932   -25268158.10149 -19672848.58547  20889576.287    20889580.204
  21530351.559   -17382826.17849 -13526570.13947  21530351.058    21530354.795
  22930293.799   -12446813.03749  -9465127.70146  22930293.478    22930298.033
  24455259.493    -1039402.46549   -797938.49145  24455259.286    24455264.267
  24435406.711    -6038002.10349  -4507275.17245  24435406.301    24435411.899
  20472605.177   -24296707.17749 -18922402.39448  20472604.731    20472607.066
 03  2 26  1 58 30.0000000  0 10G26G14G15G 6G17G23G 3G 9G16G18
  23326975.218    -8835610.50849  -6875197.97045  23326975.191    23326978.824
  23445095.721    -8037789.64849  -6242161.28345  23445095.378    23445100.132
  20451373.112   -26306672.58149 -19974588.90848  20451372.380    20451376.193
  23667588.766    -9540815.36949  -7138355.37345  23667588.500    23667594.008
  20893313.864   -25248520.32549 -19657546.39547  20893313.220    20893317.124
  21540059.850   -17331808.77449 -13486816.29947  21540059.317    21540063.045
  22916553.320   -12519019.53549  -9521392.42346  22916552.980    22916557.518
  24442122.676    -1108436.82949   -851731.39545  24442122.441    24442127.268
  24446364.817    -5980416.77649  -4462403.52245  24446364.314    24446370.129
  20473954.542   -24289616.14449 -18916876.88948  20473954.106    20473956.415
 03  2 26  1 59  0.0000000  0 10G26G14G15G 6G17G23G 3G 9G16G18
  23345268.443    -8739478.67149  -6800290.02045  23345268.457    23345272.129
  23424253.892    -8147313.86349  -6327504.68545  23424253.537    23424258.189
  20446418.305   -26332710.19049 -19994877.92448  20446417.570    20446421.346
  23688297.057    -9431992.78649  -7053558.55945  23688296.822    23688302.258
  20897105.023   -25228597.56849 -19642022.14747  20897104.376    20897108.280
  21549795.914   -17280645.32749 -13446948.65747  21549795.377    21549799.116
  22902888.456   -12590829.01649  -9577347.79646  22902888.120    22902892.567
  24429022.252    -1177279.93849   -905375.27745  24429022.000    24429026.914
  24457367.764    -5922596.39449  -4417348.69645  24457367.217    24457373.029
  20475364.008   -24282209.24749 -18911105.25948  20475363.551    20475365.867
 03  2 26  1 59 30.0000000  0 10G26G14G15G 6G17G23G 3G 9G16G18
  23363627.324    -8643001.74649  -6725113.18545  23363627.328    23363631.047
  23403440.204    -8256690.01249  -6412732.70145  23403439.826    23403444.376
  20441513.500   -26358485.04749 -20014962.19748  20441512.755    20441516.518
  23709029.179    -9323044.66449  -6968663.92845  23709029.030    23709034.377
  20900950.197   -25208390.92149 -19626276.67847  20900949.534    20900953.450
  21559559.142   -17229338.98249 -13406969.65847  21559558.588    21559562.377
  22889299.247   -12662240.90449  -9632993.35546  22889298.859    22889303.247
  24415958.489    -1245929.91249   -958868.66345  24415958.274    24415963.189
  24468414.572    -5864545.33149  -4372114.13045  24468414.069    24468419.835
  20476833.031   -24274489.19749 -18905089.60848  20476832.574    20476834.894
 03  2 26  2  0  0.0000000  0 10G26G14G15G 6G17G23G 3G 9G16G18
  23382051.503    -8546181.83949  -6649669.09645  23382051.513    23382055.209
  23382655.390    -8365914.45949  -6497842.50345  23382654.955    23382659.485
  20436659.180   -26383994.69249 -20034839.81548  20436658.436    20436662.177
  23729784.908    -9213972.40349  -6883672.56745  23729784.792    23729790.048
  20904849.818   -25187898.13249 -19610308.24747  20904849.184    20904853.080
  21569349.534   -17177890.10649 -13366879.60247  21569348.971    21569352.759
  22875786.215   -12733251.79449  -9688326.44546  22875785.873    22875790.240
  24402932.299    -1314382.79549  -1012208.46845  24402932.042    24402936.933
  24479504.895    -5806265.42049  -4326701.23545  24479504.481    24479510.152
  20478361.708   -24266455.86949 -18898829.85148  20478361.246    20478363.577
 03  2 26  2  0 30.0000000  0 10G26G14G15G 6G17G23G 3G 9G16G18
  23400540.451    -8449021.94549  -6573960.06445  23400540.403    23400544.164
  23361899.949    -8474984.42149  -6582831.93945  23361899.463    23361904.009
  20431855.560   -26409237.88649 -20054509.80648  20431854.811    20431858.527
  23750563.725    -9104778.55249  -6798586.45545  23750563.588    23750568.916
  20908804.053   -25167118.46649 -19594116.27447  20908803.417    20908807.313
  21579166.730   -17126300.32149 -13326679.74547  21579166.174    21579169.938
  22862349.932   -12803859.49849  -9743345.37546  22862349.605    22862353.962
  24389944.293    -1382635.03649  -1065391.95345  24389944.113    24389948.880
  24490638.215    -5747759.40949  -4281112.16145  24490637.814    24490643.461
  20479949.714   -24258110.67949 -18892327.08148  20479949.256    20479951.578
 03  2 26  2  1  0.0000000  0 10G26G14G15G 6G17G23G 3G 9G16G18
  23419093.468    -8351524.95749  -6497988.36145  23419093.389    23419097.162
  23341174.513    -8583896.98449  -6667698.74145  23341174.022    23341178.566
  20427102.888   -26434213.19949 -20073971.05648  20427102.152    20427105.853
  23771365.171    -8995465.52249  -6713407.49745  23771365.047    23771370.482
  20912812.981   -25146051.40649 -19577700.35447  20912812.351    20912816.233
  21589010.452   -17074571.01249 -13286371.17047  21589009.900    21589013.641
  22848990.838   -12874061.63649  -9798048.27146  22848990.553    22848994.858
  24376995.020    -1450683.39849  -1118416.56245  24376994.788    24376999.623
  24501814.064    -5689030.21349  -4235349.16945  24501813.638    24501819.287
  20481596.864   -24249454.60649 -18885582.06248  20481596.416    20481598.734
 03  2 26  2  1 30.0000000  0 10G26G14G15G 6G17G23G 3G 9G16G18
  23437709.903    -8253694.72849  -6421756.99745  23437709.930    23437713.597
  23320479.376    -8692650.42149  -6752441.53445  23320478.898    23320483.340
  20422401.297   -26458920.02849 -20093223.09548  20422400.556    20422404.250
  23792188.839    -8886036.74349  -6628138.34845  23792188.711    23792194.039
  20916876.687   -25124696.17049 -19561059.88747  20916876.048    20916879.974
  21598880.344   -17022704.44149 -13245955.63447  21598879.787    21598883.515
  22835709.278   -12943856.76749  -9852434.03746  22835708.997    22835713.178
  24364085.034    -1518525.63349  -1171280.55645  24364084.825    24364089.521
  24513031.655    -5630081.25449  -4189414.95545  24513031.171    24513036.996
  20483302.843   -24240489.52149 -18878596.25548  20483302.395    20483304.708
 03  2 26  2  2  0.0000000  0 10G26G14G15G 6G17G23G 3G 9G16G18
  23456389.302    -8155534.00449  -6345268.10745  23456389.289    23456392.947
  23299815.093    -8801241.63349  -6837057.91945  23299814.555    23299818.947
  20417751.055   -26483356.99349 -20112264.85648  20417750.336    20417754.008
  23813034.095    -8776494.22149  -6542780.56945  23813033.989    23813039.345
  20920995.380   -25103052.02649 -19544194.29947  20920994.747    20920998.697
  21608776.134   -16970701.68149 -13205433.98147  21608775.566    21608779.311
  22822505.650   -13013242.19149  -9906500.53946  22822505.329    22822509.508
  24351214.992    -1586158.05749  -1223981.07145  24351214.755    24351219.497
  24524290.605    -5570915.24249  -4143311.59245  24524290.197    24524296.039
  20485067.507   -24231216.13749 -18871370.21548  20485067.063    20485069.378
 03  2 26  2  2 30.0000000  0 10G26G14G15G 6G17G23G 3G 9G16G18
  23475131.008    -8057045.85349  -6268524.07745  23475130.905    23475134.623
  23279182.112    -8909668.12949  -6921545.97145  23279181.559    23279185.877
  20413152.427   -26507522.89149 -20131095.39648  20413151.689    20413155.356
  23833900.497    -8666840.67149  -6457336.28345  23833900.404    23833905.831
  20925169.203   -25081118.28749 -19527103.05547  20925168.577    20925172.547
  21618697.538   -16918564.19649 -13164807.34347  21618696.997    21618700.731
  22809380.385   -13082215.89049  -9960246.20946  22809379.995    22809384.229
  24338385.476    -1653577.50449  -1276515.61045  24338385.247    24338389.907
  24535590.264    -5511535.27449  -4097041.52645  24535589.914    24535595.665
  20486890.521   -24221635.97449 -18863905.12648  20486890.071    20486892.413
 03  2 26  2  3  0.0000000  0 10G26G14G15G 6G17G23G 3G 9G16G18
  23493934.438    -7958233.05649  -6191527.08445  23493934.368    23493938.040
  23258581.064    -9017926.88649  -7005903.30345  23258580.480    23258584.815
  20408605.621   -26531416.34549 -20149713.64148  20408604.887    20408608.530
  23854787.671    -8557078.21349  -6371807.12945  23854787.654    23854792.962
  20929398.490   -25058893.09749 -19509784.71047  20929397.869    20929401.860
  21628644.368   -16866293.17249 -13124076.65447  21628643.821    21628647.555
  22796333.866   -13150775.49649 -10013669.23846  22796333.477    22796337.683
  24325597.097    -1720780.34449  -1328881.38045  24325596.940    24325601.580
  24546930.151    -5451943.82149  -4050606.63845  24546929.844    24546935.418
  20488771.727   -24211750.12349 -18856201.84148  20488771.269    20488773.588
 03  2 26  2  3 30.0000000  0 10G26G14G15G 6G17G23G 3G 9G16G18
  23512799.102    -7859098.53749  -6114279.39645  23512799.068    23512802.723
  23238012.350    -9126015.21549  -7090127.84345  23238011.849    23238016.119
  20404110.976   -26555035.79749 -20168118.38348  20404110.249    20404113.878
  23875695.159    -8447209.00449  -6286194.78845  23875695.120    23875700.440
  20933683.343   -25036376.03649 -19492238.92847  20933682.703    20933686.679
  21638616.325   -16813890.03749 -13083243.01747  21638615.768    21638619.520
  22783366.519   -13218918.55849 -10066767.66746  22783366.164    22783370.435
  24312850.545    -1787763.33049  -1381075.83945  24312850.414    24312855.144
  24558309.764    -5392143.69049  -4004009.16245  24558309.516    24558314.848
  20490710.965   -24201559.33849 -18848260.94548  20490710.486    20490712.806
 03  2 26  2  4  0.0000000  0 10G26G14G15G 6G17G23G 3G 9G16G18
  23531724.378    -7759645.19249  -6036783.27245  23531724.377    23531728.093
  23217476.682    -9233930.09849  -7174217.26045  23217476.275    23217480.447
  20399668.737   -26578379.77149 -20186308.46748  20399668.014    20399671.635
  23896622.483    -8337235.61549  -6200501.26645  23896622.453    23896627.719
  20938023.930   -25013565.83949 -19474464.73047  20938023.298    20938027.263
  21648613.191   -16761356.03249 -13042307.41147  21648612.637    21648616.373
  22770478.973   -13286642.71849 -10119539.68746  22770478.636    22770482.807
  24300146.586    -1854523.04549  -1433096.32145  24300146.469    24300151.047
  24569728.569    -5332137.68349  -3957251.25645  24569728.162    24569733.733
  20492708.039   -24191064.49649 -18840083.11848  20492707.564    20492709.881
 03  2 26  2  4 30.0000000  0 10G26G14G15G 6G17G23G 3G 9G16G18
  23550709.522    -7659877.40949  -5959042.12145  23550709.532    23550713.257
  23196974.296    -9341670.16549  -7258170.42346  23196973.880    23196978.029
  20395278.959   -26601448.11949 -20204283.77148  20395278.243    20395281.857
  23917568.881    -8227161.84449  -6114729.52045  23917568.821    23917574.059
  20942420.225   -24990462.99649 -19456462.49647  20942419.605    20942423.582
  21658634.487   -16708693.81649 -13001271.89647  21658633.940    21658637.616
  22757671.332   -13353947.32749 -10171984.77846  22757670.953    22757675.157
  24287485.456    -1921057.37149  -1484941.16745  24287485.314    24287489.841
  24581185.619    -5271929.92649  -3910336.17245  24581185.180    24581190.969
  20494762.472   -24180268.33449 -18831670.50348  20494762.012    20494764.303
 03  2 26  2  5  0.0000000  0 10G26G14G15G 6G17G23G 3G 9G16G18
  23569754.040    -7559797.11149  -5881057.46845  23569754.179    23569757.944
  23176505.955    -9449231.66649  -7341984.46946  23176505.499    23176509.636
  20390942.038   -26624238.56749 -20222042.53248  20390941.335    20390944.957
  23938534.215    -8116988.88649  -6028880.47145  23938534.128    23938539.305
  20946872.571   -24967065.77149 -19438230.87347  20946871.942    20946875.906
  21668680.088   -16655903.68149 -12960136.70647  21668679.525    21668683.199
  22744944.131   -13420828.82549 -10224100.18946  22744943.773    22744947.936
  24274868.160    -1987362.09649  -1536607.11545  24274867.979    24274872.426
  24592680.790    -5211522.17749  -3863265.23645  24592680.451    24592686.180
  20496874.263   -24169170.71749 -18823022.98148  20496873.800    20496876.083
 03  2 26  2  5 30.0000000  0 10G26G14G15G 6G17G23G 3G 9G16G18
  23588857.472    -7459407.44849  -5802831.75045  23588857.634    23588861.474
  23156072.064    -9556612.24349  -7425657.51446  23156071.625    23156075.683
  20386658.186   -26646750.14749 -20239583.99448  20386657.461    20386661.107
  23959517.908    -8006719.41649  -5942956.22345  23959517.761    23959522.956
  20951381.046   -24943373.29949 -19419769.19247  20951380.431    20951384.399
  21678749.757   -16602987.24449 -12918903.09947  21678749.194    21678752.842
  22732297.784   -13487285.35649 -10275884.45146  22732297.478    22732301.670
  24262295.146    -2053434.18849  -1588091.79045  24262294.963    24262299.231
  24604213.538    -5150917.69849  -3816040.99645  24604213.158    24604218.721
  20499043.144   -24157773.15549 -18814141.74148  20499042.678    20499044.946
 03  2 26  2  6  0.0000000  0 10G26G14G15G 6G17G23G 3G 9G16G18
  23608019.200    -7358711.97949  -5724367.75345  23608019.288    23608023.118
  23135673.123    -9663809.53449  -7509187.73946  23135672.597    23135676.579
  20382427.588   -26668981.94249 -20256907.44348  20382426.870    20382430.541
  23980519.319    -7896356.21749  -5856958.97145  23980519.092    23980524.363
  20955945.834   -24919385.06749 -19401077.04547  20955945.211    20955949.218
  21688843.130   -16549946.23749 -12877572.42347  21688842.557    21688846.201
  22719732.740   -13553315.16249 -10327336.19946  22719732.407    22719736.605
  24249766.725    -2119270.98049  -1639393.10745  24249766.396    24249770.737
  24615783.032    -5090119.74149  -3768665.96645  24615782.628    24615788.187
  20501268.757   -24146077.39549 -18805028.13448  20501268.297    20501270.546
 03  2 26  2  6 30.0000000  0 10G26G14G15G 6G17G23G 3G 9G16G18
  23627238.469    -7257714.10849  -5645668.09645  23627238.523    23627242.375
  23115309.501    -9770821.08049  -7592573.23646  23115308.934    23115312.897
  20378250.456   -26690932.57149 -20274011.79848  20378249.751    20378253.426
  24001537.992    -7785902.29049  -5770890.98645  24001537.682    24001543.080
  20960567.068   -24895100.43949 -19382153.94147  20960566.432    20960570.438
  21698959.866   -16496782.34849 -12836145.99647  21698959.293    21698962.931
  22707249.201   -13618916.45549 -10378454.03646  22707248.829    22707253.013
  24237283.649    -2184869.67849  -1690508.90945  24237283.348    24237287.573
  24627388.713    -5029131.40149  -3721142.64945  24627388.313    24627393.960
  20503550.822   -24134084.78049 -18795683.21248  20503550.367    20503552.619
 03  2 26  2  7  0.0000000  0 10G26G14G15G 6G17G23G 3G 9G16G18
  23646514.950    -7156415.78549  -5566734.32445  23646514.968    23646518.848
  23094981.857    -9877643.06649  -7675811.00546  23094981.308    23094985.293
  20374127.296   -26712599.89849 -20290895.40448  20374126.586    20374130.247
  24022573.628    -7675359.15449  -5684753.52945  24022573.400    24022578.877
  20965245.045   -24870517.46849 -19362998.36847  20965244.403    20965248.399
  21709099.848   -16443496.15349 -12794624.26647  21709099.283    21709102.909
  22694847.798   -13684086.00949 -10429235.46846  22694847.454    22694851.611
  24224846.624    -2250225.89749  -1741435.78245  24224846.249    24224850.645
  24639030.325    -4967954.91649  -3673472.68445  24639029.984    24639035.648
  20505889.407   -24121795.48449 -18786107.11348  20505888.938    20505891.183
 03  2 26  2  7 30.0000000  0 10G26G14G15G 6G17G23G 3G 9G16G18
  23665847.816    -7054820.88949  -5487569.46145  23665847.785    23665851.706
  23074690.624    -9984273.90249  -7758899.87146  23074690.015    23074693.980
  20370058.037   -26733983.76749 -20307558.12548  20370057.333    20370060.981
  24043625.575    -7564730.15949  -5598549.12945  24043625.534    24043630.839
  20969979.706   -24845636.73249 -19343610.76247  20969979.056    20969983.036
  21719262.760   -16390089.74249 -12753008.85647  21719262.198    21719265.774
  22682528.779   -13748822.64049 -10479679.54146  22682528.453    22682532.568
  24212456.368    -2315336.97549  -1792171.63545  24212456.056    24212460.203
  24650706.928    -4906593.75649  -3625658.82645  24650706.631    24650712.363
  20508284.010   -24109211.61649 -18776301.46948  20508283.551    20508285.779
 03  2 26  2  8  0.0000000  0 10G26G14G15G 6G17G23G 3G 9G16G18
  23685236.766    -6952931.16649  -5408174.87045  23685236.732    23685240.718
  23054436.403   -10090709.67849  -7841836.75046  23054435.886    23054439.769
  20366043.311   -26755081.30249 -20323997.74048  20366042.592    20366046.224
  24064693.647    -7454016.25649  -5512278.59645  24064693.480    24064698.922
  20974771.538   -24820455.53349 -19323989.03647  20974770.878    20974774.837
  21729448.499   -16336563.12649 -12711299.79147  21729447.936    21729451.514
  22670292.763   -13813123.03149 -10529783.69846  22670292.433    22670296.581
  24200113.502    -2380198.54949  -1842713.07045  24200113.220    24200117.326
  24662418.308    -4845049.80049  -3577702.52745  24662417.884    24662423.773
  20510734.742   -24096332.88649 -18766266.07448  20510734.274    20510736.488
 03  2 26  2  8 30.0000000  0 10G26G14G15G 6G17G23G 3G 9G16G18
  23704680.978    -6850750.91449  -5328553.88945  23704681.000    23704684.862
  23034219.629   -10196948.98949  -7924620.51646  23034219.062    23034222.996
  20362083.066   -26775892.45249 -20340214.19948  20362082.344    20362085.949
  24085777.254    -7343221.40849  -5425944.92245  24085777.073    24085782.465
  20979620.281   -24794974.93149 -19304134.00947  20979619.632    20979623.598
  21739656.649   -16282919.03549 -12669499.17847  21739656.089    21739659.653
  22658139.977   -13876986.21149 -10579547.18246  22658139.646    22658143.728
  24187818.604    -2444808.66649  -1893058.57345  24187818.273    24187822.295
  24674163.772    -4783327.12349  -3529606.97045  24674163.322    24674169.324
  20513241.060   -24083161.88949 -18756002.93448  20513240.589    20513242.825
 03  2 26  2  9  0.0000000  0 10G26G14G15G 6G17G23G 3G 9G16G18
  23724179.979    -6748282.93949  -5248708.70545  23724180.062    23724183.827
  23014040.828   -10302988.69949  -8007248.74946  23014040.311    23014044.189
  20358177.614   -26796415.58049 -20356206.22448  20358176.888    20358180.482
  24106875.836    -7232347.64849  -5339549.80345  24106875.717    24106881.036
  20984526.373   -24769193.16849 -19284044.30747  20984525.725    20984529.696
  21749886.924   -16229158.41849 -12627607.76647  21749886.367    21749889.944
  22646070.944   -13940409.67749 -10628968.02246  22646070.572    22646074.602
  24175572.171    -2509163.64549  -1943205.24745  24175571.920    24175576.041
  24685942.791    -4721428.17849  -3481374.07145  24685942.368    24685948.322
  20515802.854   -24069699.40649 -18745512.66448  20515802.386    20515804.638
 03  2 26  2  9 30.0000000  0 10G26G14G15G 6G17G23G 3G 9G16G18
  23743732.996    -6645531.53549  -5168642.65845  23743733.066    23743736.760
  22993900.222   -10408827.55949  -8089720.47346  22993899.734    22993903.599
  20354326.981   -26816650.56549 -20371973.72448  20354326.263    20354329.858
  24127988.753    -7121398.72749  -5253096.06045  24127988.511    24127993.854
  20989489.641   -24743110.96949 -19263720.49947  20989488.999    20989492.951
  21760138.888   -16175284.02349 -12585627.69647  21760138.350    21760141.893
  22634085.652   -14003392.81949 -10678045.74346  22634085.239    22634089.251
  24163374.576    -2573261.78049  -1993151.80945  24163374.374    24163378.439
  24697754.589    -4659357.32149  -3433007.19145  24697753.941    24697759.996
  20518419.642   -24055948.01849 -18734797.27048  20518419.184    20518421.444
 03  2 26  2 10  0.0000000  0  9G26G14G15G 6G17G23G 3G 9G18
  23763340.436    -6542493.83449  -5088353.53245  23763340.511    23763344.159
  22973799.535   -10514456.99849  -8172029.01946  22973799.090    22973802.871
  20350532.568   -26836590.42049 -20387511.25148  20350531.850    20350535.440
  24149116.530    -7010371.45949  -5166581.33245  24149116.294    24149121.653
  20994511.502   -24716721.03749 -19243156.89847  20994510.853    20994514.773
  21770413.352   -16121291.31549 -12543555.43547  21770412.797    21770416.342
  22622185.600   -14065927.76249 -10726774.23946  22622185.227    22622189.209
  24151227.621    -2637093.92149  -2042891.08145  24151227.283    24151231.444
  20521092.312   -24041902.97049 -18723853.05548  20521091.844    20521094.108
 03  2 26  2 10 30.0000000  0  9G26G14G15G 6G17G23G 3G 9G18
  23783000.749    -6439178.62049  -5007848.15445  23783000.770    23783004.372
  22953738.147   -10619879.91349  -8254176.65746  22953737.678    22953741.457
  20346793.437   -26856239.49049 -20402822.18948  20346792.709    20346796.313
  24170257.723    -6899273.81249  -5080011.71345  24170257.459    24170262.666
  20999590.836   -24690028.85449 -19222357.78147  20999590.166    20999594.091
  21780708.985   -16067187.26549 -12501396.41747  21780708.459    21780711.992
  22610370.240   -14128017.94849 -10775156.15446  22610369.847    22610373.839
  24139130.921    -2700662.53049  -2092425.00745  24139130.648    24139134.716
  20523819.535   -24027571.09849 -18712685.34048  20523819.066    20523821.329
 03  2 26  2 11  0.0000000  0  9G26G14G15G 6G17G23G 3G 9G18
  23802713.246    -6335589.05049  -4927128.98445  23802713.164    23802716.746
  22933716.462   -10725093.97349  -8336161.52946  22933715.969    22933719.726
  20343109.878   -26875596.62649 -20417905.64448  20343109.149    20343112.776
  24191411.798    -6788108.37249  -4993389.31345  24191411.515    24191416.727
  21004727.836   -24663033.67949 -19201322.56647  21004727.170    21004731.091
  21791025.530   -16012973.30249 -12459151.75047  21791024.987    21791028.541
  22598639.793   -14189661.63149 -10823190.15046  22598639.447    22598643.380
  24127084.825    -2763964.74349  -2141751.34945  24127084.547    24127088.647
  20526601.115   -24012953.79349 -18701295.20948  20526600.660    20526602.908
 03  2 26  2 11 30.0000000  0  9G26G14G15G 6G17G23G 3G 9G18
  23822477.433    -6231727.69349  -4846198.04845  23822477.352    23822480.907
  22913735.109   -10830096.10549  -8417981.26146  22913734.562    22913738.386
  20339482.238   -26894659.93949 -20432760.14548  20339481.520    20339485.146
  24212578.440    -6676877.14549  -4906715.61845  24212578.052    24212583.341
  21009922.737   -24635734.32149 -19180050.32547  21009922.074    21009925.970
  21801362.813   -15958650.37349 -12416822.17547  21801362.281    21801365.828
  22586994.814   -14250856.25849 -10870874.22746  22586994.449    22586998.453
  24115090.267    -2826996.88949  -2190867.25845  24115090.020    24115094.022
  20529436.803   -23998052.06849 -18689683.45048  20529436.337    20529438.596
 03  2 26  2 12  0.0000000  0  9G26G14G15G 6G17G23G 3G 9G18
  23842292.670    -6127597.59849  -4765057.69045  23842292.575    23842296.106
  22893794.647   -10934883.42649  -8499633.63346  22893794.136    22893797.936
  20335910.768   -26913428.05849 -20447384.62348  20335910.032    20335913.694
  24233757.073    -6565582.69149  -4819992.71145  24233756.689    24233762.078
  21015175.730   -24608129.69049 -19158540.21047  21015175.057    21015178.968
  21811720.618   -15904219.71649 -12374408.65847  21811720.070    21811723.617
  22575435.623   -14311599.88449 -10918206.87946  22575435.261    22575439.312
  24103147.581    -2889755.67149  -2239770.14545  24103147.318    24103151.332
  20532326.391   -23982866.86149 -18677850.79948  20532325.947    20532328.202
 03  2 26  2 12 30.0000000  0  9G26G14G15G 6G17G23G 3G 9G18
  23862158.561    -6023201.29849  -4683709.92345  23862158.532    23862162.088
  22873895.722   -11039452.85949  -8581116.18646  22873895.182    22873898.958
  20332395.756   -26931899.43149 -20461777.87548  20332395.026    20332398.689
  24254947.433    -6454226.81749  -4733221.90145  24254947.070    24254952.441
  21020486.940   -24580218.97249 -19136791.57847  21020486.280    21020490.190
  21822098.764   -15849682.20549 -12331911.87247  21822098.196    21822101.744
  22563962.783   -14371889.92549 -10965186.07646  22563962.394    22563966.488
  24091257.603    -2952237.38149  -2288457.13145  24091257.400    24091261.391
  20535269.844   -23967398.89949 -18665797.82048  20535269.389    20535271.648
 03  2 26  2 13  0.0000000  0  9G26G14G15G 6G17G23G 3G 9G18
  23882074.541    -5918542.00549  -4602157.21345  23882074.573    23882078.216
  22854038.746   -11143801.79849  -8662426.96346  22854038.210    22854041.965
  20328937.448   -26950072.82449 -20475938.93948  20328936.710    20328940.387
  24276148.978    -6342812.04849  -4646405.20645  24276148.642    24276154.030
  21025856.615   -24552000.94049 -19114803.48147  21025855.983    21025859.869
  21832496.928   -15795039.17549 -12289332.86647  21832496.387    21832499.923
  22552576.531   -14431724.67949 -11011810.52646  22552576.196    22552580.252
  24079420.969    -3014438.84249  -2336925.73545  24079420.854    24079424.864
  20538266.859   -23951649.30849 -18653525.39048  20538266.414    20538268.662
 03  2 26  2 13 30.0000000  0  9G26G14G15G 6G17G23G 3G 9G18
  23902039.983    -5813622.60549  -4520401.82345  23902040.021    23902043.484
  22834224.110   -11247927.85649  -8743564.04346  22834223.586    22834227.335
  20325536.043   -26967947.10449 -20489866.92548  20325535.325    20325538.988
  24297361.261    -6231340.92749  -4559544.59745  24297360.967    24297366.393
  21031284.866   -24523475.18549 -19092575.60047  21031284.235    21031288.142
  21842914.976   -15740292.00149 -12246672.70847  21842914.405    21842917.960
  22541277.297   -14491102.49549 -11058078.90346  22541276.959    22541281.045
  24067638.347    -3076356.74349  -2385173.40145  24067638.211    24067642.201
  20541317.259   -23935619.47749 -18641034.58448  20541316.802    20541319.047
 03  2 26  2 14  0.0000000  0  9G26G14G15G 6G17G23G 3G 9G18
  23922054.337    -5708445.99649  -4438446.01845  23922054.337    23922057.851
  22814452.528   -11351828.05249  -8824525.14846  22814452.014    22814455.668
  20322191.907   -26985520.52549 -20503560.47148  20322191.190    20322194.859
  24318583.769    -6119815.74149  -4472641.82845  24318583.525    24318588.949
  21036771.885   -24494640.74349 -19070107.18247  21036771.236    21036775.142
  21853352.617   -15685441.56349 -12203932.08547  21853352.089    21853355.605
  22530065.527   -14550020.64349 -11103989.10146  22530065.171    22530069.239
  24055910.205    -3137987.90949  -2433197.63845  24055910.090    24055914.089
  20544420.774   -23919310.27149 -18628326.08248  20544420.314    20544422.543
 03  2 26  2 14 30.0000000  0  9G26G14G15G 6G17G23G 3G 9G18
  23942117.128    -5603015.41649  -4356292.31345  23942117.087    23942120.624
  22794724.315   -11455500.01149  -8905308.40946  22794723.791    22794727.460
  20318905.226   -27002791.94449 -20517018.68648  20318904.515    20318908.188
  24339815.959    -6008239.15249  -4385699.10545  24339815.786    24339821.294
  21042317.732   -24465497.10849 -19047397.84047  21042317.097    21042320.985
  21863809.712   -15630489.32749 -12161112.14147  21863809.180    21863812.651
  22518941.487   -14608477.44949 -11149539.81846  22518941.122    22518945.223
  24044237.215    -3199329.50949  -2480996.23545  24044237.031    24044241.232
  20547577.198   -23902723.20549 -18615401.06548  20547576.739    20547578.938
 03  2 26  2 15  0.0000000  0  9G26G14G15G 6G17G23G 3G 9G18
  23962227.696    -5497333.99449  -4273943.14245  23962227.625    23962231.178
  22775039.973   -11558941.35049  -8985911.94646  22775039.419    22775043.116
  20315676.219   -27019760.37149 -20530240.80548  20315675.501    20315679.181
  24361057.570    -5896614.00249  -4298718.47345  24361057.301    24361063.020
  21047922.595   -24436043.50049 -19024446.96147  21047921.947    21047925.805
  21874285.823   -15575436.91049 -12118214.13247  21874285.287    21874288.749
  22507905.590   -14666471.23149 -11194729.73946  22507905.232    22507909.328
  24032619.929    -3260378.46049  -2528566.79045  24032619.724    24032623.968
  20550786.219   -23885859.59349 -18602260.56048  20550785.757    20550787.930
 03  2 26  2 15 30.0000000  0  9G26G14G15G 6G17G23G 3G 9G18
  23982385.421    -5391404.74749  -4191400.87345  23982385.360    23982388.905
  22755400.077   -11662149.07549  -9066333.45746  22755399.555    22755403.254
  20312505.236   -27036424.09649 -20543225.49548  20312504.516    20312508.176
  24382307.878    -5784942.36249  -4211701.63245  24382307.730    24382313.302
  21053586.604   -24406278.96649 -19001253.79847  21053585.946    21053589.796
  21884780.802   -15520285.28149 -12075238.81247  21884780.282    21884783.733
  22496958.215   -14724000.03649 -11239557.32546  22496957.850    22496961.995
  24021059.060    -3321131.45249  -2575906.73845  24021058.807    24021063.159
  20554047.641   -23868720.61749 -18588905.48448  20554047.189    20554049.330
 03  2 26  2 16  0.0000000  0  9G26G14G15G 6G17G23G 3G 9G18
  24002589.780    -5285230.28049  -4108667.51645  24002589.773    24002593.147
  22735805.186   -11765120.48049  -9146570.81346  22735804.700    22735808.402
  20309392.433   -27052781.83549 -20555971.76048  20309391.701    20309395.335
  24403566.703    -5673226.50849  -4124650.33945  24403566.523    24403572.191
  21059309.910   -24376202.53149 -18977817.60147  21059309.264    21059313.091
  21895294.451   -15465035.51249 -12032187.02247  21895293.914    21895297.379
  22486099.723   -14781061.75249 -11284020.95946  22486099.367    22486103.435
  24009555.053    -3381585.18449  -2623013.48145  24009554.801    24009559.120
  20557361.300   -23851307.19949 -18575336.55848  20557360.845    20557362.969
 03  2 26  2 16 30.0000000  0  9G26G14G15G 6G17G23G 3G 9G18
  24022840.059    -5178814.17049  -4025745.87345  24022840.054    24022843.533
  22716255.700   -11867853.43249  -9226622.37246  22716255.154    22716258.872
  20306338.079   -27068832.37049 -20568478.64748  20306337.365    20306340.973
  24424833.228    -5561469.44049  -4037566.97345  24424833.090    24424838.750
  21065092.739   -24345813.53549 -18954137.84647  21065092.090    21065095.906
  21905826.466   -15409689.32349 -11989060.09547  21905825.932    21905829.393
  22475330.424   -14837654.65749 -11328119.27746  22475330.063    22475334.106
  23998108.595    -3441736.98849  -2669884.96645  23998108.365    23998112.568
  20560726.841   -23833620.96949 -18561555.05148  20560726.395    20560728.515
 03  2 26  2 17  0.0000000  0  9G26G14G15G 6G17G23G 3G 9G18
  24043135.854    -5072159.48649  -3942638.31845  24043135.814    24043139.184
  22696752.054   -11970345.48249  -9306486.19946  22696751.517    22696755.178
  20303342.385   -27084574.72449 -20580745.39148  20303341.659    20303345.264
  24446107.321    -5449673.51549  -3950453.24545  24446107.053    24446112.745
  21070935.082   -24315111.81449 -18930214.40847  21070934.436    21070938.241
  21916376.583   -15354248.00749 -11945859.04347  21916376.029    21916379.462
  22464650.613   -14893777.18049 -11371851.05846  22464650.236    22464654.273
  23986720.148    -3501583.72549  -2716518.73045  23986719.889    23986724.071
  20564144.112   -23815663.03449 -18547561.82648  20564143.660    20564145.775
 03  2 26  2 17 30.0000000  0  9G26G14G15G 6G17G23G 3G 9G18
  24063476.498    -4965268.68249  -3859346.78845  24063476.362    24063479.774
  22677294.898   -12072593.17649  -9386159.65046  22677294.395    22677297.992
  20300405.713   -27100007.13449 -20592770.61948  20300404.982    20300408.596
  24467388.384    -5337840.90349  -3863310.96645  24467388.160    24467393.846
  21076837.107   -24284096.31749 -18906046.47247  21076836.470    21076840.251
  21926944.673   -15298712.28949 -11902584.43747  21926944.122    21926947.535
  22454060.749   -14949427.12249 -11415214.59946  22454060.387    22454064.368
  23975390.391    -3561121.78249  -2762911.96145  23975390.173    23975394.300
  20567612.895   -23797434.29249 -18533357.58848  20567612.438    20567614.558
 03  2 26  2 18  0.0000000  0  9G26G14G15G 6G17G23G 3G 9G18
  24083861.501    -4858144.65349  -3775873.52045  24083861.470    24083864.836
  22657884.754   -12174593.82349  -9465640.58546  22657884.273    22657887.803
  20297528.298   -27115127.96049 -20604553.04948  20297527.574    20297531.144
  24488675.994    -5225973.75649  -3776141.80345  24488675.683    24488681.535
  21082799.074   -24252765.87049 -18881633.12547  21082798.442    21082802.227
  21937530.573   -15243083.08749 -11859236.99047  21937530.024    21937533.410
  22443561.250   -15004602.46549 -11458208.32046  22443560.866    22443564.759
  23964119.941    -3620347.74349  -2809062.00045  23964119.815    23964123.897
  20571133.014   -23778935.65349 -18518943.03648  20571132.571    20571134.689
 03  2 26  2 18 30.0000000  0  9G26G14G15G 6G17G23G 3G 9G18
  24104290.126    -4750791.02249  -3692221.33245  24104290.197    24104293.549
  22638521.936   -12276345.70449  -9544927.64946  22638521.438    22638525.004
  20294710.300   -27129936.68749 -20616092.28548  20294709.555    20294713.115
  24509969.609    -5114075.16749  -3688948.05845  24509969.241    24509975.077
  21088821.028   -24221120.11249 -18856974.08347  21088820.384    21088824.187
  21948133.886   -15187362.23549 -11815818.12647  21948133.323    21948136.686
  22433152.352   -15059301.71449 -11500831.06446  22433151.962    22433155.759
  23952909.512    -3679259.21749  -2854966.98645  23952909.246    23952913.326
  20574704.194   -23760168.88949 -18504319.55348  20574703.739    20574705.846
 03  2 26  2 19  0.0000000  0  9G26G14G15G 6G17G23G 3G 9G18
  24124761.837    -4643210.90349  -3608392.66545  24124761.915    24124765.426
  22619206.929   -12377846.26049  -9624018.92046  22619206.429    22619209.981
  20291951.865   -27144432.10249 -20627387.39048  20291951.125    20291954.701
  24531268.697    -5002147.73949  -3601731.89445  24531268.266    24531274.023
  21094903.070   -24189158.74449 -18832069.11247  21094902.433    21094906.248
  21958754.353   -15131551.16249 -11772328.96047  21958753.801    21958757.174
  22422834.287   -15113523.18849 -11543081.51846  22422833.925    22422837.663
  23941759.460    -3737853.23749  -2900624.60245  23941759.125    23941763.236
  20578326.102   -23741135.52349 -18489488.33348  20578325.642    20578327.748
 03  2 26  2 19 30.0000000  0  8G26G14G15G17G23G 3G 9G18
  24145276.609    -4535404.88149  -3524387.99145  24145276.753    24145280.249
  22599940.760   -12479090.36149  -9702910.29946  22599940.217    22599943.803
  20289253.785   -27158610.42549 -20638435.41448  20289253.052    20289256.631
  21101045.713   -24156878.59449 -18806915.73947  21101045.081    21101048.926
  21969392.165   -15075648.85749 -11728768.70547  21969391.627    21969395.012
  22412607.908   -15167262.99849 -11584956.65046  22412607.525    22412611.284
  23930670.777    -3796124.22649  -2946030.51045  23930670.501    23930674.640
  20581999.004   -23721834.29149 -18474448.38448  20581998.549    20582000.645
 03  2 26  2 20  0.0000000  0  8G26G14G15G17G23G 3G 9G18
  24165833.553    -4427377.46649  -3440210.78245  24165833.671    24165837.230
  22580723.528   -12580077.11749  -9781601.19846  22580723.011    22580726.519
  20286616.048   -27172471.88149 -20649236.53248  20286615.289    20286618.860
  21107249.005   -24124279.97149 -18781514.20947  21107248.376    21107252.242
  21980046.882   -15019657.80849 -11685139.29947  21980046.351    21980049.752
  22402473.284   -15220520.72549 -11626456.12846  22402472.901    22402476.606
  23919643.868    -3854070.70449  -2991183.55045  23919643.555    23919647.777
  20585722.360   -23702267.87449 -18459201.80348  20585721.901    20585724.001
 03  2 26  2 20 30.0000000  0  8G26G14G15G17G23G 3G 9G18
  24186431.646    -4319133.53649  -3355864.86145  24186431.772    24186435.252
  22561555.381   -12680805.87249  -9860091.03346  22561554.871    22561558.338
  20284038.448   -27186017.05449 -20659791.19348  20284037.713    20284041.261
  21113512.596   -24091364.56449 -18755865.83347  21113511.970    21113515.844
  21990717.920   -14963581.13249 -11641443.17647  21990717.383    21990720.772
  22392430.355   -15273296.46449 -11667580.04046  22392430.013    22392433.667
  23908678.869    -3911691.49149  -3036082.81145  23908678.646    23908682.846
  20589495.616   -23682439.21249 -18443750.87448  20589495.179    20589497.247
 03  2 26  2 21  0.0000000  0  8G26G14G15G17G23G 3G 9G18
  24207070.653    -4210674.67349  -3271351.48245  24207070.744    24207074.399
  22542437.144   -12781272.66949  -9938376.73546  22542436.616    22542440.061
  20281521.518   -27199243.54849 -20670097.52848  20281520.785    20281524.323
  21119836.828   -24058130.41649 -18729969.08847  21119836.192    21119840.069
  22001405.261   -14907418.70449 -11597680.23247  22001404.724    22001408.094
  22382479.697   -15325587.30349 -11708326.10446  22382479.372    22382482.995
  23897776.829    -3968982.14849  -3080724.82445  23897776.564    23897780.664
  20593318.727   -23662348.46549 -18428095.72448  20593318.252    20593320.337
 03  2 26  2 21 30.0000000  0  9G26G14G15G17G23G 3G31G 9G18
  24227749.587    -4102006.42849  -3186674.93145  24227749.697    24227753.208
  22523368.797   -12881477.32649 -10016458.17246  22523368.267    22523371.660
  20279065.043   -27212152.30849 -20680156.28348  20279064.306    20279067.826
  21126221.426   -24024579.22349 -18703825.29247  21126220.792    21126224.645
  22012108.297   -14851173.89949 -11553853.09647  22012107.745    22012111.107
  22372621.168   -15377393.83449 -11748694.78446  22372620.847    22372624.503
  24382534.522    -2525072.94549  -1949509.94545  24382534.093    24382538.749
  23886937.703    -4025942.13049  -3125109.17045  23886937.477    23886941.516
  20597191.056   -23641999.22049 -18412239.14648  20597190.582    20597192.680
 03  2 26  2 22  0.0000000  0  9G26G14G15G17G23G 3G31G 9G18
  24248467.516    -3993132.93449  -3101838.44345  24248467.765    24248471.139
  22504350.541   -12981418.54149 -10094334.33746  22504350.013    22504353.346
  20276669.052   -27224743.41549 -20689967.51548  20276668.305    20276671.798
  21132666.309   -23990711.24449 -18677434.64847  21132665.670    21132669.498
  22022826.538   -14794849.15149 -11509963.65947  22022826.005    22022829.333
  22362854.941   -15428715.44549 -11788685.60246  22362854.628    22362858.343
  24365512.738    -2614522.66149  -2019210.93345  24365512.317    24365516.837
  23876161.837    -4082569.62249  -3169234.43545  23876161.598    23876165.669
  20601112.091   -23621393.81949 -18396182.96748  20601111.627    20601113.706
 03  2 26  2 22 30.0000000  0  9G26G14G15G17G23G 3G31G 9G18
  24269225.048    -3884051.66549  -3016840.06745  24269225.096    24269228.406
  22485383.969   -13081088.19449 -10171998.89146  22485383.443    22485386.750
  20274334.775   -27237009.92649 -20699525.81548  20274334.041    20274337.532
  21139172.539   -23956520.61949 -18650792.60247  21139171.916    21139175.722
  22033560.887   -14738440.04449 -11466008.49647  22033560.334    22033563.611
  22353182.454   -15479544.70149 -11828292.77646  22353182.114    22353185.808
  24348550.014    -2703661.93849  -2088670.03145  24348549.630    24348554.068
  23865450.806    -4138855.81149  -3213093.75145  23865450.692    23865454.716
  20605082.742   -23600527.71049 -18379923.64348  20605082.278    20605084.371
 03  2 26  2 23  0.0000000  0  9G26G14G15G17G23G 3G31G 9G18
  24290021.252    -3774766.69849  -2931682.95045  24290021.239    24290024.354
  22466469.318   -13180484.99449 -10249450.84246  22466468.808    22466472.085
  20272062.304   -27248951.71749 -20708831.08648  20272061.574    20272065.057
  21145740.113   -23922007.82549 -18623899.50047  21145739.479    21145743.274
  22044310.754   -14681949.12849 -11421989.57847  22044310.192    22044313.449
  22343603.617   -15529881.56849 -11867516.26246  22343603.275    22343606.955
  24331646.613    -2792489.62749  -2157886.35445  24331646.242    24331650.538
  23854805.171    -4194798.88149  -3256685.69745  23854804.932    23854809.035
  20609102.503   -23579403.49849 -18363463.19848  20609102.036    20609104.130
 03  2 26  2 23 30.0000000  0  9G26G14G15G17G23G 3G31G 9G18
  24310855.881    -3665280.60949  -2846369.11145  24310855.675    24310859.082
  22447607.126   -13279606.19949 -10326688.04946  22447606.615    22447609.849
  20269851.950   -27260567.12549 -20717882.03548  20269851.224    20269854.702
  21152369.233   -23887171.63949 -18596754.40447  21152368.620    21152372.377
  22055076.021   -14625377.01649 -11377907.40047  22055075.459    22055078.717
  22334118.832   -15579724.01549 -11906354.49046  22334118.501    22334122.202
  24314803.038    -2881002.64249  -2226857.46945  24314802.713    24314806.948
  23844225.314    -4250395.65149  -3300007.79245  23844225.137    23844229.187
  20613171.228   -23558022.02549 -18346802.29348  20613170.779    20613172.850
 03  2 26  2 24  0.0000000  0  9G26G14G15G17G23G 3G31G 9G18
  24331727.823    -3555597.36949  -2760901.64645  24331727.675    24331731.064
  22428797.751   -13378449.81549 -10403708.93946  22428797.247    22428800.460
  20267703.752   -27271855.80149 -20726678.38248  20267703.031    20267706.487
  21159059.753   -23852012.52249 -18569357.67947  21159059.138    21159062.912
  22065856.395   -14568725.58249 -11333763.41347  22065855.826    22065859.110
  22324728.369   -15629071.00549 -11944806.64646  22324728.043    22324731.736
  24298019.769    -2969199.12849  -2295581.93645  24298019.402    24298023.568
  23833711.864    -4305643.79249  -3343058.23845  23833711.685    23833715.718
  20617288.600   -23536385.07249 -18329942.31648  20617288.138    20617290.188
 03  2 26  2 24 30.0000000  0  9G26G14G15G17G23G 3G31G 9G18
  24352636.748    -3445719.91549  -2675282.84845  24352636.691    24352640.016
  22410041.568   -13477013.81249 -10480511.95946  22410041.052    22410044.261
  20265617.941   -27282816.70949 -20735219.32348  20265617.215    20265620.673
  21165811.934   -23816529.57549 -18541708.61547  21165811.294    21165815.091
  22076651.605   -14511996.28049 -11289558.74647  22076651.062    22076654.331
  22315432.406   -15677921.38449 -11982871.82946  22315432.078    22315435.808
  24281297.113    -3057076.90349  -2364058.06445  24281296.768    24281300.895
  23823265.287    -4360540.74549  -3385835.01645  23823265.227    23823269.175
  20621454.343   -23514494.09649 -18312884.39648  20621453.865    20621455.913
 03  2 26  2 25  0.0000000  0  9G26G14G15G17G23G 3G31G 9G18
  24373582.025    -3335651.75149  -2589515.43745  24373582.100    24373585.347
  22391339.080   -13575295.77149 -10557095.21246  22391338.529    22391341.748
  20263594.742   -27293448.71749 -20743503.97848  20263594.006    20263597.460
  21172625.576   -23780723.33249 -18513807.63647  21172624.957    21172628.757
  22087461.346   -14455190.65649 -11245294.60547  22087460.799    22087464.051
  22306231.255   -15726273.73849 -12020548.94546  22306230.928    22306234.636
  24264635.500    -3144633.72949  -2432284.07145  24264635.243    24264639.426
  23812886.098    -4415083.68149  -3428335.94245  23812885.932    23812889.971
  20625667.992   -23492350.99949 -18295630.01648  20625667.537    20625669.563
 03  2 26  2 25 30.0000000  0  9G26G14G15G17G23G 3G31G 9G18
  24394563.118    -3225395.31649  -2503601.33045  24394563.175    24394566.484
  22372690.718   -13673292.79549 -10633456.45046  22372690.209    22372693.428
  20261634.407   -27303750.31949 -20751531.18148  20261633.683    20261637.102
  21179501.086   -23744592.26849 -18485653.55647  21179500.467    21179504.292
  22098285.518   -14398309.18649 -11200971.36447  22098284.956    22098288.245
  22297125.163   -15774126.10549 -12057836.46146  22297124.852    22297128.524
  24248035.613    -3231866.56449  -2500257.64045  24248035.145    24248039.415
  23802574.777    -4469269.10549  -3470558.28145  23802574.680    23802578.781
  20629929.566   -23469956.29649 -18278179.58048  20629929.107    20629931.124
 03  2 26  2 26  0.0000000  0  9G26G14G15G17G23G 3G31G 9G18
  24415579.535    -3114953.49949  -2417542.77345  24415579.636    24415582.881
  22354097.085   -13771002.38249 -10709593.70646  22354096.601    22354099.808
  20259737.170   -27313720.21149 -20759299.90848  20259736.446    20259739.862
  21186438.564   -23708135.41049 -18457245.60947  21186437.944    21186441.776
  22109123.839   -14341353.03349 -11156589.93447  22109123.302    22109126.609
  22288114.509   -15821477.06049 -12094733.27546  22288114.190    22288117.866
  24231497.877    -3318772.75649  -2567976.66345  24231497.493    24231501.572
  23792332.269    -4523093.89649  -3512499.61145  23792332.202    23792336.205
  20634238.805   -23447310.95349 -18260533.83748  20634238.344    20634240.332
 03  2 26  2 26 30.0000000  0  9G26G14G15G17G23G 3G31G 9G18
  24436630.533    -3004329.64549  -2331342.37645  24436630.693    24436633.959
  22335558.544   -13868422.69949 -10785505.55746  22335558.075    22335561.271
  20257903.190   -27323357.83649 -20766809.72348  20257902.466    20257905.879
  21193438.052   -23671353.05749 -18428584.03047  21193437.429    21193441.243
  22119976.141   -14284323.73849 -11112151.50447  22119975.619    22119978.941
  22279199.591   -15868325.23349 -12131238.30046  22279199.261    22279202.929
  24215022.634    -3405350.38349  -2635439.64045  24215022.100    24215026.191
  23782158.773    -4576555.79149  -3554158.17245  23782158.674    23782162.518
  20638595.378   -23424416.99649 -18242694.36448  20638594.908    20638596.875
 03  2 26  2 27  0.0000000  0  8G14G15G17G23G 3G31G 9G18
  22317075.480   -13965551.20849 -10861190.04646  22317075.041    22317078.201
  20256132.694   -27332661.85249 -20774059.58348  20256131.952    20256135.351
  21200499.559   -23634244.60449 -18399668.34547  21200498.940    21200502.738
  22130842.168   -14227222.38249 -11067656.92347  22130841.617    22130844.975
  22270380.625   -15914669.13749 -12167350.38946  22270380.297    22270383.965
  24198610.415    -3491596.88249  -2702644.60845  24198609.612    24198613.902
  23772054.917    -4629651.78849  -3595531.62245  23772054.838    23772058.558
  20642999.020   -23401275.76249 -18224662.20648  20642998.540    20643000.493
 03  2 26  2 27 30.0000000  0  8G14G15G17G23G 3G31G 9G18
  22298648.557   -14062385.10349 -10936644.95946  22298648.117    22298651.256
  20254425.952   -27341630.82649 -20781048.37348  20254425.203    20254428.588
  21207623.245   -23596809.36149 -18370498.01647  21207622.628    21207626.412
  22141721.735   -14170049.73949 -11023106.78747  22141721.215    22141724.543
  22261657.878   -15960507.16849 -12203068.29246  22261657.575    22261661.266
  24182261.685    -3577509.47249  -2769589.36245  24182260.909    24182265.193
  23762021.289    -4682378.57149  -3636617.36045  23762021.185    23762024.943
  20647449.564   -23377887.81049 -18206437.80248  20647449.098    20647451.048
 03  2 26  2 28  0.0000000  0  8G14G15G17G23G 3G31G 9G18
  22280278.133   -14158922.08249 -11011868.51346  22280277.695    22280280.781
  20252783.244   -27350263.19849 -20787774.88048  20252782.510    20252785.868
  21214809.301   -23559046.53349 -18341072.42847  21214808.673    21214812.441
  22152614.671   -14112806.96749 -10978502.01347  22152614.125    22152617.425
  22253031.748   -16005837.86249 -12238390.87446  22253031.427    22253035.089
  24165977.076    -3663085.53749  -2836271.90545  24165976.372    24165980.603
  23752058.469    -4734733.52549  -3677413.39445  23752058.352    23752062.157
  20651946.865   -23354254.34849 -18188022.08948  20651946.405    20651948.340
 03  2 26  2 28 30.0000000  0  8G14G15G17G23G 3G31G 9G18
  22261964.656   -14255159.81649 -11086858.88446  22261964.183    22261967.256
  20251204.787   -27358557.97649 -20794238.32548  20251204.053    20251207.400
  21222057.776   -23520955.62349 -18311391.18347  21222057.145    21222060.901
  22163520.680   -14055495.33949 -10933843.58347  22163520.134    22163523.448
  22244502.369   -16050659.79949 -12273317.01746  22244502.062    22244505.720
  24149756.763    -3748322.92649  -2902690.54645  24149756.272    24149760.359
  23742166.888    -4786714.02649  -3717917.63045  23742166.819    23742170.520
  20656490.537   -23330377.05949 -18169416.38648  20656490.070    20656492.003
 03  2 26  2 29  0.0000000  0  8G14G15G17G23G 3G31G 9G18
  22243708.742   -14351095.25449 -11161613.71846  22243708.261    22243711.245
  20249690.879   -27366513.32149 -20800437.27548  20249690.161    20249693.498
  21229368.879   -23482535.53749 -18281453.44547  21229368.254    21229371.981
  22174439.736   -13998115.27549 -10889131.83147  22174439.195    22174442.495
  22236070.220   -16094971.02749 -12307845.20646  22236069.849    22236073.536
  24133601.637    -3833218.28149  -2968842.63645  24133601.175    24133605.328
  23732347.119    -4838316.40149  -3758127.22245  23732347.078    23732350.843
  20661080.557   -23306256.36349 -18150621.01748  20661080.092    20661082.023
 03  2 26  2 29 30.0000000  0  8G14G15G17G23G 3G31G 9G18
  22225510.511   -14446727.46949 -11236132.26746  22225510.010    22225512.962
  20248241.546   -27374129.59449 -20806372.01848  20248240.825    20248244.163
  21236742.428   -23443787.33249 -18251260.03447  21236741.800    21236745.525
  22185371.335   -13940669.13349 -10844368.59447  22185370.807    22185374.078
  22227735.236   -16138771.45849 -12341975.37247  22227734.909    22227738.582
  24117511.843    -3917770.77349  -3034727.57245  24117511.314    24117515.537
  23722599.727    -4889539.21449  -3798041.05545  23722599.516    23722603.377
  20665716.357   -23281894.83749 -18131637.99448  20665715.893    20665717.838
 03  2 26  2 30  0.0000000  0  8G14G15G17G23G 3G31G 9G18
  22207370.793   -14542052.23949 -11310411.25446  22207370.297    22207373.176
  20246857.303   -27381403.81249 -20812040.22148  20246856.593    20246859.901
  21244178.761   -23404708.99049 -18220809.37647  21244178.122    21244181.885
  22196315.630   -13883156.36249 -10799553.42947  22196315.101    22196318.405
  22219497.977   -16182058.23349 -12375705.27947  22219497.662    22219501.341
  24101488.059    -4001976.16649  -3100342.09145  24101487.528    24101491.669
  23712925.481    -4940377.93349  -3837655.59645  23712925.263    23712929.036
  20670398.085   -23257292.10649 -18112467.01048  20670397.622    20670399.569
 03  2 26  2 30 30.0000000  0  8G14G15G17G23G 3G31G 9G18
  22189289.820   -14637068.16549 -11384449.57746  22189289.325    22189292.180
  20245538.206   -27388335.71149 -20817441.68348  20245537.466    20245540.791
  21251677.914   -23365300.53049 -18190101.48847  21251677.260    21251681.074
  22207272.177   -13825579.07849 -10754687.99747  22207271.656    22207274.958
  22211358.589   -16224830.83849 -12409034.54647  22211358.247    22211361.946
  24085530.456    -4085832.91749  -3165684.88845  24085529.895    24085534.168
  23703324.641    -4990830.62649  -3876969.33045  23703324.510    23703328.252
  20675125.373   -23232450.01749 -18093109.51748  20675124.909    20675126.853
 03  2 26  2 31  0.0000000  0  8G14G15G17G23G 3G31G 9G18
  22171268.233   -14731771.94449 -11458244.67346  22171267.741    22171270.615
  20244284.611   -27394923.24749 -20822574.80848  20244283.884    20244287.178
  21259240.109   -23325560.77649 -18159135.44047  21259239.465    21259243.296
  22218241.067   -13767937.25849 -10709772.27547  22218240.532    22218243.830
  22203317.437   -16267087.10349 -12441961.45647  22203317.113    22203320.828
  24069639.945    -4169337.61049  -3230753.38445  24069639.406    24069643.686
  23693797.991    -5040893.41049  -3915979.23945  23693797.865    23693801.557
  20679898.061   -23207369.16749 -18073565.97248  20679897.605    20679899.550
 03  2 26  2 31 30.0000000  0  8G14G15G17G23G 3G31G 9G18
  22153306.324   -14826162.12049 -11531795.39546  22153305.836    22153308.737
  20243096.618   -27401166.17649 -20827439.41248  20243095.906    20243099.172
  21266865.306   -23285490.00549 -18127911.45447  21266864.676    21266868.514
  22229221.823   -13710232.84449 -10664807.78647  22229221.290    22229224.583
  22195374.701   -16308826.41549 -12474485.55747  22195374.362    22195378.029
  24053816.636    -4252488.67049  -3295546.31745  24053816.199    24053820.428
  23684345.857    -5090564.46849  -3954683.91545  23684345.808    23684349.299
  20684715.812   -23182051.66349 -18053838.02648  20684715.340    20684717.288
 03  2 26  2 32  0.0000000  0  8G14G15G17G23G 3G31G 9G18
  22135404.635   -14920235.76349 -11605099.47146  22135404.159    22135407.014
  20241974.545   -27407062.83249 -20832034.18748  20241973.813    20241977.071
  21274553.654   -23245087.33749 -18096428.85547  21274553.033    21274556.884
  22240214.441   -13652466.35649 -10619794.92647  22240213.920    22240217.202
  22187530.586   -16350047.09149 -12506605.51947  22187530.272    22187533.899
  24038061.313    -4335283.16449  -3360061.45345  24038060.887    24038065.049
  23674968.954    -5139840.42449  -3993080.71645  23674968.870    23674972.337
  20689578.427   -23156498.29849 -18033926.28748  20689577.973    20689579.924
 03  2 26  2 32 30.0000000  0  8G14G15G17G23G 3G31G 9G18
  22117563.623   -15013990.55849 -11678155.09646  22117563.130    22117565.988
  20240918.522   -27412612.05449 -20836358.23648  20240917.784    20240921.071
  21282305.302   -23204352.01949 -18064687.03947  21282304.697    21282308.544
  22251218.620   -13594638.92049 -10574734.57147  22251218.082    22251221.368
  22179785.486   -16390747.71049 -12538320.23847  22179785.184    22179788.770
  24022374.254    -4417718.69549  -3424296.83445  24022373.827    24022377.955
  23665667.743    -5188718.73449  -4031167.67345  23665667.569    23665671.101
  20694485.721   -23130710.09449 -18013831.56548  20694485.266    20694487.195
 03  2 26  2 33  0.0000000  0  8G14G15G17G23G 3G31G 9G18
  22099783.610   -15107424.78149 -11750960.92946  22099783.149    22099786.016
  20239928.758   -27417813.08449 -20840410.96948  20239928.029    20239931.318
  21290120.163   -23163284.58049 -18032686.43947  21290119.547    21290123.399
  22262234.094   -13536752.18349 -10529628.00847  22262233.566    22262236.841
  22172139.554   -16430927.64449 -12569629.23347  22172139.178    22172142.749
  24006755.964    -4499793.51649  -3488251.17845  24006755.409    24006759.648
  23656442.568    -5237197.25949  -4068943.11445  23656442.386    23656445.862
  20699437.414   -23104688.89849 -17993555.29748  20699436.938    20699438.858
 03  2 26  2 33 30.0000000  0  8G14G15G17G23G 3G31G 9G18
  22082065.176   -15200535.51449 -11823514.67946  22082064.715    22082067.605
  20239005.549   -27422664.43949 -20844191.22448  20239004.819    20239008.121
  21297998.425   -23121884.12549 -18000426.33747  21297997.803    21298001.639
  22273260.809   -13478806.41549 -10484475.44147  22273260.263    22273263.535
  22164592.940   -16470585.18049 -12600531.16747  22164592.592    22164596.101
  23991206.859    -4581504.45549  -3551921.98445  23991206.333    23991210.594
  23647294.202    -5285272.53049  -4106404.32145  23647293.960    23647297.373
  20704433.197   -23078435.51449 -17973098.09448  20704432.740    20704434.679
 03  2 26  2 34  0.0000000  0  8G14G15G17G23G 3G31G 9G18
  22064408.767   -15293320.12349 -11895814.31346  22064408.298    22064411.201
  20238149.211   -27427164.58949 -20847697.81748  20238148.481    20238151.783
  21305940.255   -23080149.56249 -17967905.89347  21305939.645    21305943.452
  22284298.622   -13420802.41649 -10439277.50447  22284298.072    22284301.327
  22157146.008   -16509718.70449 -12631024.77547  22157145.677    22157149.197
  23975727.415    -4662848.91249  -3615307.20745  23975726.980    23975731.242
  23638223.059    -5332941.55449  -4143548.97145  23638222.789    23638226.230
  20709473.143   -23051950.43349 -17952460.35648  20709472.690    20709474.630
 03  2 26  2 34 30.0000000  0  8G14G15G17G23G 3G31G 9G18
  22046814.910   -15385776.47549 -11967858.16046  22046814.408    22046817.330
  20237359.874   -27431312.49749 -20850929.93448  20237359.158    20237362.454
  21313945.738   -23038080.56249 -17935124.84947  21313945.123    21313948.920
  22295347.216   -13362741.50549 -10394035.21747  22295346.683    22295349.922
  22149799.019   -16548327.24349 -12661109.30847  22149798.654    22149802.170
  23960318.182    -4743824.70549  -3678405.15745  23960317.657    23960322.011
  23629229.708    -5380201.70149  -4180375.04045  23629229.435    23629232.872
  20714556.886   -23025235.19049 -17931643.27148  20714556.411    20714558.339
 03  2 26  2 35  0.0000000  0  8G14G15G17G23G 3G31G 9G18
  22029283.947   -15477902.04349 -12039644.25547  22029283.474    22029286.348
  20236637.798   -27435106.93849 -20853886.61948  20236637.068    20236640.361
  21322014.901   -22995676.71349 -17902082.88947  21322014.257    21322018.089
  22306406.508   -13304624.34449 -10348749.10247  22306405.977    22306409.229
  22142552.168   -16586409.55549 -12690783.79147  22142551.820    22142555.315
  23944979.590    -4824429.15049  -3741213.74945  23944979.186    23944983.326
  23620314.641    -5427050.32049  -4216880.41345  23620314.367    23620317.743
  20719684.142   -22998291.13049 -17910647.88948  20719683.672    20719685.592
 03  2 26  2 35 30.0000000  0  8G14G15G17G23G 3G31G 9G18
  22011816.211   -15569695.28449 -12111171.39547  22011815.767    22011818.624
  20235983.085   -27438547.41049 -20856567.49048  20235982.371    20235985.647
  21330147.713   -22952938.35149 -17868780.27147  21330147.106    21330150.912
  22317476.215   -13246452.50949 -10303420.38447  22317475.673    22317478.914
  22135405.557   -16623964.85449 -12720047.61947  22135405.238    22135408.718
  23929712.049    -4904660.55249  -3803731.66445  23929711.626    23929715.673
  23611478.350    -5473485.01249  -4253063.24245  23611478.114    23611481.493
  20724854.638   -22971119.80949 -17889475.41448  20724854.172    20724856.094
 03  2 26  2 36  0.0000000  0  8G14G15G17G23G 3G31G 9G18
  21994412.491   -15661152.39549 -12182436.61447  21994412.045    21994414.828
  20235396.234   -27441631.31649 -20858970.52148  20235395.517    20235398.780
  21338344.569   -22909863.57349 -17835215.50847  21338343.942    21338347.758
  22328556.444   -13188225.51649 -10258048.68347  22328555.893    22328559.131
  22128359.736   -16660990.79549 -12748898.95447  22128359.386    22128362.890
  23914516.242    -4984515.09149  -3865955.91245  23914515.846    23914519.705
  23602721.550    -5519501.88049  -4288920.50545  23602721.366    23602724.788
  20730068.485   -22943720.68449 -17868125.43048  20730068.033    20730069.935
 03  2 26  2 36 30.0000000  0  8G14G15G17G23G 3G31G 9G18
  21977072.852   -15752272.49549 -12253439.23447  21977072.429    21977075.171
  20234877.206   -27444358.85449 -20861095.86548  20234876.477    20234879.738
  21346605.263   -22866453.38549 -17801389.38447  21346604.623    21346608.446
  22339646.719   -13129945.73149 -10212635.85147  22339646.175    22339649.409
  22121414.583   -16697487.62949 -12777338.01147  22121414.244    22121417.771
  23899392.256    -5063991.70549  -3927885.65545  23899391.866    23899395.815
  23594044.543    -5565099.56449  -4324451.11245  23594044.323    23594047.795
  20735325.172   -22916096.67449 -17846600.20648  20735324.723    20735326.599
 03  2 26  2 37  0.0000000  0  8G14G15G17G23G 3G31G 9G18
  21959797.964   -15843052.56149 -12324176.89347  21959797.539    21959800.246
  20234426.343   -27446727.95949 -20862941.90748  20234425.629    20234428.882
  21354929.961   -22822706.68249 -17767301.04847  21354929.350    21354933.133
  22350746.927   -13071613.29049 -10167181.98847  22350746.430    22350749.650
  22114570.538   -16733453.21849 -12805363.11347  22114570.192    22114573.706
  23884340.904    -5143087.27349  -3989518.50345  23884340.485    23884344.399
  23585447.946    -5610274.62649  -4359652.42645  23585447.735    23585451.232
  20740624.576   -22888248.09449 -17824900.00248  20740624.135    20740626.000
 03  2 26  2 37 30.0000000  0  8G14G15G17G23G 3G31G 9G18
  21942588.149   -15933490.48249 -12394647.93247  21942587.693    21942590.406
  20234043.921   -27448737.61749 -20864507.85448  20234043.203    20234046.450
  21363318.805   -22778623.23349 -17732950.30347  21363318.173    21363321.907
  22361857.015   -13013229.29249 -10121687.95847  22361856.489    22361859.778
  22107827.776   -16768886.70849 -12832973.59447  22107827.410    22107830.918
  23869362.415    -5221799.65349  -4050852.74145  23869361.865    23869365.782
  23576932.305    -5655024.64349  -4394522.51845  23576932.050    23576935.622
  20745966.451   -22860176.34349 -17803025.89448  20745965.977    20745967.848
 03  2 26  2 38  0.0000000  0  8G14G15G17G23G 3G31G 9G18
  21925443.865   -16023584.08049 -12464850.68147  21925443.411    21925446.130
  20233729.984   -27450387.18449 -20865793.21348  20233729.291    20233732.530
  21371771.740   -22734202.87049 -17698337.03647  21371771.101    21371774.831
  22372976.751   -12954794.81349 -10076154.57647  22372976.221    22372979.542
  22101186.363   -16803787.47249 -12860168.96647  22101185.987    22101189.483
  23854457.145    -5300126.67449  -4111886.70245  23854456.683    23854460.589
  23568497.922    -5699347.16749  -4429059.50445  23568497.748    23568501.397
  20751350.564   -22831882.81749 -17780978.97648  20751350.069    20751351.942
 03  2 26  2 38 30.0000000  0  8G14G15G17G23G 3G31G 9G18
  21908365.622   -16113330.38049 -12534782.81247  21908365.175    21908367.942
  20233485.008   -27451674.59949 -20866796.38248  20233484.300    20233487.528
  21380288.975   -22689444.15149 -17663460.11247  21380288.374    21380292.111
  22384105.995   -12896309.98849 -10030581.97947  22384105.486    22384108.807
  22094646.633   -16838153.65949 -12886947.78847  22094646.275    22094649.780
  23839625.944    -5378065.10849  -4172617.87745  23839625.411    23839629.242
  23560145.667    -5743238.78149  -4463260.70945  23560145.461    23560149.064
  20756776.682   -22803367.92049 -17758759.56748  20756776.223    20756778.131
 03  2 26  2 39  0.0000000  0  8G14G15G17G23G 3G31G 9G18
  21891353.794   -16202727.80149 -12604443.08247  21891353.352    21891356.121
  20233309.002   -27452599.56249 -20867517.11548  20233308.302    20233311.506
  21388870.573   -22644347.80049 -17628320.09947  21388869.963    21388873.677
  22395244.537   -12837776.45349  -9984971.41647  22395244.025    22395247.370
  22088208.791   -16871984.95349 -12913309.80347  22088208.411    22088211.896
  23824868.854    -5455613.44649  -4233045.06345  23824868.447    23824872.257
  23551875.737    -5786697.68049  -4497124.74045  23551875.585    23551879.079
  20762244.676   -22774633.40449 -17736369.01948  20762244.208    20762246.114
 03  2 26  2 39 30.0000000  0  8G14G15G17G23G 3G31G 9G18
  21874408.833   -16291773.72949 -12673829.46747  21874408.402    21874411.160
  20233202.309   -27453160.30749 -20867954.04548  20233201.586    20233204.783
  21397516.668   -22598912.53849 -17592916.00647  21397516.028    21397519.735
  22406392.322   -12779194.51249  -9939323.14647  22406391.788    22406395.145
  22081872.990   -16905279.54049 -12939253.61447  22081872.638    22081876.105
  23810186.714    -5532768.63949  -4293165.93145  23810186.201    23810190.028
  23543688.724    -5829720.42249  -4530648.91945  23543688.573    23543692.031
  20767754.437   -22745679.40849 -17713807.45348  20767753.963    20767755.862
 03  2 26  2 40  0.0000000  0  8G14G15G17G23G 3G31G 9G18
  21857531.273   -16380465.85349 -12742940.14947  21857530.816    21857533.546
  20233165.092   -27453355.84549 -20868106.39048  20233164.362    20233167.555
  21406227.219   -22553138.23849 -17557247.71347  21406226.598    21406230.298
  22417549.093   -12720565.26449  -9893638.00746  22417548.564    22417551.894
  22075639.489   -16938036.67149 -12964778.62747  22075639.143    22075642.612
  23795579.738    -5609528.49449  -4352978.72545  23795579.144    23795583.017
  23535585.203    -5872304.54949  -4563831.30345  23535585.043    23535588.472
  20773305.576   -22716507.89349 -17691076.38348  20773305.100    20773306.985
 03  2 26  2 40 30.0000000  0  8G14G15G17G23G 3G31G 9G18
  21840721.359   -16468802.49149 -12811773.84647  21840720.894    21840723.581
  20233197.477   -27453185.58249 -20867973.70248  20233196.739    20233199.933
  21415002.198   -22507025.30949 -17521315.55347  21415001.553    21415005.267
  22428714.543   -12661890.25649  -9847917.21146  22428714.005    22428717.334
  22069508.344   -16970256.03549 -12989884.60447  22069507.958    22069511.427
  23781048.368    -5685891.19649  -4412482.07345  23781047.704    23781051.593
  23527565.574    -5914448.13749  -4596670.41445  23527565.306    23527568.812
  20778897.884   -22687120.02349 -17668176.72848  20778897.419    20778899.329
 03  2 26  2 41  0.0000000  0  8G14G15G17G23G 3G31G 9G18
  21823979.694   -16556780.50949 -12880328.08947  21823979.223    21823981.908
  20233299.826   -27452647.60449 -20867554.48648  20233299.099    20233302.287
  21423841.826   -22460572.58849 -17485118.62647  21423841.223    21423844.927
  22439888.766   -12603169.41549  -9802160.70046  22439888.219    22439891.548
  22063479.868   -17001935.55949 -13014569.92347  22063479.541    22063482.961
  23766593.151    -5761853.72649  -4471673.59345  23766592.510    23766596.273
  23519630.316    -5956147.67749  -4629163.51445  23519630.049    23519633.561
  20784531.271   -22657516.39549 -17645108.95248  20784530.799    20784532.654
 03  2 26  2 41 30.0000000  0  8G14G15G17G23G 3G31G 9G18
  21807306.488   -16644398.74949 -12948601.99247  21807306.006    21807308.654
  20233472.214   -27451741.50449 -20866848.42448  20233471.489    20233474.685
  21432746.158   -22413780.10049 -17448656.95947  21432745.549    21432749.218
  22451071.389   -12544404.30949  -9756369.70546  22451070.827    22451074.174
  22057554.208   -17033075.28449 -13038834.62547  22057553.853    22057557.257
  23752214.233    -5837414.68949  -4530552.21045  23752213.645    23752217.455
  23511779.918    -5997401.61749  -4661309.39245  23511779.694    23511783.191
  20790205.332   -22627698.94249 -17621874.55747  20790204.871    20790206.719
 03  2 26  2 42  0.0000000  0  8G14G15G17G23G 3G31G 9G18
  21790702.290   -16731654.11449 -13016593.13347  21790701.801    21790704.439
  20233715.050   -27450465.29049 -20865853.96248  20233714.331    20233717.549
  21441715.302   -22366647.07049 -17411929.92047  21441714.670    21441718.342
  22462262.440   -12485594.68449  -9710544.01346  22462261.920    22462265.261
  22051731.535   -17063673.29349 -13062677.20847  22051731.224    22051734.597
  23737912.419    -5912570.55149  -4589115.16145  23737911.926    23737915.636
  23504014.988    -6038206.37649  -4693105.26045  23504014.779    23504018.260
  20795920.001   -22597667.92749 -17598473.75347  20795919.564    20795921.385
 03  2 26  2 42 30.0000000  0  8G14G15G17G23G 3G31G 9G18
  21774167.388   -16818545.27649 -13084300.48147  21774166.888    21774169.517
  20234028.257   -27448819.19649 -20864571.28648  20234027.544    20234030.761
  21450749.091   -22319174.20049 -17374938.06247  21450748.446    21450752.132
  22473461.554   -12426742.68549  -9664685.30246  22473461.037    22473464.394
  22046011.948   -17093729.86049 -13086097.88447  22046011.644    22046014.995
  23723688.045    -5987320.28149  -4647361.64445  23723687.563    23723691.274
  23496335.835    -6078560.69549  -4724550.14245  23496335.516    23496339.140
  20801674.988   -22567425.39949 -17574908.13547  20801674.540    20801676.334
 03  2 26  2 43  0.0000000  0  8G14G15G17G23G 3G31G 9G18
  21757702.439   -16905068.99649 -13151721.51147  21757701.936    21757704.566
  20234412.328   -27446800.95849 -20862998.63048  20234411.608    20234414.827
  21459847.782   -22271360.17449 -17337680.37947  21459847.137    21459850.864
  22484668.857   -12367847.90149  -9618793.24846  22484668.328    22484671.710
  22040395.798   -17123242.78549 -13109094.94847  22040395.512    22040398.844
  23709541.528    -6061660.44349  -4705288.99245  23709540.997    23709544.796
  23488742.938    -6118461.03149  -4755641.26845  23488742.612    23488746.306
  20807470.167   -22536971.41949 -17551177.74547  20807469.719    20807471.513
 03  2 26  2 43 30.0000000  0  8G14G15G17G23G 3G31G 9G18
  21741307.769   -16991223.50849 -13218854.84847  21741307.266    21741309.860
  20234867.377   -27444409.76349 -20861135.35148  20234866.653    20234869.882
  21469011.422   -22223204.57249 -17300156.52847  21469010.793    21469014.580
  22495884.082   -12308911.54649  -9572868.79746  22495883.524    22495886.896
  22034883.131   -17152211.88849 -13131668.25647  22034882.908    22034886.182
  23695473.327    -6135589.10249  -4762895.68345  23695472.766    23695476.609
  23481236.957    -6157904.88349  -4786376.70445  23481236.628    23481240.408
  20813305.336   -22506307.41349 -17527283.69547  20813304.889    20813306.662
 03  2 26  2 44  0.0000000  0  8G14G15G17G23G 3G31G 9G18
  21724983.639   -17077007.04349 -13285699.11747  21724983.167    21724985.739
  20235393.506   -27441644.88549 -20858980.89248  20235392.759    20235395.995
  21478240.060   -22174707.80549 -17262366.84647  21478239.434    21478243.210
  22507107.050   -12249934.56749  -9526912.70446  22507106.464    22507109.830
  22029474.136   -17180636.48849 -13153817.27047  22029473.853    22029477.138
  23681483.808    -6209104.23849  -4820180.15445  23681483.270    23681487.016
  23473818.110    -6196890.24349  -4816754.85945  23473817.894    23473821.710
  20819180.208   -22475434.68249 -17503227.00847  20819179.762    20819181.537
 03  2 26  2 44 30.0000000  0  8G14G15G17G23G 3G31G 9G18
  21708730.584   -17162417.31949 -13352252.53247  21708730.099    21708732.642
  20235990.953   -27438505.16649 -20856534.33948  20235990.225    20235993.453
  21487533.666   -22125869.64049 -17224311.13247  21487533.030    21487536.805
  22518337.592   -12190917.66649  -9480925.49946  22518337.050    22518340.359
  22024168.900   -17208515.52549 -13175541.17547  22024168.625    22024171.949
  23667573.454    -6282203.56849  -4877140.61945  23667572.910    23667576.581
  23466487.233    -6235414.68149  -4846773.86445  23466486.979    23466490.688
  20825094.613   -22444354.26449 -17479008.48147  20825094.157    20825095.933
 03  2 26  2 45  0.0000000  0  8G14G15G17G23G 3G31G 9G18
  21692549.017   -17247451.88949 -13418513.19647  21692548.531    21692551.053
  20236659.986   -27434989.41949 -20853794.77848  20236659.252    20236662.497
  21496892.239   -22076689.78249 -17185989.15647  21496891.631    21496895.402
  22529575.576   -12131861.48949  -9434907.69246  22529575.030    22529578.364
  22018967.658   -17235848.20949 -13196839.34947  22018967.376    22018970.708
  23653742.658    -6354884.75649  -4933775.26045  23653742.145    23653745.789
  23459244.499    -6273475.59549  -4876431.66545  23459244.163    23459247.785
  20831048.326   -22413067.05549 -17454628.82147  20831047.886    20831049.668
 03  2 26  2 45 30.0000000  0  8G14G15G17G23G 3G31G 9G18
  21676439.322   -17332108.97549 -13484479.71247  21676438.814    21676441.282
  20237400.742   -27431096.56649 -20850761.37948  20237400.000    20237403.262
  21506316.015   -22027167.71449 -17147400.53147  21506315.398    21506319.145
  22540820.902   -12072766.97949  -9388860.01546  22540820.365    22540823.698
  22013870.484   -17262633.82149 -13217711.23047  22013870.195    22013873.577
  23639991.992    -6427145.59549  -4990082.35945  23639991.405    23639995.032
  23452090.426    -6311070.47349  -4905726.34245  23452090.136    23452093.666
  20837041.220   -22381574.22349 -17430088.94047  20837040.767    20837042.553
 03  2 26  2 46  0.0000000  0  8G14G15G17G23G 3G31G 9G18
  21660401.771   -17416386.89349 -13550150.76947  21660401.236    21660403.699
  20238213.320   -27426826.21949 -20847433.82448  20238212.597    20238215.859
  21515804.814   -21977303.68349 -17108545.44147  21515804.199    21515807.919
  22552073.256   -12013635.48949  -9342783.52246  22552072.725    22552076.012
  22008877.459   -17288872.17749 -13238156.67647  22008877.171    22008880.568
  23626321.463    -6498984.44049  -5046060.62745  23626320.908    23626324.528
  23445025.342    -6348197.61949  -4934656.55545  23445025.097    23445028.554
  20843072.893   -22349877.46649 -17405390.15247  20843072.441    20843074.198
 03  2 26  2 46 30.0000000  0  8G14G15G17G23G 3G31G 9G18
  21644436.868   -17500282.66549 -13615524.05147  21644436.349    21644438.810
  20239098.157   -27422176.33449 -20843810.53148  20239097.444    20239100.682
  21525358.845   -21927097.11549 -17069423.43547  21525358.215    21525361.942
  22563332.680   -11954466.95349  -9296678.16146  22563332.140    22563335.408
  22003988.830   -17314561.93549 -13258174.64347  22003988.576    22003991.954
  23612731.762    -6570398.26649  -5101707.70845  23612731.236    23612734.885
  23438049.863    -6384853.81449  -4963219.78745  23438049.646    23438053.067
  20849143.325   -22317977.14349 -17380532.74447  20849142.869    20849144.648
 03  2 26  2 47  0.0000000  0  8G14G15G17G23G 3G31G 9G18
  21628545.166   -17583793.77949 -13680597.60547  21628544.690    21628547.135
  20240055.468   -27417145.51249 -20839890.39848  20240054.742    20240057.995
  21534978.241   -21876546.83449 -17030033.60047  21534977.595    21534981.335
  22574599.098   -11895261.72249  -9250544.20846  22574598.531    22574601.780
  21999204.872   -17339701.91349 -13277764.21647  21999204.588    21999207.962
  23599223.504    -6641384.46549  -5157021.58645  23599222.978    23599226.612
  23431164.558    -6421036.21249  -4991413.83745  23431164.212    23431167.685
  20855252.408   -22285873.62049 -17355516.99947  20855251.950    20855253.714
 03  2 26  2 47 30.0000000  0  8G14G15G17G23G 3G31G 9G18
  21612726.892   -17666918.86049 -13745370.35747  21612726.461    21612728.895
  20241085.304   -27411733.59149 -20835673.30748  20241084.579    20241087.836
  21544662.887   -21825653.52249 -16990376.47947  21544662.231    21544665.991
  22585872.210   -11836021.04649  -9204382.63746  22585871.656    22585874.926
  21994525.528   -17364292.01449 -13296925.31247  21994525.207    21994528.566
  23585796.941    -6711941.43749  -5212000.98845  23585796.393    23585800.059
  23424369.713    -6456743.14649  -5019237.38045  23424369.416    23424372.893
  20861399.741   -22253568.97349 -17330344.53647  20861399.284    20861401.045
 03  2 26  2 48  0.0000000  0  8G14G15G17G23G 3G31G 9G18
  21596982.560   -17749655.61549 -13809840.51247  21596982.111    21596984.541
  20242187.923   -27405939.12149 -20831158.12548  20242187.215    20242190.468
  21554412.922   -21774416.86149 -16950451.80747  21554412.281    21554416.018
  22597151.956   -11776745.37649  -9158193.79646  22597151.427    22597154.676
  21989950.995   -17388331.19649 -13315657.11947  21989950.654    21989954.017
  23572452.449    -6782066.85249  -5266644.11845  23572451.901    23572455.573
  23417665.834    -6491972.07249  -5046688.45945  23417665.537    23417669.028
  20867585.307   -22221063.56249 -17305015.63247  20867584.862    20867586.625
 03  2 26  2 48 30.0000000  0  8G14G15G17G23G 3G31G 9G18
  21581312.485   -17832002.29049 -13874006.71247  21581312.019    21581314.463
  20243363.511   -27399761.29849 -20826344.22948  20243362.812    20243366.048
  21564228.369   -21722836.48349 -16910259.30747  21564227.716    21564231.429
  22608438.214   -11717435.70749  -9111978.46546  22608437.684    22608440.931
  21985481.296   -17411819.20849 -13333959.44247  21985480.978    21985484.355
  23559190.407    -6851758.71749  -5320949.41545  23559189.923    23559193.665
  23411053.298    -6526720.97449  -5073765.49645  23411053.035    23411056.515
  20873808.765   -22188358.99549 -17279531.54447  20873808.303    20873810.078
 03  2 26  2 49  0.0000000  0  8G14G15G17G23G 3G31G 9G18
  21565717.092   -17913956.45949 -13937867.05647  21565716.625    21565719.084
  20244612.289   -27393198.80749 -20821230.59048  20244611.587    20244614.833
  21574109.208   -21670912.26549 -16869798.87447  21574108.565    21574112.314
  22619730.902   -11658092.28049  -9065736.82246  22619730.347    22619733.597
  21981116.741   -17434754.94949 -13351831.41947  21981116.420    21981119.783
  23546011.438    -6921014.44449  -5374914.86945  23546010.946    23546014.655
  23404532.673    -6560987.17549  -5100466.39745  23404532.429    23404535.834
  20880069.986   -22155455.97849 -17253892.81047  20880069.529    20880071.290
 03  2 26  2 49 30.0000000  0  8G14G15G17G23G 3G31G 9G18
  21550196.744   -17995516.19649 -14001420.05447  21550196.260    21550198.746
  20245934.426   -27386250.97849 -20815816.68648  20245933.712    20245936.966
  21584055.479   -21618644.03749 -16829070.39247  21584054.840    21584058.608
  22631029.774   -11598716.27949  -9019469.81346  22631029.234    22631032.461
  21976857.318   -17457138.28249 -13369272.95247  21976856.978    21976860.362
  23532915.863    -6989832.38049  -5428539.17645  23532915.352    23532918.952
  23398104.235    -6594768.55549  -5126789.52245  23398104.069    23398107.339
  20886368.761   -22122355.68949 -17228100.36747  20886368.318    20886370.078
 03  2 26  2 50  0.0000000  0  8G14G15G17G23G 3G31G 9G18
  21534751.789   -18076679.52849 -14064664.17147  21534751.312    21534753.815
  20247330.087   -27378916.71149 -20810101.66048  20247329.386    20247332.624
  21594067.297   -21566031.62449 -16788073.71047  21594066.679    21594070.442
  22642334.786   -11539308.10449  -8973177.72446  22642334.208    22642337.450
  21972703.236   -17478968.38249 -13386283.40047  21972702.864    21972706.215
  23519903.900    -7058210.15549  -5481820.51345  23519903.390    23519907.030
  23391768.529    -6628063.00549  -5152733.20945  23391768.306    23391771.537
  20892704.865   -22089059.14849 -17202155.00547  20892704.422    20892706.154
 03  2 26  2 50 30.0000000  0  8G14G15G17G23G 3G31G 9G18
  21519382.468   -18157445.52449 -14127598.67147  21519382.002    21519384.503
  20248799.317   -27371195.95649 -20804085.47548  20248798.588    20248801.807
  21604144.460   -21513075.84449 -16746809.46647  21604143.843    21604147.587
  22653645.537   -11479869.62449  -8926862.01746  22653644.968    22653648.219
  21968654.242   -17500245.65949 -13402863.06647  21968653.897    21968657.258
  23506975.855    -7126146.67049  -5534758.00845  23506975.440    23506979.070
  23385525.646    -6660869.17349  -5178296.42945  23385525.428    23385528.714
  20899077.926   -22055568.50049 -17176058.38447  20899077.480    20899079.231
 03  2 26  2 51  0.0000000  0  8G14G15G17G23G 3G31G 9G18
  21504089.511   -18237810.14349 -14190220.40947  21504089.089    21504091.637
  20250342.606   -27363085.80249 -20797765.86248  20250341.880    20250345.092
  21614287.310   -21459774.89949 -16705276.25947  21614286.691    21614290.412
  22664962.358   -11420399.48249  -8880521.63946  22664961.793    22664965.038
  21964710.992   -17520967.65849 -13419010.05547  21964710.657    21964713.961
  23494132.753    -7193637.85449  -5587348.50045  23494132.241    23494135.760
  23379376.457    -6693182.94449  -5203475.96845  23379376.265    23379379.534
  20905488.088   -22021882.65249 -17149809.65847  20905487.642    20905489.401
 03  2 26  2 51 30.0000000  0  8G14G15G17G23G 3G31G 9G18
  21488873.222   -18317772.21449 -14252528.47747  21488872.783    21488875.310
  20251960.065   -27354585.99649 -20791142.62648  20251959.350    20251962.535
  21624495.738   -21406129.34649 -16663474.51847  21624495.084    21624498.808
  22676284.881   -11360899.11949  -8834157.72046  22676284.325    22676287.579
  21960873.298   -17541134.79949 -13434724.68947  21960872.964    21960876.259
  23481374.528    -7260682.35149  -5639590.91345  23481374.093    23481377.602
  23373321.307    -6725002.77549  -5228270.61845  23373321.057    23373324.508
  20911935.131   -21988003.15649 -17123410.03947  20911934.689    20911936.464
 03  2 26  2 52  0.0000000  0  8G14G15G17G23G 3G31G 9G18
  21473733.804   -18397330.27449 -14314521.73047  21473733.344    21473735.849
  20253651.770   -27345696.14949 -20784215.46548  20253651.029    20253654.199
  21634769.708   -21352139.27149 -16621404.31647  21634769.051    21634772.791
  22687612.926   -11301369.67849  -8787771.13446  22687612.373    22687615.690
  21957141.202   -17560747.21149 -13450007.06647  21957140.838    21957144.115
  23468701.691    -7327278.63449  -5691484.05845  23468701.196    23468704.614
  23367360.446    -6756326.83549  -5252678.96045  23367360.183    23367363.637
  20918418.690   -21953931.76549 -17096860.89147  20918418.241    20918420.013
 03  2 26  2 52 30.0000000  0  8G14G15G17G23G 3G31G 9G18
  21458671.667   -18476482.21349 -14376198.52747  21458671.221    21458673.716
  20255417.848   -27336415.33449 -20776983.66248  20255417.107    20255420.272
  21645109.198   -21297804.84649 -16579065.81447  21645108.533    21645112.269
  22698946.416   -11241811.64649  -8741362.28046  22698945.857    22698949.188
  21953514.732   -17579804.37849 -13464856.78947  21953514.348    21953517.593
  23456114.571    -7393424.61849  -5743026.32145  23456114.040    23456117.505
  23361494.418    -6787152.98349  -5276699.31245  23361494.174    23361497.572
  20924938.588   -21919669.52149 -17070163.02947  20924938.157    20924939.876
 03  2 26  2 53  0.0000000  0  8G14G15G17G23G 3G31G 9G18
  21443687.288   -18555225.45049 -14437556.85147  21443686.854    21443689.308
  20257258.674   -27326741.76549 -20769445.80048  20257257.932    20257261.100
  21655514.350   -21243125.24649 -16536458.33747  21655513.720    21655517.436
  22710285.379   -11182224.80849  -8694930.96946  22710284.847    22710288.194
  21949994.132   -17598304.96249 -13479272.80847  21949993.756    21949997.030
  23443613.646    -7459117.42449  -5794215.47145  23443613.114    23443616.549
  23355723.648    -6817478.48449  -5300329.53945  23355723.469    23355726.800
  20931494.801   -21885216.60949 -17043316.58647  20931494.358    20931496.056
 03  2 26  2 53 30.0000000  0  8G14G15G17G23G 3G31G 9G18
  21428780.997   -18633558.56849 -14498595.61047  21428780.544    21428782.938
  20259174.262   -27316675.14449 -20761601.67248  20259173.516    20259176.683
  21665985.201   -21188100.65349 -16493582.04247  21665984.561    21665988.273
  22721629.593   -11122610.60249  -8648478.32946  22721629.053    22721632.385
  21946579.440   -17616249.15949 -13493255.28847  21946579.099    21946582.361
  23431199.156    -7524355.64549  -5845050.39145  23431198.579    23431202.057
  23350048.499    -6847301.77649  -5323568.44545  23350048.268    23350051.624
  20938086.930   -21850574.79749 -17016322.95847  20938086.474    20938088.142
 03  2 26  2 54  0.0000000  0  8G14G15G17G23G 3G31G 9G18
  21413953.158   -18711479.58349 -14559313.24747  21413952.689    21413955.037
  20261164.854   -27306214.41249 -20753450.43948  20261164.128    20261167.296
  21676521.730   -21132731.13349 -16450436.96447  21676521.057    21676524.765
  22732978.946   -11062969.57949  -8602004.81046  22732978.377    22732981.695
  21943270.746   -17633636.38549 -13506803.76147  21943270.390    21943273.656
  23418871.556    -7589137.08149  -5895529.37945  23418871.112    23418874.481
  23344469.304    -6876620.61449  -5346414.26145  23344469.011    23344472.375
  20944714.867   -21815744.57949 -16989182.51947  20944714.426    20944716.092
 03  2 26  2 54 30.0000000  0  8G14G15G17G23G 3G31G 9G18
  21399203.967   -18788986.94049 -14619708.55447  21399203.510    21399205.840
  20263230.591   -27295359.01249 -20744991.67348  20263229.868    20263233.025
  21687123.809   -21077016.53349 -16407022.99047  21687123.177    21687126.916
  22744333.118   -11003302.59849  -8555511.05246  22744332.576    22744335.939
  21940068.025   -17650466.61949 -13519918.21447  21940067.657    21940070.965
  23406631.264    -7653460.21049  -5945651.23145  23406630.788    23406634.091
  23338986.415    -6905433.40649  -5368865.75345  23338986.186    23338989.499
  20951378.392   -21780727.44249 -16961896.42647  20951377.963    20951379.618
 03  2 26  2 55  0.0000000  0  8G14G15G17G23G 3G31G 9G18
  21384533.997   -18866077.93649 -14679779.42147  21384533.565    21384535.874
  20265371.743   -27284107.10449 -20736223.93948  20265371.006    20265374.165
  21697791.699   -21020956.14549 -16363339.56947  21697791.082    21697794.883
  22755692.371   -10943609.14649  -8508996.66946  22755691.832    22755695.165
  21936971.579   -17666738.53849 -13532597.61447  21936971.231    21936974.543
  23394478.674    -7717321.99049  -5995413.59845  23394478.150    23394481.536
  23333600.359    -6933736.86349  -5390920.37545  23333600.165    23333603.493
  20958077.502   -21745523.51249 -16934464.78147  20958077.075    20958078.701
 03  2 26  2 55 30.0000000  0  8G14G15G17G23G 3G31G 9G18
  21369943.509   -18942751.47149 -14739525.00147  21369943.076    21369945.359
  20267588.270   -27272458.95149 -20727147.45148  20267587.551    20267590.715
  21708525.194   -20964551.26849 -16319387.72147  21708524.571    21708528.363
  22767056.395   -10883890.96049  -8462463.01146  22767055.845    22767059.113
  21933981.222   -17682452.90949 -13544842.57147  21933980.891    21933984.162
  23382414.039    -7780721.42749  -6044815.71645  23382413.582    23382416.889
  23328311.437    -6961530.19649  -5412577.49045  23328311.196    23328314.592
  20964811.787   -21710134.64949 -16906889.03447  20964811.333    20964812.960
 03  2 26  2 56  0.0000000  0  8G14G15G17G23G 3G31G 9G18
  21355432.791   -19019005.64349 -14798943.80147  21355432.352    21355434.648
  20269880.476   -27260413.29449 -20717761.22048  20269879.754    20269882.917
  21719324.402   -20907801.27549 -16275166.95846  21719323.755    21719327.541
  22778424.995   -10824148.32349  -8415910.30346  22778424.455    22778427.744
  21931097.055   -17697609.43049 -13556652.83147  21931096.688    21931099.934
  23370437.821    -7843656.44249  -6093855.93945  23370437.393    23370440.699
  23323119.991    -6988811.14449  -5433835.35345  23323119.810    23323123.179
  20971581.086   -21674561.54149 -16879169.71747  20971580.637    20971582.298
 03  2 26  2 56 30.0000000  0  8G14G15G17G23G 3G31G 9G18
  21341002.357   -19094837.73849 -14858033.71347  21341001.942    21341004.239
  20272248.674   -27247968.33549 -20708063.84648  20272247.965    20272251.127
  21730189.363   -20850705.59549 -16230676.82646  21730188.733    21730192.486
  22789798.289   -10764381.20649  -8369338.52246  22789797.791    22789801.060
  21928319.207   -17712206.96549 -13568027.52247  21928318.811    21928322.032
  23358550.604    -7906124.21149  -6142532.06745  23358550.112    23358553.444
  23318026.556    -7015576.88249  -5454691.74745  23318026.496    23318029.735
  20978385.434   -21638804.44449 -16851307.03647  20978384.986    20978386.607
 03  2 26  2 57  0.0000000  0  8G14G15G17G23G 3G31G 9G18
  21326652.448   -19170247.02649 -14916794.16147  21326652.026    21326654.319
  20274692.788   -27235124.38549 -20698055.56548  20274692.083    20274695.225
  21741119.927   -20793265.25549 -16185918.11946  21741119.296    21741123.061
  22801175.980   -10704591.17249  -8322748.87546  22801175.445    22801178.709
  21925647.652   -17726246.30449 -13578967.25347  21925647.270    21925650.415
  23346752.421    -7968123.98249  -6190843.53345  23346751.940    23346755.226
  23313031.466    -7041826.56849  -5475146.01545  23313031.334    23313034.550
  20985224.383   -21602865.46649 -16823302.63047  20985223.932    20985225.546
 03  2 26  2 57 30.0000000  0  8G14G15G17G23G 3G31G 9G18
  21312383.446   -19245231.08749 -14975223.26747  21312383.014    21312385.279
  20277213.157   -27221879.82649 -20687735.11948  20277212.438    20277215.606
  21752116.294   -20735479.11349 -16140889.96446  21752115.664    21752119.419
  22812558.099   -10644777.83349  -8276141.07946  22812557.545    22812560.800
  21923082.480   -17739726.39149 -13589471.20547  21923082.106    21923085.232
  23335043.785    -8029652.99049  -6238788.15545  23335043.276    23335046.649
  23308135.042    -7067557.42949  -5495196.00745  23308134.864    23308138.066
  20992097.919   -21566744.95149 -16795156.76847  20992097.463    20992099.085
 03  2 26  2 58  0.0000000  0  8G14G15G17G23G 3G31G 9G18
  21298195.675   -19319788.27149 -15033319.74347  21298195.226    21298197.472
  20279809.881   -27208233.94549 -20677101.95948  20279809.160    20279812.327
  21763178.258   -20677347.97149 -16095592.97546  21763177.626    21763181.402
  22823944.461   -10584941.97849  -8229515.73246  22823943.922    22823947.170
  21920623.636   -17752647.49949 -13599539.58347  21920623.268    21920626.435
  23323425.083    -8090709.52649  -6286364.62445  23323424.619    23323427.907
  23303337.661    -7092767.57549  -5514840.25145  23303337.575    23303340.699
  20999005.766   -21530443.81349 -16766870.15547  20999005.321    20999006.942
 03  2 26  2 58 30.0000000  0  8G14G15G17G23G 3G31G 9G18
  21284089.469   -19393916.72449 -15091082.14347  21284089.022    21284091.257
  20282483.085   -27194185.99549 -20666155.49448  20282482.380    20282485.541
  21774305.991   -20618871.33449 -16050026.78746  21774305.342    21774309.158
  22835335.051   -10525084.05249  -8182873.20146  22835334.517    22835337.755
  21918271.349   -17765008.92449 -13609171.85247  21918270.957    21918274.116
  23311896.720    -8151291.64649  -6333571.43145  23311896.220    23311899.462
  23298639.765    -7117455.20249  -5534077.33245  23298639.678    23298642.847
  21005947.841   -21493962.91349 -16738443.46947  21005947.385    21005949.007
 03  2 26  2 59  0.0000000  0  8G14G15G17G23G 3G31G 9G18
  21270065.135   -19467614.95049 -15148509.30147  21270064.681    21270066.932
  20285232.932   -27179735.54449 -20654895.38948  20285232.206    20285235.377
  21785499.378   -20560049.65549 -16004191.70746  21785498.743    21785502.564
  22846729.620   -10465205.04349  -8136214.22346  22846729.099    22846732.341
  21916025.495   -17776811.01449 -13618368.27147  21916025.102    21916028.257
  23300458.857    -8211397.85049  -6380407.37745  23300458.348    23300461.618
  23294041.564    -7141618.86349  -5552906.13445  23294041.441    23294044.602
  21012923.859   -21457303.60849 -16709877.76447  21012923.386    21012925.044
 03  2 26  2 59 30.0000000  0  8G14G15G17G23G 3G31G 9G18
  21256123.111   -19540880.69049 -15205599.46047  21256122.623    21256124.891
  20288059.572   -27164881.36649 -20643320.70248  20288058.849    20288062.028
  21796758.354   -20500882.83349 -15958087.70346  21796757.769    21796761.619
  22858128.232   -10405305.10949  -8089538.94846  22858127.698    22858130.908
  21913886.081   -17788053.47249 -13627128.62147  21913885.693    21913888.885
  23289112.051    -8271025.82049  -6426870.67646  23289111.533    23289114.772
  23289543.540    -7165256.34249  -5571324.93745  23289543.375    23289546.514
  21019933.700   -21420466.43749 -16681173.47047  21019933.243    21019934.868
 03  2 26  3  0  0.0000000  0  8G14G15G17G23G 3G31G 9G18
  21242263.563   -19613712.92849 -15262351.81847  21242263.097    21242265.345
  20290963.121   -27149623.10449 -20631431.13848  20290962.399    20290965.578
  21808082.979   -20441371.58449 -15911715.30446  21808082.359    21808086.237
  22869530.626   -10345385.46649  -8042848.31646  22869530.064    22869533.254
  21911853.083   -17798736.62249 -13635453.14547  21911852.750    21911855.908
  23277856.386    -8330174.32149  -6472960.37746  23277855.966    23277859.160
  23285145.791    -7188366.37749  -5589332.72445  23285145.659    23285148.780
  21026977.104   -21383453.10149 -16652331.89847  21026976.657    21026978.280
 03  2 26  3  0 30.0000000  0  8G14G15G17G23G 3G31G 9G18
  21228487.085   -19686108.77949 -15318764.14147  21228486.605    21228488.833
  20293943.934   -27133958.90449 -20619225.26248  20293943.206    20293946.393
  21819473.305   -20381514.89149 -15865073.74646  21819472.684    21819476.583
  22880936.834   -10285445.39549  -7996141.76346  22880936.307    22880939.426
  21909926.838   -17808859.54049 -13643341.12447  21909926.444    21909929.594
  23266692.521    -8388840.49549  -6518674.21546  23266692.085    23266695.379
  23280849.034    -7210945.97049  -5606927.19845  23280848.903    23280851.997
  21034054.112   -21346263.02849 -16623352.60947  21034053.668    21034055.277
 03  2 26  3  1  0.0000000  0  8G14G15G17G23G 3G31G 9G18
  21214793.849   -19758067.00549 -15374835.45547  21214793.364    21214795.591
  20297002.056   -27117888.34849 -20606702.75348  20297001.328    20297004.509
  21830929.253   -20321313.08249 -15818163.25146  21830928.693    21830932.583
  22892346.849   -10225485.83249  -7949420.02946  22892346.249    22892349.359
  21908107.027   -17818422.54849 -13650792.80947  21908106.663    21908109.786
  23255620.691    -8447022.97049  -6564011.16146  23255620.239    23255623.535
  23276653.470    -7232993.68649  -5624107.20645  23276653.308    23276656.386
  21041164.473   -21308897.80949 -16594236.84647  21041164.025    21041165.619
 03  2 26  3  1 30.0000000  0  8G14G15G17G23G 3G31G 9G18
  21201184.118   -19829586.41549 -15430564.83147  21201183.636    21201185.874
  20300137.585   -27101411.01649 -20593863.26848  20300136.838    20300140.043
  21842450.918   -20260766.54849 -15770984.15046  21842450.356    21842454.216
  22903760.333   -10165507.66749  -7902683.79146  22903759.747    22903762.849
  21906393.746   -17827425.71949 -13657808.25847  21906393.410    21906396.545
  23244641.290    -8504720.22249  -6608970.01746  23244640.760    23244644.084
  23272559.345    -7254508.34749  -5640871.86245  23272559.252    23272562.235
  21048307.997   -21271358.52149 -16564985.44247  21048307.550    21048309.144
 03  2 26  3  2  0.0000000  0  8G14G15G17G23G 3G31G 9G18
  21187658.338   -19900664.75949 -15485950.52447  21187657.850    21187660.084
  20303350.710   -27084525.70549 -20580705.87548  20303349.993    20303353.205
  21854038.195   -20199875.18049 -15723536.33946  21854037.604    21854041.456
  22915177.328   -10105510.73349  -7855932.92746  22915176.783    22915179.920
  21904787.092   -17835868.63649 -13664387.14347  21904786.772    21904789.892
  23233754.602    -8561930.06849  -6653549.06746  23233754.067    23233757.335
  23268567.071    -7275487.67749  -5657219.36545  23268566.957    23268569.998
  21055484.487   -21233645.87949 -16535598.96047  21055484.022    21055485.595
 03  2 26  3  2 30.0000000  0  8G14G15G17G23G 3G31G 9G18
  21174216.728   -19971300.89949 -15540991.64247  21174216.245    21174218.455
  20306641.525   -27067232.24249 -20567230.45048  20306640.815    20306644.046
  21865691.006   -20138639.40149 -15675820.15746  21865690.437    21865694.226
  22926597.699   -10045496.24449  -7809168.38546  22926597.167    22926600.340
  21903286.921   -17843752.12549 -13670530.11747  21903286.580    21903289.722
  23222960.883    -8618651.41849  -6697747.47146  23222960.289    23222963.588
  23264677.043    -7295930.32449  -5673148.68145  23264676.849    23264679.860
  21062693.678   -21195761.40149 -16506078.58147  21062693.211    21062694.790
 03  2 26  3  3  0.0000000  0  8G14G15G17G23G 3G31G 9G18
  21160859.719   -20041492.40749 -15595686.29447  21160859.232    21160861.408
  20310010.406   -27049528.68049 -20553435.46748  20310009.683    20310012.901
  21877409.470   -20077058.51749 -15627835.06546  21877408.865    21877412.625
  22938021.490    -9985463.85749  -7762389.91146  22938020.978    22938024.093
  21901893.347   -17851075.25749 -13676236.44547  21901893.015    21901896.158
  23212260.572    -8674881.46349  -6741563.04346  23212259.977    23212263.313
  23260889.505    -7315833.78649  -5688657.84145  23260889.261    23260892.326
  21069935.584   -21157704.80949 -16476424.08647  21069935.117    21069936.701
 03  2 26  3  3 30.0000000  0  8G14G15G17G23G 3G31G 9G18
  21147587.446   -20111238.50649 -15650033.87947  21147586.960    21147589.125
  20313457.263   -27031415.36249 -20539321.19648  20313456.547    20313459.747
  21889193.491   -20015133.19149 -15579581.57346  21889192.857    21889196.618
  22949448.471    -9925414.79749  -7715598.43346  22949447.938    22949451.043
  21900606.216   -17857839.06849 -13681506.93947  21900605.886    21900609.031
  23201653.887    -8730619.44749  -6784995.20946  23201653.290    23201656.666
  23257204.726    -7335197.23149  -5703746.22545  23257204.543    23257207.555
  21077209.935   -21119477.86949 -16446636.85947  21077209.462    21077211.063
 03  2 26  3  4  0.0000000  0  8G14G15G17G23G 3G31G 9G18
  21134400.422   -20180536.75149 -15704032.48247  21134399.959    21134402.094
  20316982.291   -27012891.12249 -20524886.72348  20316981.586    20316984.799
  21901042.996   -19952863.47349 -15531059.72546  21901042.384    21901046.180
  22960878.693    -9865348.70649  -7668793.68846  22960878.145    22960881.249
  21899425.613   -17864042.92249 -13686341.10547  21899425.323    21899428.469
  23191141.290    -8785862.98149  -6828042.07246  23191140.708    23191144.139
  23253623.199    -7354018.30449  -5718411.96645  23253622.972    23253625.991
  21084516.648   -21081080.90649 -16416717.14547  21084516.153    21084517.750
 03  2 26  3  4 30.0000000  0  8G14G15G17G23G 3G31G 9G18
  21121298.799   -20249386.06549 -15757681.26947  21121298.339    21121300.490
  20320585.662   -26993955.12849 -20510131.40048  20320584.952    20320588.179
  21912958.077   -19890249.57849 -15482269.68746  21912957.455    21912961.212
  22972312.015    -9805266.31349  -7621976.23346  22972311.470    22972314.566
  21898351.531   -17869687.08349 -13690739.14347  21898351.247    21898354.421
  23180723.134    -8840610.56649  -6870702.49346  23180722.550    23180726.035
  23250145.066    -7372295.70349  -5732654.06445  23250144.870    23250147.857
  21091855.402   -21042515.09649 -16386665.86047  21091854.943    21091856.566
 03  2 26  3  5  0.0000000  0  8G14G15G17G23G 3G31G 9G18
  21108282.900   -20317784.81249 -15810978.96947  21108282.440    21108284.616
  20324267.496   -26974606.89249 -20495054.84848  20324266.793    20324270.015
  21924938.572   -19827291.88149 -15433211.75146  21924937.941    21924941.649
  22983748.281    -9745168.13449  -7575146.48946  22983747.773    22983750.878
  21897383.951   -17874771.68849 -13694701.16647  21897383.657    21897386.819
  23170399.649    -8894860.66849  -6912975.27046  23170399.116    23170402.507
  23246770.721    -7390027.82249  -5746471.27745  23246770.506    23246773.511
  21099226.182   -21003781.28049 -16356483.66047  21099225.730    21099227.362
 03  2 26  3  5 30.0000000  0  8G14G15G17G23G 3G31G 9G18
  21095353.044   -20385731.55749 -15863924.45947  21095352.581    21095354.753
  20328027.842   -26954846.09749 -20479656.81448  20328027.140    20328030.381
  21936984.408   -19763990.59149 -15383886.08146  21936983.792    21936987.503
  22995187.434    -9685054.72049  -7528304.86246  22995186.963    22995190.084
  21896522.791   -17879297.17849 -13698227.51347  21896522.483    21896525.624
  23160171.267    -8948611.75349  -6954859.19746  23160170.717    23160173.965
  23243500.341    -7407213.53149  -5759862.70945  23243500.080    23243503.221
  21106628.765   -20964880.52549 -16326171.37747  21106628.315    21106629.926
 03  2 26  3  6  0.0000000  0  8G14G15G17G23G 3G31G 9G18
  21082509.507   -20453224.82149 -15916516.58947  21082509.033    21082511.189
  20331866.922   -26934671.82749 -20463936.60148  20331866.212    20331869.430
  21949095.625   -19700345.80949 -15334292.75446  21949095.008    21949098.768
  23006629.422    -9624926.39249  -7481451.63146  23006628.932    23006632.117
  21895768.034   -17883263.59749 -13701318.22147  21895767.725    21895770.879
  23150037.996    -9001862.16149  -6996352.99546  23150037.442    23150040.717
  23240334.231    -7423851.14249  -5772827.05545  23240334.081    23240337.154
  21114062.970   -20925813.53349 -16295729.56147  21114062.499    21114064.128
 03  2 26  3  6 30.0000000  0  8G14G15G17G23G 3G31G 9G18
  21069752.699   -20520262.23949 -15968753.51147  21069752.204    21069754.340
  20335784.854   -26914082.81149 -20447893.21748  20335784.160    20335787.401
  21961272.276   -19636357.09449 -15284431.43346  21961271.658    21961275.417
  23018074.411    -9564782.83449  -7434586.52146  23018073.889    23018077.066
  21895119.723   -17886670.42549 -13703972.88147  21895119.434    21895122.521
  23140000.449    -9054609.51349  -7037454.79646  23139999.962    23140003.145
  23237272.980    -7439938.33849  -5785362.50245  23237272.761    23237275.858
  21121528.778   -20886580.40249 -16265158.27847  21121528.330    21121529.975
 03  2 26  3  7  0.0000000  0  8G14G15G17G23G 3G31G 9G18
  21057082.682   -20586843.51349 -16020635.00047  21057082.205    21057084.307
  20339781.650   -26893079.45049 -20431526.96448  20339780.953    20339784.210
  21973514.091   -19572025.99249 -15234303.31846  21973513.473    21973517.193
  23029521.960    -9504625.72749  -7387710.84746  23029521.424    23029524.615
  21894577.615   -17889519.34549 -13706192.81347  21894577.309    21894580.401
  23130058.680    -9106853.37949  -7078164.27446  23130058.185    23130061.419
  23234316.519    -7455474.75649  -5797468.77645  23234316.288    23234319.403
  21129025.788   -20847183.26949 -16234459.21047  21129025.320    21129027.006
 03  2 26  3  7 30.0000000  0  8G14G15G17G23G 3G31G 9G18
  21044499.987   -20652966.06149 -16072159.04047  21044499.516    21044501.589
  20343857.597   -26871660.17049 -20414836.60748  20343856.891    20343860.161
  21985821.213   -19507351.79449 -15183907.84246  21985820.593    21985824.288
  23040972.107    -9444454.39949  -7340824.10846  23040971.577    23040974.791
  21894141.812   -17891809.51649 -13707977.35747  21894141.501    21894144.568
  23120213.190    -9158591.24849  -7118479.47046  23120212.760    23120216.032
  23231465.335    -7470457.84149  -5809143.87345  23231465.091    23231468.224
  21136554.029   -20807622.08149 -16203632.30947  21136553.559    21136555.252
 03  2 26  3  8  0.0000000  0  8G14G15G17G23G 3G31G 9G18
  21032004.725   -20718628.94249 -16123324.90247  21032004.256    21032006.292
  20348012.768   -26849824.67149 -20397821.93348  20348012.064    20348015.327
  21998193.572   -19442334.81349 -15133245.27546  21998192.948    21998196.648
  23052424.887    -9384269.54849  -7293926.81846  23052424.349    23052427.584
  21893812.268   -17893541.46749 -13709326.92647  21893811.949    21893815.017
  23110464.396    -9209821.84949  -7158399.38646  23110463.898    23110467.118
  23228719.623    -7484886.58649  -5820387.02645  23228719.422    23228722.530
  21144113.269   -20767897.84449 -16172678.35447  21144112.815    21144114.511
 03  2 26  3  8 30.0000000  0  8G14G15G17G23G 3G31G 9G18
  21019597.200   -20783830.87049 -16174131.57447  21019596.716    21019598.745
  20352247.194   -26827572.53449 -20380482.59848  20352246.483    20352249.769
  22010631.012   -19376975.63449 -15082316.04646  22010630.398    22010634.114
  23063880.088    -9324072.05349  -7247019.67846  23063879.558    23063882.770
  21893588.724   -17894715.92749 -13710242.08147  21893588.444    21893591.473
  23100812.206    -9260544.02549  -7197923.13046  23100811.741    23100814.944
  23226079.659    -7498759.90649  -5831197.38045  23226079.450    23226082.515
  21151703.380   -20728011.64349 -16141598.18847  21151702.921    21151704.616
 03  2 26  3  9  0.0000000  0  8G14G15G17G23G 3G31G 9G18
  21007277.744   -20848569.81949 -16224577.48747  21007277.294    21007279.294
  20356561.136   -26804902.62349 -20362817.73148  20356560.446    20356563.700
  22023133.559   -19311274.44749 -15031120.32946  22023132.932    22023136.683
  23075337.812    -9263861.51149  -7200102.37546  23075337.256    23075340.447
  21893471.373   -17895332.49649 -13710722.52447  21893471.075    21893474.145
  23091257.309    -9310755.47549  -7237048.91146  23091256.865    23091260.034
  23223545.704    -7512075.63249  -5841573.25045  23223545.494    23223548.571
  21159324.274   -20687963.54049 -16110391.86747  21159323.805    21159325.504
 03  2 26  3  9 30.0000000  0  8G14G15G17G23G 3G31G 9G18
  20995046.698   -20912844.29449 -16274661.46847  20995046.232    20995048.251
  20360954.726   -26781814.24349 -20344826.77848  20360954.025    20360957.270
  22035701.216   -19245230.98949 -14979657.90746  22035700.602    22035704.366
  23086797.890    -9203638.21749  -7153175.13846  23086797.363    23086800.552
  21893460.096   -17895391.75849 -13710768.69447  21893459.793    21893462.878
  23081799.875    -9360454.80449  -7275775.62246  23081799.343    23081802.481
  23221118.235    -7524832.34549  -5851513.52045  23221117.995    23221121.071
  21166975.744   -20647754.82349 -16079060.39247  21166975.288    21166976.989
 03  2 26  3 10  0.0000000  0  8G14G15G17G23G 3G31G 9G18
  20982904.270   -20976653.22949 -16324382.69547  20982903.788    20982905.822
  20365428.014   -26758307.09949 -20326509.51448  20365427.298    20365430.546
  22048333.895   -19178845.75649 -14927929.16546  22048333.277    22048337.098
  23098260.288    -9143402.94949  -7106238.57246  23098259.748    23098262.905
  21893554.737   -17894894.25249 -13710381.02647  21893554.448    21893557.519
  23072440.131    -9409640.75749  -7314102.32946  23072439.602    23072442.689
  23218797.239    -7537029.24249  -5861017.58845  23218797.012    23218800.058
  21174657.580   -20607386.41149 -16047604.48647  21174657.120    21174658.819
 03  2 26  3 10 30.0000000  0  8G14G15G17G23G 3G31G 9G18
  20970850.564   -21039995.48249 -16373740.27347  20970850.103    20970852.188
  20369981.007   -26734380.98749 -20307865.78648  20369980.296    20369983.502
  22061031.447   -19112119.57049 -14875934.74746  22061030.837    22061034.680
  23109724.859    -9083156.21349  -7059293.06346  23109724.351    23109727.476
  21893755.202   -17893840.60149 -13709559.99447  21893754.929    21893757.981
  23063178.148    -9458312.11849  -7352028.03546  23063177.635    23063180.832
  23216583.005    -7548665.07649  -5870084.45245  23216582.814    23216585.817
  21182369.659   -20566859.10249 -16016024.75847  21182369.211    21182370.897
 03  2 26  3 11  0.0000000  0  8G14G15G17G23G 3G31G 9G18
  20958886.039   -21102869.28749 -16422732.82347  20958885.576    20958887.688
  20374613.916   -26710034.95549 -20288894.84948  20374613.209    20374616.381
  22073793.944   -19045052.40149 -14823674.62146  22073793.311    22073797.167
  23121191.655    -9022897.78649  -7012338.45346  23121191.133    23121194.279
  21894061.551   -17892231.05449 -13708305.79747  21894061.207    21894064.279
  23054014.559    -9506467.01949  -7389551.31146  23054014.108    23054017.268
  23214475.809    -7559738.18049  -5878712.81545  23214475.563    23214478.641
  21190111.878   -20526173.51149 -15984321.69347  21190111.411    21190113.084
 03  2 26  3 11 30.0000000  0  8G14G15G17G23G 3G31G 9G18
  20947010.876   -21165273.21849 -16471359.24247  20947010.397    20947012.586
  20379326.807   -26685268.40049 -20269596.23748  20379326.096    20379329.270
  22086621.263   -18977644.41049 -14771148.92746  22086620.621    22086624.473
  23132660.663    -8962627.99349  -6965374.97946  23132660.092    23132663.237
  21894473.573   -17890065.83449 -13706618.60947  21894473.222    21894476.290
  23044949.655    -9554104.00649  -7426671.03246  23044949.154    23044952.180
  23212476.000    -7570246.96849  -5886901.46645  23212475.857    23212478.869
  21197884.126   -20485330.13149 -15952495.67547  21197883.661    21197885.334
 03  2 26  3 12  0.0000000  0  8G14G15G17G23G 3G31G 9G18
  20935225.341   -21227206.41549 -16519618.85447  20935224.885    20935227.070
  20384119.800   -26660080.98349 -20249969.68348  20384119.098    20384122.284
  22099513.336   -18909896.24949 -14718358.15846  22099512.676    22099516.520
  23144131.623    -8902347.55449  -6918403.20646  23144131.082    23144134.263
  21894991.198   -17887345.60449 -13704498.94847  21894990.843    21894993.917
  23035983.357    -9601221.99349  -7463386.31846  23035982.861    23035985.897
  23210583.802    -7580190.51849  -5894649.66245  23210583.618    23210586.634
  21205686.127   -20444330.25049 -15920547.70647  21205685.659    21205687.328
 03  2 26  3 12 30.0000000  0  8G14G15G17G23G 3G31G 9G18
  20923529.681   -21288667.27049 -16567510.41347  20923529.222    20923531.407
  20388993.072   -26634471.93249 -20230014.58248  20388992.344    20388995.533
  22112470.034   -18841808.30349 -14665302.62146  22112469.376    22112473.255
  23155604.590    -8842056.77849  -6871423.37746  23155604.079    23155607.248
  21895614.344   -17884070.74149 -13701947.10547  21895614.002    21895617.123
  23027116.084    -9647819.47449  -7499696.02946  23027115.629    23027118.599
  23208799.273    -7589567.79449  -5901956.61445  23208799.063    23208802.152
  21213517.775   -20403174.67749 -15888478.42147  21213517.327    21213518.992
 03  2 26  3 13  0.0000000  0  8G14G15G17G23G 3G31G 9G18
  20911924.172   -21349654.54949 -16615032.94547  20911923.717    20911925.901
  20393946.613   -26608440.92949 -20209730.68448  20393945.885    20393949.055
  22125491.308   -18773380.95949 -14611982.62446  22125490.651    22125494.573
  23167079.461    -8781755.91449  -6824435.69646  23167078.925    23167082.082
  21896342.899   -17880242.22649 -13698963.84347  21896342.587    21896345.661
  23018348.155    -9693895.18149  -7535599.16846  23018347.669    23018350.646
  23207122.762    -7598377.57649  -5908821.35745  23207122.563    23207125.658
  21221378.917   -20361864.04449 -15856288.30947  21221378.445    21221380.123
 03  2 26  3 13 30.0000000  0  8G14G15G17G23G 3G31G 9G18
  20900409.067   -21410166.86449 -16662185.37347  20900408.608    20900410.783
  20398980.574   -26581987.19849 -20189117.38148  20398979.840    20398983.021
  22138577.133   -18704614.45149 -14558398.32746  22138576.503    22138580.437
  23178556.195    -8721445.05849  -6777440.22046  23178555.650    23178558.848
  21897176.804   -17875860.16049 -13695549.24147  21897176.480    21897179.578
  23009679.892    -9739447.52349  -7571094.48146  23009679.430    23009682.257
  23205554.551    -7606618.41749  -5915242.77945  23205554.369    23205557.408
  21229269.457   -20320398.81549 -15823977.73547  21229268.993    21229270.673
 03  2 26  3 14  0.0000000  0  8G14G15G17G23G 3G31G 9G18
  20888984.574   -21470202.90949 -16708966.68647  20888984.127    20888986.252
  20404095.087   -26555110.29849 -20168174.33448  20404094.360    20404097.527
  22151727.447   -18635509.15549 -14504550.03946  22151726.789    22151730.742
  23190034.825    -8661124.46249  -6730437.16146  23190034.283    23190037.484
  21898115.876   -17870925.10749 -13691703.74247  21898115.580    21898118.663
  23001111.443    -9784475.15549  -7606180.92046  23001110.893    23001113.779
  23204094.902    -7614289.12049  -5921219.93245  23204094.670    23204097.657
  21237189.327   -20278779.85249 -15791547.37347  21237188.860    21237190.483
